<?xml version="1.0" encoding="UTF-8" standalone="no" ?>
<gpx xmlns="http://www.topografix.com/GPX/1/1" xmlns:xsi="http://www.w3.org/2001/XMLSchema-instance" xsi:schemaLocation="http://www.topografix.com/GPX/1/1 http://www.topografix.com/GPX/1/1/gpx.xsd" version="1.1" creator="VisuGPX - https://www.visugpx.com">
  <metadata>
    <name>Chamousillon Barlatte</name>
    <desc><![CDATA[Trace AlpineQuest 28/10/2017 09:22:46]]></desc>
  </metadata>
  <trk>
    <name><![CDATA[Chamousillon vraie]]></name>
    <trkseg>
      <trkpt lat="44.08899" lon="6.85402">
        <ele>751.38500976562</ele>
        <time>2017-10-28T07:22:46Z</time>
      </trkpt>
      <trkpt lat="44.08909" lon="6.8541">
        <ele>744.38500976562</ele>
        <time>2017-10-28T07:22:55Z</time>
      </trkpt>
      <trkpt lat="44.08914" lon="6.85402">
        <ele>791.38500976562</ele>
        <time>2017-10-28T07:26:07Z</time>
      </trkpt>
      <trkpt lat="44.08913" lon="6.85379">
        <ele>792.38500976562</ele>
        <time>2017-10-28T07:26:15Z</time>
      </trkpt>
      <trkpt lat="44.08911" lon="6.85368">
        <ele>793.38500976562</ele>
        <time>2017-10-28T07:26:20Z</time>
      </trkpt>
      <trkpt lat="44.0893" lon="6.85357">
        <ele>794.38500976562</ele>
        <time>2017-10-28T07:26:27Z</time>
      </trkpt>
      <trkpt lat="44.08955" lon="6.8535">
        <ele>792.38500976562</ele>
        <time>2017-10-28T07:26:33Z</time>
      </trkpt>
      <trkpt lat="44.0898" lon="6.85347">
        <ele>795.38500976562</ele>
        <time>2017-10-28T07:26:39Z</time>
      </trkpt>
      <trkpt lat="44.09008" lon="6.85337">
        <ele>796.38500976562</ele>
        <time>2017-10-28T07:26:45Z</time>
      </trkpt>
      <trkpt lat="44.09035" lon="6.85332">
        <ele>796.38500976562</ele>
        <time>2017-10-28T07:26:51Z</time>
      </trkpt>
      <trkpt lat="44.09052" lon="6.85319">
        <ele>796.38500976562</ele>
        <time>2017-10-28T07:26:57Z</time>
      </trkpt>
      <trkpt lat="44.0907" lon="6.85311">
        <ele>795.38500976562</ele>
        <time>2017-10-28T07:27:03Z</time>
      </trkpt>
      <trkpt lat="44.09088" lon="6.85301">
        <ele>795.38500976562</ele>
        <time>2017-10-28T07:27:08Z</time>
      </trkpt>
      <trkpt lat="44.09109" lon="6.85287">
        <ele>794.38500976562</ele>
        <time>2017-10-28T07:27:14Z</time>
      </trkpt>
      <trkpt lat="44.09126" lon="6.85278">
        <ele>794.38500976562</ele>
        <time>2017-10-28T07:27:19Z</time>
      </trkpt>
      <trkpt lat="44.0915" lon="6.85268">
        <ele>794.38500976562</ele>
        <time>2017-10-28T07:27:26Z</time>
      </trkpt>
      <trkpt lat="44.09167" lon="6.85259">
        <ele>794.38500976562</ele>
        <time>2017-10-28T07:27:31Z</time>
      </trkpt>
      <trkpt lat="44.09185" lon="6.8525">
        <ele>794.38500976562</ele>
        <time>2017-10-28T07:27:38Z</time>
      </trkpt>
      <trkpt lat="44.09192" lon="6.85247">
        <ele>793.38500976562</ele>
        <time>2017-10-28T07:27:43Z</time>
      </trkpt>
      <trkpt lat="44.09201" lon="6.85245">
        <ele>795.38500976562</ele>
        <time>2017-10-28T07:29:27Z</time>
      </trkpt>
      <trkpt lat="44.09218" lon="6.85237">
        <ele>794.38500976562</ele>
        <time>2017-10-28T07:29:33Z</time>
      </trkpt>
      <trkpt lat="44.09236" lon="6.85229">
        <ele>795.38500976562</ele>
        <time>2017-10-28T07:29:39Z</time>
      </trkpt>
      <trkpt lat="44.09253" lon="6.85223">
        <ele>797.38500976562</ele>
        <time>2017-10-28T07:29:45Z</time>
      </trkpt>
      <trkpt lat="44.09269" lon="6.85223">
        <ele>795.38500976562</ele>
        <time>2017-10-28T07:29:51Z</time>
      </trkpt>
      <trkpt lat="44.09282" lon="6.85233">
        <ele>798.38500976562</ele>
        <time>2017-10-28T07:29:57Z</time>
      </trkpt>
      <trkpt lat="44.09297" lon="6.85241">
        <ele>799.38500976562</ele>
        <time>2017-10-28T07:30:03Z</time>
      </trkpt>
      <trkpt lat="44.09312" lon="6.85251">
        <ele>800.38500976562</ele>
        <time>2017-10-28T07:30:09Z</time>
      </trkpt>
      <trkpt lat="44.0933" lon="6.85252">
        <ele>801.38500976562</ele>
        <time>2017-10-28T07:30:15Z</time>
      </trkpt>
      <trkpt lat="44.09348" lon="6.8525">
        <ele>804.38500976562</ele>
        <time>2017-10-28T07:30:21Z</time>
      </trkpt>
      <trkpt lat="44.09364" lon="6.85247">
        <ele>806.38500976562</ele>
        <time>2017-10-28T07:30:27Z</time>
      </trkpt>
      <trkpt lat="44.0938" lon="6.85237">
        <ele>809.38500976562</ele>
        <time>2017-10-28T07:30:33Z</time>
      </trkpt>
      <trkpt lat="44.09395" lon="6.85235">
        <ele>809.38500976562</ele>
        <time>2017-10-28T07:30:40Z</time>
      </trkpt>
      <trkpt lat="44.09406" lon="6.85243">
        <ele>809.38500976562</ele>
        <time>2017-10-28T07:30:42Z</time>
      </trkpt>
      <trkpt lat="44.09418" lon="6.85239">
        <ele>810.38500976562</ele>
        <time>2017-10-28T07:30:47Z</time>
      </trkpt>
      <trkpt lat="44.09425" lon="6.8523">
        <ele>811.38500976562</ele>
        <time>2017-10-28T07:30:49Z</time>
      </trkpt>
      <trkpt lat="44.09433" lon="6.85228">
        <ele>812.38500976562</ele>
        <time>2017-10-28T07:30:51Z</time>
      </trkpt>
      <trkpt lat="44.09439" lon="6.85223">
        <ele>815.38500976562</ele>
        <time>2017-10-28T07:30:53Z</time>
      </trkpt>
      <trkpt lat="44.09456" lon="6.85212">
        <ele>814.38500976562</ele>
        <time>2017-10-28T07:30:58Z</time>
      </trkpt>
      <trkpt lat="44.09475" lon="6.85209">
        <ele>813.38500976562</ele>
        <time>2017-10-28T07:31:03Z</time>
      </trkpt>
      <trkpt lat="44.09486" lon="6.85205">
        <ele>814.38500976562</ele>
        <time>2017-10-28T07:31:06Z</time>
      </trkpt>
      <trkpt lat="44.09492" lon="6.852">
        <ele>814.38500976562</ele>
        <time>2017-10-28T07:31:08Z</time>
      </trkpt>
      <trkpt lat="44.09508" lon="6.85189">
        <ele>816.38500976562</ele>
        <time>2017-10-28T07:31:14Z</time>
      </trkpt>
      <trkpt lat="44.09522" lon="6.85156">
        <ele>814.38500976562</ele>
        <time>2017-10-28T07:31:19Z</time>
      </trkpt>
      <trkpt lat="44.09533" lon="6.85127">
        <ele>813.38500976562</ele>
        <time>2017-10-28T07:31:25Z</time>
      </trkpt>
      <trkpt lat="44.09603" lon="6.85102">
        <ele>813.38500976562</ele>
        <time>2017-10-28T07:31:45Z</time>
      </trkpt>
      <trkpt lat="44.09612" lon="6.85094">
        <ele>813.38500976562</ele>
        <time>2017-10-28T07:31:47Z</time>
      </trkpt>
      <trkpt lat="44.09618" lon="6.85085">
        <ele>817.38500976562</ele>
        <time>2017-10-28T07:31:49Z</time>
      </trkpt>
      <trkpt lat="44.09626" lon="6.85078">
        <ele>823.38500976562</ele>
        <time>2017-10-28T07:31:51Z</time>
      </trkpt>
      <trkpt lat="44.09635" lon="6.8507">
        <ele>826.38500976562</ele>
        <time>2017-10-28T07:31:54Z</time>
      </trkpt>
      <trkpt lat="44.09643" lon="6.85071">
        <ele>818.38500976562</ele>
        <time>2017-10-28T07:31:56Z</time>
      </trkpt>
      <trkpt lat="44.09651" lon="6.85063">
        <ele>817.38500976562</ele>
        <time>2017-10-28T07:31:59Z</time>
      </trkpt>
      <trkpt lat="44.09664" lon="6.85041">
        <ele>817.38500976562</ele>
        <time>2017-10-28T07:32:05Z</time>
      </trkpt>
      <trkpt lat="44.09676" lon="6.85024">
        <ele>818.38500976562</ele>
        <time>2017-10-28T07:32:10Z</time>
      </trkpt>
      <trkpt lat="44.09692" lon="6.85007">
        <ele>820.38500976562</ele>
        <time>2017-10-28T07:32:16Z</time>
      </trkpt>
      <trkpt lat="44.09708" lon="6.84994">
        <ele>821.38500976562</ele>
        <time>2017-10-28T07:32:21Z</time>
      </trkpt>
      <trkpt lat="44.09725" lon="6.84983">
        <ele>824.38500976562</ele>
        <time>2017-10-28T07:32:27Z</time>
      </trkpt>
      <trkpt lat="44.0974" lon="6.84973">
        <ele>824.38500976562</ele>
        <time>2017-10-28T07:32:32Z</time>
      </trkpt>
      <trkpt lat="44.0976" lon="6.84962">
        <ele>823.38500976562</ele>
        <time>2017-10-28T07:32:38Z</time>
      </trkpt>
      <trkpt lat="44.09779" lon="6.84953">
        <ele>824.38500976562</ele>
        <time>2017-10-28T07:32:44Z</time>
      </trkpt>
      <trkpt lat="44.09796" lon="6.84946">
        <ele>823.38500976562</ele>
        <time>2017-10-28T07:32:49Z</time>
      </trkpt>
      <trkpt lat="44.09812" lon="6.84938">
        <ele>822.38500976562</ele>
        <time>2017-10-28T07:32:54Z</time>
      </trkpt>
      <trkpt lat="44.09829" lon="6.8493">
        <ele>823.38500976562</ele>
        <time>2017-10-28T07:32:59Z</time>
      </trkpt>
      <trkpt lat="44.09853" lon="6.84922">
        <ele>822.38500976562</ele>
        <time>2017-10-28T07:33:06Z</time>
      </trkpt>
      <trkpt lat="44.09873" lon="6.84924">
        <ele>822.38500976562</ele>
        <time>2017-10-28T07:33:12Z</time>
      </trkpt>
      <trkpt lat="44.09894" lon="6.84919">
        <ele>824.38500976562</ele>
        <time>2017-10-28T07:33:18Z</time>
      </trkpt>
      <trkpt lat="44.0991" lon="6.84912">
        <ele>824.38500976562</ele>
        <time>2017-10-28T07:33:23Z</time>
      </trkpt>
      <trkpt lat="44.09927" lon="6.84905">
        <ele>825.38500976562</ele>
        <time>2017-10-28T07:33:28Z</time>
      </trkpt>
      <trkpt lat="44.09937" lon="6.84901">
        <ele>825.38500976562</ele>
        <time>2017-10-28T07:33:31Z</time>
      </trkpt>
      <trkpt lat="44.09946" lon="6.84899">
        <ele>827.38500976562</ele>
        <time>2017-10-28T07:33:34Z</time>
      </trkpt>
      <trkpt lat="44.09965" lon="6.84891">
        <ele>830.38500976562</ele>
        <time>2017-10-28T07:33:40Z</time>
      </trkpt>
      <trkpt lat="44.09983" lon="6.84885">
        <ele>832.38598632812</ele>
        <time>2017-10-28T07:33:46Z</time>
      </trkpt>
      <trkpt lat="44.10007" lon="6.84891">
        <ele>832.38598632812</ele>
        <time>2017-10-28T07:33:55Z</time>
      </trkpt>
      <trkpt lat="44.10025" lon="6.84871">
        <ele>841.38598632812</ele>
        <time>2017-10-28T07:34:01Z</time>
      </trkpt>
      <trkpt lat="44.10033" lon="6.84863">
        <ele>841.38598632812</ele>
        <time>2017-10-28T07:34:04Z</time>
      </trkpt>
      <trkpt lat="44.10042" lon="6.84855">
        <ele>842.38598632812</ele>
        <time>2017-10-28T07:34:07Z</time>
      </trkpt>
      <trkpt lat="44.10051" lon="6.8485">
        <ele>841.38598632812</ele>
        <time>2017-10-28T07:34:10Z</time>
      </trkpt>
      <trkpt lat="44.10067" lon="6.84841">
        <ele>840.38598632812</ele>
        <time>2017-10-28T07:34:15Z</time>
      </trkpt>
      <trkpt lat="44.10087" lon="6.84842">
        <ele>840.38598632812</ele>
        <time>2017-10-28T07:34:21Z</time>
      </trkpt>
      <trkpt lat="44.10093" lon="6.84849">
        <ele>840.38598632812</ele>
        <time>2017-10-28T07:34:23Z</time>
      </trkpt>
      <trkpt lat="44.10112" lon="6.84862">
        <ele>842.38598632812</ele>
        <time>2017-10-28T07:34:29Z</time>
      </trkpt>
      <trkpt lat="44.10131" lon="6.84878">
        <ele>843.38598632812</ele>
        <time>2017-10-28T07:34:35Z</time>
      </trkpt>
      <trkpt lat="44.10149" lon="6.84889">
        <ele>846.38598632812</ele>
        <time>2017-10-28T07:34:41Z</time>
      </trkpt>
      <trkpt lat="44.10165" lon="6.84898">
        <ele>844.38598632812</ele>
        <time>2017-10-28T07:34:46Z</time>
      </trkpt>
      <trkpt lat="44.10183" lon="6.84907">
        <ele>846.38598632812</ele>
        <time>2017-10-28T07:34:52Z</time>
      </trkpt>
      <trkpt lat="44.10202" lon="6.84916">
        <ele>847.38598632812</ele>
        <time>2017-10-28T07:34:58Z</time>
      </trkpt>
      <trkpt lat="44.10221" lon="6.84922">
        <ele>849.38598632812</ele>
        <time>2017-10-28T07:35:04Z</time>
      </trkpt>
      <trkpt lat="44.1024" lon="6.84926">
        <ele>850.38598632812</ele>
        <time>2017-10-28T07:35:10Z</time>
      </trkpt>
      <trkpt lat="44.10259" lon="6.84929">
        <ele>851.38598632812</ele>
        <time>2017-10-28T07:35:16Z</time>
      </trkpt>
      <trkpt lat="44.10279" lon="6.84932">
        <ele>852.38598632812</ele>
        <time>2017-10-28T07:35:22Z</time>
      </trkpt>
      <trkpt lat="44.10298" lon="6.84935">
        <ele>853.38598632812</ele>
        <time>2017-10-28T07:35:28Z</time>
      </trkpt>
      <trkpt lat="44.10317" lon="6.84939">
        <ele>854.38598632812</ele>
        <time>2017-10-28T07:35:34Z</time>
      </trkpt>
      <trkpt lat="44.10335" lon="6.84943">
        <ele>855.38598632812</ele>
        <time>2017-10-28T07:35:40Z</time>
      </trkpt>
      <trkpt lat="44.10355" lon="6.84944">
        <ele>855.38598632812</ele>
        <time>2017-10-28T07:35:46Z</time>
      </trkpt>
      <trkpt lat="44.10374" lon="6.84946">
        <ele>855.38598632812</ele>
        <time>2017-10-28T07:35:52Z</time>
      </trkpt>
      <trkpt lat="44.1039" lon="6.84939">
        <ele>855.38598632812</ele>
        <time>2017-10-28T07:35:57Z</time>
      </trkpt>
      <trkpt lat="44.10398" lon="6.84914">
        <ele>854.38598632812</ele>
        <time>2017-10-28T07:36:03Z</time>
      </trkpt>
      <trkpt lat="44.10402" lon="6.8489">
        <ele>856.38598632812</ele>
        <time>2017-10-28T07:36:09Z</time>
      </trkpt>
      <trkpt lat="44.10408" lon="6.84867">
        <ele>857.38598632812</ele>
        <time>2017-10-28T07:36:15Z</time>
      </trkpt>
      <trkpt lat="44.10418" lon="6.8485">
        <ele>858.38598632812</ele>
        <time>2017-10-28T07:36:21Z</time>
      </trkpt>
      <trkpt lat="44.10432" lon="6.84836">
        <ele>858.38598632812</ele>
        <time>2017-10-28T07:36:27Z</time>
      </trkpt>
      <trkpt lat="44.10446" lon="6.84821">
        <ele>856.38598632812</ele>
        <time>2017-10-28T07:36:33Z</time>
      </trkpt>
      <trkpt lat="44.10455" lon="6.84802">
        <ele>862.38598632812</ele>
        <time>2017-10-28T07:36:40Z</time>
      </trkpt>
      <trkpt lat="44.10459" lon="6.84793">
        <ele>863.38598632812</ele>
        <time>2017-10-28T07:36:43Z</time>
      </trkpt>
      <trkpt lat="44.10469" lon="6.84775">
        <ele>864.38598632812</ele>
        <time>2017-10-28T07:36:49Z</time>
      </trkpt>
      <trkpt lat="44.10483" lon="6.8476">
        <ele>863.38598632812</ele>
        <time>2017-10-28T07:36:55Z</time>
      </trkpt>
      <trkpt lat="44.10495" lon="6.84745">
        <ele>864.38598632812</ele>
        <time>2017-10-28T07:37:01Z</time>
      </trkpt>
      <trkpt lat="44.10507" lon="6.84727">
        <ele>864.38598632812</ele>
        <time>2017-10-28T07:37:08Z</time>
      </trkpt>
      <trkpt lat="44.10517" lon="6.8471">
        <ele>865.38598632812</ele>
        <time>2017-10-28T07:37:14Z</time>
      </trkpt>
      <trkpt lat="44.1053" lon="6.84694">
        <ele>866.38598632812</ele>
        <time>2017-10-28T07:37:20Z</time>
      </trkpt>
      <trkpt lat="44.10543" lon="6.84679">
        <ele>866.38598632812</ele>
        <time>2017-10-28T07:37:26Z</time>
      </trkpt>
      <trkpt lat="44.10556" lon="6.84662">
        <ele>866.38598632812</ele>
        <time>2017-10-28T07:37:32Z</time>
      </trkpt>
      <trkpt lat="44.1057" lon="6.84645">
        <ele>867.38598632812</ele>
        <time>2017-10-28T07:37:38Z</time>
      </trkpt>
      <trkpt lat="44.10584" lon="6.84627">
        <ele>867.38598632812</ele>
        <time>2017-10-28T07:37:44Z</time>
      </trkpt>
      <trkpt lat="44.10603" lon="6.84602">
        <ele>868.38598632812</ele>
        <time>2017-10-28T07:37:51Z</time>
      </trkpt>
      <trkpt lat="44.10613" lon="6.84581">
        <ele>869.38598632812</ele>
        <time>2017-10-28T07:37:56Z</time>
      </trkpt>
      <trkpt lat="44.10624" lon="6.84552">
        <ele>869.38598632812</ele>
        <time>2017-10-28T07:38:02Z</time>
      </trkpt>
      <trkpt lat="44.10628" lon="6.84541">
        <ele>869.38598632812</ele>
        <time>2017-10-28T07:38:04Z</time>
      </trkpt>
      <trkpt lat="44.10639" lon="6.84508">
        <ele>868.38598632812</ele>
        <time>2017-10-28T07:38:10Z</time>
      </trkpt>
      <trkpt lat="44.10645" lon="6.84473">
        <ele>869.38598632812</ele>
        <time>2017-10-28T07:38:16Z</time>
      </trkpt>
      <trkpt lat="44.10659" lon="6.84438">
        <ele>868.38598632812</ele>
        <time>2017-10-28T07:38:22Z</time>
      </trkpt>
      <trkpt lat="44.10677" lon="6.8441">
        <ele>866.38598632812</ele>
        <time>2017-10-28T07:38:28Z</time>
      </trkpt>
      <trkpt lat="44.10668" lon="6.84375">
        <ele>867.38598632812</ele>
        <time>2017-10-28T07:38:34Z</time>
      </trkpt>
      <trkpt lat="44.10669" lon="6.84338">
        <ele>867.38598632812</ele>
        <time>2017-10-28T07:38:40Z</time>
      </trkpt>
      <trkpt lat="44.10681" lon="6.84307">
        <ele>865.38500976562</ele>
        <time>2017-10-28T07:38:46Z</time>
      </trkpt>
      <trkpt lat="44.10693" lon="6.84275">
        <ele>867.38500976562</ele>
        <time>2017-10-28T07:38:52Z</time>
      </trkpt>
      <trkpt lat="44.10705" lon="6.84245">
        <ele>867.38500976562</ele>
        <time>2017-10-28T07:38:58Z</time>
      </trkpt>
      <trkpt lat="44.10714" lon="6.8422">
        <ele>868.38500976562</ele>
        <time>2017-10-28T07:39:03Z</time>
      </trkpt>
      <trkpt lat="44.10721" lon="6.84191">
        <ele>869.38500976562</ele>
        <time>2017-10-28T07:39:09Z</time>
      </trkpt>
      <trkpt lat="44.10725" lon="6.84156">
        <ele>870.38500976562</ele>
        <time>2017-10-28T07:39:16Z</time>
      </trkpt>
      <trkpt lat="44.1073" lon="6.84133">
        <ele>870.38500976562</ele>
        <time>2017-10-28T07:39:21Z</time>
      </trkpt>
      <trkpt lat="44.10742" lon="6.84107">
        <ele>871.38500976562</ele>
        <time>2017-10-28T07:39:27Z</time>
      </trkpt>
      <trkpt lat="44.10755" lon="6.84079">
        <ele>870.38500976562</ele>
        <time>2017-10-28T07:39:33Z</time>
      </trkpt>
      <trkpt lat="44.10766" lon="6.84048">
        <ele>869.38500976562</ele>
        <time>2017-10-28T07:39:39Z</time>
      </trkpt>
      <trkpt lat="44.10778" lon="6.84019">
        <ele>869.38500976562</ele>
        <time>2017-10-28T07:39:45Z</time>
      </trkpt>
      <trkpt lat="44.10788" lon="6.83987">
        <ele>869.38500976562</ele>
        <time>2017-10-28T07:39:51Z</time>
      </trkpt>
      <trkpt lat="44.10788" lon="6.83953">
        <ele>869.38500976562</ele>
        <time>2017-10-28T07:39:57Z</time>
      </trkpt>
      <trkpt lat="44.108" lon="6.8392">
        <ele>869.38500976562</ele>
        <time>2017-10-28T07:40:03Z</time>
      </trkpt>
      <trkpt lat="44.10811" lon="6.83887">
        <ele>870.38500976562</ele>
        <time>2017-10-28T07:40:09Z</time>
      </trkpt>
      <trkpt lat="44.10822" lon="6.83851">
        <ele>870.38500976562</ele>
        <time>2017-10-28T07:40:15Z</time>
      </trkpt>
      <trkpt lat="44.1083" lon="6.83844">
        <ele>870.38500976562</ele>
        <time>2017-10-28T07:40:17Z</time>
      </trkpt>
      <trkpt lat="44.10844" lon="6.8383">
        <ele>872.38500976562</ele>
        <time>2017-10-28T07:40:21Z</time>
      </trkpt>
      <trkpt lat="44.10866" lon="6.8381">
        <ele>874.38500976562</ele>
        <time>2017-10-28T07:40:27Z</time>
      </trkpt>
      <trkpt lat="44.10892" lon="6.83792">
        <ele>872.38500976562</ele>
        <time>2017-10-28T07:40:33Z</time>
      </trkpt>
      <trkpt lat="44.10909" lon="6.83784">
        <ele>872.38500976562</ele>
        <time>2017-10-28T07:40:38Z</time>
      </trkpt>
      <trkpt lat="44.10931" lon="6.83776">
        <ele>874.38500976562</ele>
        <time>2017-10-28T07:40:44Z</time>
      </trkpt>
      <trkpt lat="44.10955" lon="6.83764">
        <ele>874.38500976562</ele>
        <time>2017-10-28T07:40:50Z</time>
      </trkpt>
      <trkpt lat="44.10978" lon="6.83748">
        <ele>874.38500976562</ele>
        <time>2017-10-28T07:40:56Z</time>
      </trkpt>
      <trkpt lat="44.11002" lon="6.83732">
        <ele>874.38500976562</ele>
        <time>2017-10-28T07:41:02Z</time>
      </trkpt>
      <trkpt lat="44.11026" lon="6.83718">
        <ele>873.38500976562</ele>
        <time>2017-10-28T07:41:08Z</time>
      </trkpt>
      <trkpt lat="44.11052" lon="6.83708">
        <ele>874.38500976562</ele>
        <time>2017-10-28T07:41:14Z</time>
      </trkpt>
      <trkpt lat="44.1108" lon="6.83698">
        <ele>872.38500976562</ele>
        <time>2017-10-28T07:41:20Z</time>
      </trkpt>
      <trkpt lat="44.11108" lon="6.83695">
        <ele>870.38500976562</ele>
        <time>2017-10-28T07:41:26Z</time>
      </trkpt>
      <trkpt lat="44.11135" lon="6.83695">
        <ele>870.38500976562</ele>
        <time>2017-10-28T07:41:32Z</time>
      </trkpt>
      <trkpt lat="44.11161" lon="6.8369">
        <ele>871.38500976562</ele>
        <time>2017-10-28T07:41:39Z</time>
      </trkpt>
      <trkpt lat="44.11184" lon="6.83685">
        <ele>871.38500976562</ele>
        <time>2017-10-28T07:41:45Z</time>
      </trkpt>
      <trkpt lat="44.11206" lon="6.83675">
        <ele>871.38500976562</ele>
        <time>2017-10-28T07:41:51Z</time>
      </trkpt>
      <trkpt lat="44.1122" lon="6.8365">
        <ele>871.38500976562</ele>
        <time>2017-10-28T07:41:57Z</time>
      </trkpt>
      <trkpt lat="44.11222" lon="6.83618">
        <ele>873.38500976562</ele>
        <time>2017-10-28T07:42:03Z</time>
      </trkpt>
      <trkpt lat="44.11224" lon="6.83583">
        <ele>874.38500976562</ele>
        <time>2017-10-28T07:42:09Z</time>
      </trkpt>
      <trkpt lat="44.1122" lon="6.83548">
        <ele>876.38500976562</ele>
        <time>2017-10-28T07:42:15Z</time>
      </trkpt>
      <trkpt lat="44.11201" lon="6.8352">
        <ele>876.38500976562</ele>
        <time>2017-10-28T07:42:21Z</time>
      </trkpt>
      <trkpt lat="44.11182" lon="6.83497">
        <ele>877.38500976562</ele>
        <time>2017-10-28T07:42:27Z</time>
      </trkpt>
      <trkpt lat="44.11164" lon="6.83477">
        <ele>878.38500976562</ele>
        <time>2017-10-28T07:42:33Z</time>
      </trkpt>
      <trkpt lat="44.11146" lon="6.83461">
        <ele>879.38500976562</ele>
        <time>2017-10-28T07:42:39Z</time>
      </trkpt>
      <trkpt lat="44.11131" lon="6.83447">
        <ele>880.38500976562</ele>
        <time>2017-10-28T07:42:44Z</time>
      </trkpt>
      <trkpt lat="44.1111" lon="6.8343">
        <ele>878.38397216797</ele>
        <time>2017-10-28T07:42:50Z</time>
      </trkpt>
      <trkpt lat="44.11095" lon="6.83418">
        <ele>880.38397216797</ele>
        <time>2017-10-28T07:42:55Z</time>
      </trkpt>
      <trkpt lat="44.11075" lon="6.83409">
        <ele>880.38397216797</ele>
        <time>2017-10-28T07:43:01Z</time>
      </trkpt>
      <trkpt lat="44.11055" lon="6.83407">
        <ele>883.38397216797</ele>
        <time>2017-10-28T07:43:07Z</time>
      </trkpt>
      <trkpt lat="44.11038" lon="6.83405">
        <ele>883.38397216797</ele>
        <time>2017-10-28T07:43:12Z</time>
      </trkpt>
      <trkpt lat="44.11019" lon="6.83401">
        <ele>883.38397216797</ele>
        <time>2017-10-28T07:43:18Z</time>
      </trkpt>
      <trkpt lat="44.11002" lon="6.83396">
        <ele>884.38397216797</ele>
        <time>2017-10-28T07:43:23Z</time>
      </trkpt>
      <trkpt lat="44.10984" lon="6.83387">
        <ele>885.38397216797</ele>
        <time>2017-10-28T07:43:29Z</time>
      </trkpt>
      <trkpt lat="44.10967" lon="6.83378">
        <ele>885.38397216797</ele>
        <time>2017-10-28T07:43:34Z</time>
      </trkpt>
      <trkpt lat="44.10953" lon="6.83365">
        <ele>886.38397216797</ele>
        <time>2017-10-28T07:43:39Z</time>
      </trkpt>
      <trkpt lat="44.10934" lon="6.83348">
        <ele>884.38397216797</ele>
        <time>2017-10-28T07:43:45Z</time>
      </trkpt>
      <trkpt lat="44.10922" lon="6.83329">
        <ele>884.38397216797</ele>
        <time>2017-10-28T07:43:51Z</time>
      </trkpt>
      <trkpt lat="44.10912" lon="6.83309">
        <ele>885.38397216797</ele>
        <time>2017-10-28T07:43:57Z</time>
      </trkpt>
      <trkpt lat="44.10919" lon="6.83316">
        <ele>886.38397216797</ele>
        <time>2017-10-28T07:44:06Z</time>
      </trkpt>
      <trkpt lat="44.10932" lon="6.83333">
        <ele>887.38397216797</ele>
        <time>2017-10-28T07:44:14Z</time>
      </trkpt>
      <trkpt lat="44.10945" lon="6.83343">
        <ele>891.38397216797</ele>
        <time>2017-10-28T07:44:22Z</time>
      </trkpt>
      <trkpt lat="44.1096" lon="6.83339">
        <ele>893.38397216797</ele>
        <time>2017-10-28T07:44:30Z</time>
      </trkpt>
      <trkpt lat="44.10969" lon="6.83337">
        <ele>894.38397216797</ele>
        <time>2017-10-28T07:44:35Z</time>
      </trkpt>
      <trkpt lat="44.10985" lon="6.83336">
        <ele>894.38397216797</ele>
        <time>2017-10-28T07:44:43Z</time>
      </trkpt>
      <trkpt lat="44.10992" lon="6.83341">
        <ele>894.38397216797</ele>
        <time>2017-10-28T07:44:48Z</time>
      </trkpt>
      <trkpt lat="44.11008" lon="6.83345">
        <ele>895.38397216797</ele>
        <time>2017-10-28T07:44:57Z</time>
      </trkpt>
      <trkpt lat="44.11023" lon="6.83344">
        <ele>896.38397216797</ele>
        <time>2017-10-28T07:45:05Z</time>
      </trkpt>
      <trkpt lat="44.1104" lon="6.8335">
        <ele>898.38397216797</ele>
        <time>2017-10-28T07:45:14Z</time>
      </trkpt>
      <trkpt lat="44.11047" lon="6.83355">
        <ele>900.38397216797</ele>
        <time>2017-10-28T07:45:18Z</time>
      </trkpt>
      <trkpt lat="44.11051" lon="6.8334">
        <ele>902.38397216797</ele>
        <time>2017-10-28T07:45:27Z</time>
      </trkpt>
      <trkpt lat="44.11045" lon="6.83336">
        <ele>903.38397216797</ele>
        <time>2017-10-28T07:45:32Z</time>
      </trkpt>
      <trkpt lat="44.11029" lon="6.83328">
        <ele>904.38397216797</ele>
        <time>2017-10-28T07:45:40Z</time>
      </trkpt>
      <trkpt lat="44.11022" lon="6.83323">
        <ele>906.38397216797</ele>
        <time>2017-10-28T07:45:44Z</time>
      </trkpt>
      <trkpt lat="44.11009" lon="6.83311">
        <ele>906.38397216797</ele>
        <time>2017-10-28T07:45:52Z</time>
      </trkpt>
      <trkpt lat="44.11" lon="6.83291">
        <ele>907.38397216797</ele>
        <time>2017-10-28T07:46:01Z</time>
      </trkpt>
      <trkpt lat="44.10995" lon="6.83282">
        <ele>906.38397216797</ele>
        <time>2017-10-28T07:46:05Z</time>
      </trkpt>
      <trkpt lat="44.10979" lon="6.83282">
        <ele>909.38397216797</ele>
        <time>2017-10-28T07:46:14Z</time>
      </trkpt>
      <trkpt lat="44.1097" lon="6.83281">
        <ele>910.38397216797</ele>
        <time>2017-10-28T07:46:18Z</time>
      </trkpt>
      <trkpt lat="44.10955" lon="6.83273">
        <ele>911.38397216797</ele>
        <time>2017-10-28T07:46:26Z</time>
      </trkpt>
      <trkpt lat="44.10944" lon="6.83259">
        <ele>910.38397216797</ele>
        <time>2017-10-28T07:46:33Z</time>
      </trkpt>
      <trkpt lat="44.10938" lon="6.83238">
        <ele>912.38397216797</ele>
        <time>2017-10-28T07:46:41Z</time>
      </trkpt>
      <trkpt lat="44.10935" lon="6.83214">
        <ele>913.38397216797</ele>
        <time>2017-10-28T07:46:49Z</time>
      </trkpt>
      <trkpt lat="44.10934" lon="6.83204">
        <ele>914.38397216797</ele>
        <time>2017-10-28T07:46:53Z</time>
      </trkpt>
      <trkpt lat="44.10925" lon="6.83182">
        <ele>916.38397216797</ele>
        <time>2017-10-28T07:47:01Z</time>
      </trkpt>
      <trkpt lat="44.10932" lon="6.83179">
        <ele>917.38397216797</ele>
        <time>2017-10-28T07:47:10Z</time>
      </trkpt>
      <trkpt lat="44.10937" lon="6.83201">
        <ele>919.38397216797</ele>
        <time>2017-10-28T07:47:20Z</time>
      </trkpt>
      <trkpt lat="44.10945" lon="6.83222">
        <ele>921.38397216797</ele>
        <time>2017-10-28T07:47:28Z</time>
      </trkpt>
      <trkpt lat="44.10949" lon="6.83231">
        <ele>924.38397216797</ele>
        <time>2017-10-28T07:47:33Z</time>
      </trkpt>
      <trkpt lat="44.10963" lon="6.83244">
        <ele>924.38397216797</ele>
        <time>2017-10-28T07:47:41Z</time>
      </trkpt>
      <trkpt lat="44.10978" lon="6.83243">
        <ele>922.38397216797</ele>
        <time>2017-10-28T07:47:48Z</time>
      </trkpt>
      <trkpt lat="44.10992" lon="6.83234">
        <ele>925.38397216797</ele>
        <time>2017-10-28T07:47:56Z</time>
      </trkpt>
      <trkpt lat="44.11" lon="6.8323">
        <ele>926.38397216797</ele>
        <time>2017-10-28T07:48:01Z</time>
      </trkpt>
      <trkpt lat="44.11016" lon="6.8323">
        <ele>924.38397216797</ele>
        <time>2017-10-28T07:48:09Z</time>
      </trkpt>
      <trkpt lat="44.11021" lon="6.8324">
        <ele>925.38397216797</ele>
        <time>2017-10-28T07:48:13Z</time>
      </trkpt>
      <trkpt lat="44.11031" lon="6.83255">
        <ele>927.38397216797</ele>
        <time>2017-10-28T07:48:21Z</time>
      </trkpt>
      <trkpt lat="44.11037" lon="6.83263">
        <ele>928.38397216797</ele>
        <time>2017-10-28T07:48:25Z</time>
      </trkpt>
      <trkpt lat="44.11049" lon="6.83281">
        <ele>930.38397216797</ele>
        <time>2017-10-28T07:48:34Z</time>
      </trkpt>
      <trkpt lat="44.1106" lon="6.83295">
        <ele>936.38397216797</ele>
        <time>2017-10-28T07:48:42Z</time>
      </trkpt>
      <trkpt lat="44.11075" lon="6.83304">
        <ele>937.38397216797</ele>
        <time>2017-10-28T07:48:50Z</time>
      </trkpt>
      <trkpt lat="44.11091" lon="6.83311">
        <ele>940.38397216797</ele>
        <time>2017-10-28T07:48:58Z</time>
      </trkpt>
      <trkpt lat="44.11106" lon="6.83314">
        <ele>941.38397216797</ele>
        <time>2017-10-28T07:49:05Z</time>
      </trkpt>
      <trkpt lat="44.11123" lon="6.8332">
        <ele>940.38397216797</ele>
        <time>2017-10-28T07:49:13Z</time>
      </trkpt>
      <trkpt lat="44.11134" lon="6.83335">
        <ele>939.38397216797</ele>
        <time>2017-10-28T07:49:22Z</time>
      </trkpt>
      <trkpt lat="44.11138" lon="6.83344">
        <ele>940.38397216797</ele>
        <time>2017-10-28T07:49:27Z</time>
      </trkpt>
      <trkpt lat="44.11143" lon="6.83355">
        <ele>942.38397216797</ele>
        <time>2017-10-28T07:49:32Z</time>
      </trkpt>
      <trkpt lat="44.1115" lon="6.83358">
        <ele>944.38397216797</ele>
        <time>2017-10-28T07:49:37Z</time>
      </trkpt>
      <trkpt lat="44.11155" lon="6.8335">
        <ele>944.38397216797</ele>
        <time>2017-10-28T07:49:42Z</time>
      </trkpt>
      <trkpt lat="44.11147" lon="6.83333">
        <ele>944.38397216797</ele>
        <time>2017-10-28T07:49:50Z</time>
      </trkpt>
      <trkpt lat="44.11136" lon="6.83313">
        <ele>944.38397216797</ele>
        <time>2017-10-28T07:49:58Z</time>
      </trkpt>
      <trkpt lat="44.11122" lon="6.833">
        <ele>946.38397216797</ele>
        <time>2017-10-28T07:50:06Z</time>
      </trkpt>
      <trkpt lat="44.11106" lon="6.83293">
        <ele>945.38397216797</ele>
        <time>2017-10-28T07:50:14Z</time>
      </trkpt>
      <trkpt lat="44.11092" lon="6.8328">
        <ele>945.38397216797</ele>
        <time>2017-10-28T07:50:22Z</time>
      </trkpt>
      <trkpt lat="44.11084" lon="6.83274">
        <ele>946.38397216797</ele>
        <time>2017-10-28T07:50:26Z</time>
      </trkpt>
      <trkpt lat="44.11074" lon="6.83258">
        <ele>949.38397216797</ele>
        <time>2017-10-28T07:50:34Z</time>
      </trkpt>
      <trkpt lat="44.11071" lon="6.83246">
        <ele>949.38397216797</ele>
        <time>2017-10-28T07:50:39Z</time>
      </trkpt>
      <trkpt lat="44.11061" lon="6.8323">
        <ele>952.38397216797</ele>
        <time>2017-10-28T07:50:47Z</time>
      </trkpt>
      <trkpt lat="44.11055" lon="6.83221">
        <ele>954.38397216797</ele>
        <time>2017-10-28T07:50:52Z</time>
      </trkpt>
      <trkpt lat="44.11043" lon="6.83209">
        <ele>957.38397216797</ele>
        <time>2017-10-28T07:51:00Z</time>
      </trkpt>
      <trkpt lat="44.11032" lon="6.83193">
        <ele>957.38397216797</ele>
        <time>2017-10-28T07:51:08Z</time>
      </trkpt>
      <trkpt lat="44.11024" lon="6.83173">
        <ele>958.38397216797</ele>
        <time>2017-10-28T07:51:16Z</time>
      </trkpt>
      <trkpt lat="44.11016" lon="6.83154">
        <ele>960.38397216797</ele>
        <time>2017-10-28T07:51:23Z</time>
      </trkpt>
      <trkpt lat="44.11" lon="6.83142">
        <ele>959.38397216797</ele>
        <time>2017-10-28T07:51:31Z</time>
      </trkpt>
      <trkpt lat="44.10984" lon="6.8314">
        <ele>963.38397216797</ele>
        <time>2017-10-28T07:51:39Z</time>
      </trkpt>
      <trkpt lat="44.1097" lon="6.83129">
        <ele>964.38397216797</ele>
        <time>2017-10-28T07:51:48Z</time>
      </trkpt>
      <trkpt lat="44.10987" lon="6.83134">
        <ele>966.38397216797</ele>
        <time>2017-10-28T07:51:56Z</time>
      </trkpt>
      <trkpt lat="44.10995" lon="6.83136">
        <ele>966.38397216797</ele>
        <time>2017-10-28T07:52:00Z</time>
      </trkpt>
      <trkpt lat="44.1101" lon="6.83139">
        <ele>967.38397216797</ele>
        <time>2017-10-28T07:52:07Z</time>
      </trkpt>
      <trkpt lat="44.11026" lon="6.83145">
        <ele>967.38397216797</ele>
        <time>2017-10-28T07:52:15Z</time>
      </trkpt>
      <trkpt lat="44.11037" lon="6.83161">
        <ele>967.38397216797</ele>
        <time>2017-10-28T07:52:23Z</time>
      </trkpt>
      <trkpt lat="44.11042" lon="6.83172">
        <ele>970.38397216797</ele>
        <time>2017-10-28T07:52:29Z</time>
      </trkpt>
      <trkpt lat="44.11048" lon="6.83181">
        <ele>971.38397216797</ele>
        <time>2017-10-28T07:52:33Z</time>
      </trkpt>
      <trkpt lat="44.11056" lon="6.83186">
        <ele>972.38397216797</ele>
        <time>2017-10-28T07:52:38Z</time>
      </trkpt>
      <trkpt lat="44.11071" lon="6.83194">
        <ele>971.38397216797</ele>
        <time>2017-10-28T07:52:45Z</time>
      </trkpt>
      <trkpt lat="44.11079" lon="6.83198">
        <ele>974.38397216797</ele>
        <time>2017-10-28T07:52:50Z</time>
      </trkpt>
      <trkpt lat="44.11087" lon="6.832">
        <ele>975.38397216797</ele>
        <time>2017-10-28T07:52:55Z</time>
      </trkpt>
      <trkpt lat="44.11102" lon="6.83213">
        <ele>972.38397216797</ele>
        <time>2017-10-28T07:53:03Z</time>
      </trkpt>
      <trkpt lat="44.11114" lon="6.83229">
        <ele>969.38397216797</ele>
        <time>2017-10-28T07:53:12Z</time>
      </trkpt>
      <trkpt lat="44.1112" lon="6.83236">
        <ele>972.38397216797</ele>
        <time>2017-10-28T07:53:17Z</time>
      </trkpt>
      <trkpt lat="44.11132" lon="6.83246">
        <ele>973.38397216797</ele>
        <time>2017-10-28T07:53:25Z</time>
      </trkpt>
      <trkpt lat="44.11137" lon="6.83254">
        <ele>974.38397216797</ele>
        <time>2017-10-28T07:53:29Z</time>
      </trkpt>
      <trkpt lat="44.11145" lon="6.83255">
        <ele>976.38397216797</ele>
        <time>2017-10-28T07:53:34Z</time>
      </trkpt>
      <trkpt lat="44.11159" lon="6.83265">
        <ele>980.38397216797</ele>
        <time>2017-10-28T07:53:42Z</time>
      </trkpt>
      <trkpt lat="44.1117" lon="6.8328">
        <ele>980.38397216797</ele>
        <time>2017-10-28T07:53:50Z</time>
      </trkpt>
      <trkpt lat="44.11179" lon="6.83298">
        <ele>981.38397216797</ele>
        <time>2017-10-28T07:53:58Z</time>
      </trkpt>
      <trkpt lat="44.11191" lon="6.83314">
        <ele>983.38397216797</ele>
        <time>2017-10-28T07:54:06Z</time>
      </trkpt>
      <trkpt lat="44.11203" lon="6.8333">
        <ele>979.38397216797</ele>
        <time>2017-10-28T07:54:13Z</time>
      </trkpt>
      <trkpt lat="44.112" lon="6.83309">
        <ele>980.38397216797</ele>
        <time>2017-10-28T07:54:21Z</time>
      </trkpt>
      <trkpt lat="44.11188" lon="6.83292">
        <ele>984.38397216797</ele>
        <time>2017-10-28T07:54:30Z</time>
      </trkpt>
      <trkpt lat="44.11181" lon="6.83272">
        <ele>988.38397216797</ele>
        <time>2017-10-28T07:54:39Z</time>
      </trkpt>
      <trkpt lat="44.11179" lon="6.83262">
        <ele>989.38397216797</ele>
        <time>2017-10-28T07:54:43Z</time>
      </trkpt>
      <trkpt lat="44.11166" lon="6.83249">
        <ele>988.38397216797</ele>
        <time>2017-10-28T07:54:50Z</time>
      </trkpt>
      <trkpt lat="44.11155" lon="6.83234">
        <ele>988.38397216797</ele>
        <time>2017-10-28T07:54:58Z</time>
      </trkpt>
      <trkpt lat="44.11148" lon="6.83228">
        <ele>988.38397216797</ele>
        <time>2017-10-28T07:55:02Z</time>
      </trkpt>
      <trkpt lat="44.11136" lon="6.83214">
        <ele>988.38397216797</ele>
        <time>2017-10-28T07:55:11Z</time>
      </trkpt>
      <trkpt lat="44.11123" lon="6.83201">
        <ele>991.38397216797</ele>
        <time>2017-10-28T07:55:19Z</time>
      </trkpt>
      <trkpt lat="44.11116" lon="6.83196">
        <ele>993.38397216797</ele>
        <time>2017-10-28T07:55:24Z</time>
      </trkpt>
      <trkpt lat="44.11113" lon="6.83187">
        <ele>996.38397216797</ele>
        <time>2017-10-28T07:55:29Z</time>
      </trkpt>
      <trkpt lat="44.11103" lon="6.8317">
        <ele>995.38397216797</ele>
        <time>2017-10-28T07:55:36Z</time>
      </trkpt>
      <trkpt lat="44.11089" lon="6.83157">
        <ele>998.38397216797</ele>
        <time>2017-10-28T07:55:45Z</time>
      </trkpt>
      <trkpt lat="44.11084" lon="6.83147">
        <ele>998.38397216797</ele>
        <time>2017-10-28T07:55:50Z</time>
      </trkpt>
      <trkpt lat="44.11081" lon="6.83135">
        <ele>1000.383972168</ele>
        <time>2017-10-28T07:55:55Z</time>
      </trkpt>
      <trkpt lat="44.11083" lon="6.83113">
        <ele>1002.383972168</ele>
        <time>2017-10-28T07:56:03Z</time>
      </trkpt>
      <trkpt lat="44.11077" lon="6.83094">
        <ele>1003.383972168</ele>
        <time>2017-10-28T07:56:11Z</time>
      </trkpt>
      <trkpt lat="44.11063" lon="6.83087">
        <ele>1004.383972168</ele>
        <time>2017-10-28T07:56:19Z</time>
      </trkpt>
      <trkpt lat="44.11049" lon="6.8308">
        <ele>1005.383972168</ele>
        <time>2017-10-28T07:56:27Z</time>
      </trkpt>
      <trkpt lat="44.11039" lon="6.83063">
        <ele>1007.383972168</ele>
        <time>2017-10-28T07:56:36Z</time>
      </trkpt>
      <trkpt lat="44.11024" lon="6.83061">
        <ele>1009.383972168</ele>
        <time>2017-10-28T07:56:44Z</time>
      </trkpt>
      <trkpt lat="44.11009" lon="6.83055">
        <ele>1009.383972168</ele>
        <time>2017-10-28T07:56:52Z</time>
      </trkpt>
      <trkpt lat="44.11022" lon="6.83048">
        <ele>1010.383972168</ele>
        <time>2017-10-28T07:57:00Z</time>
      </trkpt>
      <trkpt lat="44.11038" lon="6.83051">
        <ele>1012.383972168</ele>
        <time>2017-10-28T07:57:08Z</time>
      </trkpt>
      <trkpt lat="44.1105" lon="6.83066">
        <ele>1013.383972168</ele>
        <time>2017-10-28T07:57:16Z</time>
      </trkpt>
      <trkpt lat="44.11065" lon="6.83075">
        <ele>1012.383972168</ele>
        <time>2017-10-28T07:57:24Z</time>
      </trkpt>
      <trkpt lat="44.1108" lon="6.83074">
        <ele>1014.383972168</ele>
        <time>2017-10-28T07:57:32Z</time>
      </trkpt>
      <trkpt lat="44.11096" lon="6.83074">
        <ele>1016.383972168</ele>
        <time>2017-10-28T07:57:41Z</time>
      </trkpt>
      <trkpt lat="44.11104" lon="6.83091">
        <ele>1017.383972168</ele>
        <time>2017-10-28T07:57:49Z</time>
      </trkpt>
      <trkpt lat="44.11104" lon="6.83102">
        <ele>1018.383972168</ele>
        <time>2017-10-28T07:57:54Z</time>
      </trkpt>
      <trkpt lat="44.11111" lon="6.83125">
        <ele>1020.383972168</ele>
        <time>2017-10-28T07:58:03Z</time>
      </trkpt>
      <trkpt lat="44.11125" lon="6.83137">
        <ele>1015.383972168</ele>
        <time>2017-10-28T07:58:12Z</time>
      </trkpt>
      <trkpt lat="44.11137" lon="6.83152">
        <ele>1015.383972168</ele>
        <time>2017-10-28T07:58:22Z</time>
      </trkpt>
      <trkpt lat="44.11146" lon="6.83171">
        <ele>1017.383972168</ele>
        <time>2017-10-28T07:58:31Z</time>
      </trkpt>
      <trkpt lat="44.11152" lon="6.8318">
        <ele>1017.383972168</ele>
        <time>2017-10-28T07:58:36Z</time>
      </trkpt>
      <trkpt lat="44.1116" lon="6.83181">
        <ele>1017.383972168</ele>
        <time>2017-10-28T07:58:41Z</time>
      </trkpt>
      <trkpt lat="44.11157" lon="6.83171">
        <ele>1019.383972168</ele>
        <time>2017-10-28T07:58:46Z</time>
      </trkpt>
      <trkpt lat="44.11154" lon="6.83161">
        <ele>1019.383972168</ele>
        <time>2017-10-28T07:58:51Z</time>
      </trkpt>
      <trkpt lat="44.11149" lon="6.83152">
        <ele>1020.383972168</ele>
        <time>2017-10-28T07:58:56Z</time>
      </trkpt>
      <trkpt lat="44.11139" lon="6.83136">
        <ele>1023.383972168</ele>
        <time>2017-10-28T07:59:04Z</time>
      </trkpt>
      <trkpt lat="44.11128" lon="6.83121">
        <ele>1025.3840332031</ele>
        <time>2017-10-28T07:59:12Z</time>
      </trkpt>
      <trkpt lat="44.11122" lon="6.83112">
        <ele>1026.3840332031</ele>
        <time>2017-10-28T07:59:17Z</time>
      </trkpt>
      <trkpt lat="44.11122" lon="6.83088">
        <ele>1029.3840332031</ele>
        <time>2017-10-28T07:59:26Z</time>
      </trkpt>
      <trkpt lat="44.11122" lon="6.83076">
        <ele>1030.3840332031</ele>
        <time>2017-10-28T07:59:31Z</time>
      </trkpt>
      <trkpt lat="44.11122" lon="6.83055">
        <ele>1030.3840332031</ele>
        <time>2017-10-28T07:59:40Z</time>
      </trkpt>
      <trkpt lat="44.11116" lon="6.83047">
        <ele>1031.3840332031</ele>
        <time>2017-10-28T07:59:45Z</time>
      </trkpt>
      <trkpt lat="44.11098" lon="6.8304">
        <ele>1032.3840332031</ele>
        <time>2017-10-28T07:59:54Z</time>
      </trkpt>
      <trkpt lat="44.11083" lon="6.83035">
        <ele>1035.3840332031</ele>
        <time>2017-10-28T08:00:03Z</time>
      </trkpt>
      <trkpt lat="44.11076" lon="6.83029">
        <ele>1035.3840332031</ele>
        <time>2017-10-28T08:00:08Z</time>
      </trkpt>
      <trkpt lat="44.11072" lon="6.83021">
        <ele>1035.3840332031</ele>
        <time>2017-10-28T08:00:13Z</time>
      </trkpt>
      <trkpt lat="44.11081" lon="6.83021">
        <ele>1036.3840332031</ele>
        <time>2017-10-28T08:00:21Z</time>
      </trkpt>
      <trkpt lat="44.11087" lon="6.83028">
        <ele>1038.3840332031</ele>
        <time>2017-10-28T08:00:26Z</time>
      </trkpt>
      <trkpt lat="44.11093" lon="6.83034">
        <ele>1041.3840332031</ele>
        <time>2017-10-28T08:00:31Z</time>
      </trkpt>
      <trkpt lat="44.11101" lon="6.83035">
        <ele>1042.3840332031</ele>
        <time>2017-10-28T08:00:35Z</time>
      </trkpt>
      <trkpt lat="44.11116" lon="6.83038">
        <ele>1042.3840332031</ele>
        <time>2017-10-28T08:00:43Z</time>
      </trkpt>
      <trkpt lat="44.11124" lon="6.83044">
        <ele>1043.3840332031</ele>
        <time>2017-10-28T08:00:48Z</time>
      </trkpt>
      <trkpt lat="44.1113" lon="6.83051">
        <ele>1043.3840332031</ele>
        <time>2017-10-28T08:00:52Z</time>
      </trkpt>
      <trkpt lat="44.11137" lon="6.83069">
        <ele>1044.3840332031</ele>
        <time>2017-10-28T08:00:59Z</time>
      </trkpt>
      <trkpt lat="44.11138" lon="6.83081">
        <ele>1046.3840332031</ele>
        <time>2017-10-28T08:01:03Z</time>
      </trkpt>
      <trkpt lat="44.11145" lon="6.83102">
        <ele>1045.3840332031</ele>
        <time>2017-10-28T08:01:11Z</time>
      </trkpt>
      <trkpt lat="44.11159" lon="6.83115">
        <ele>1044.3840332031</ele>
        <time>2017-10-28T08:01:18Z</time>
      </trkpt>
      <trkpt lat="44.1117" lon="6.83131">
        <ele>1044.3840332031</ele>
        <time>2017-10-28T08:01:26Z</time>
      </trkpt>
      <trkpt lat="44.1118" lon="6.83149">
        <ele>1045.3840332031</ele>
        <time>2017-10-28T08:01:34Z</time>
      </trkpt>
      <trkpt lat="44.11193" lon="6.83158">
        <ele>1047.3840332031</ele>
        <time>2017-10-28T08:01:42Z</time>
      </trkpt>
      <trkpt lat="44.11209" lon="6.83169">
        <ele>1050.3840332031</ele>
        <time>2017-10-28T08:01:51Z</time>
      </trkpt>
      <trkpt lat="44.11223" lon="6.83181">
        <ele>1051.3840332031</ele>
        <time>2017-10-28T08:02:00Z</time>
      </trkpt>
      <trkpt lat="44.11234" lon="6.83195">
        <ele>1053.3840332031</ele>
        <time>2017-10-28T08:02:07Z</time>
      </trkpt>
      <trkpt lat="44.11247" lon="6.83207">
        <ele>1054.3840332031</ele>
        <time>2017-10-28T08:02:15Z</time>
      </trkpt>
      <trkpt lat="44.11255" lon="6.83227">
        <ele>1054.3840332031</ele>
        <time>2017-10-28T08:02:23Z</time>
      </trkpt>
      <trkpt lat="44.11268" lon="6.83244">
        <ele>1055.3840332031</ele>
        <time>2017-10-28T08:02:32Z</time>
      </trkpt>
      <trkpt lat="44.11279" lon="6.83258">
        <ele>1058.3840332031</ele>
        <time>2017-10-28T08:02:41Z</time>
      </trkpt>
      <trkpt lat="44.11288" lon="6.83276">
        <ele>1060.3840332031</ele>
        <time>2017-10-28T08:02:50Z</time>
      </trkpt>
      <trkpt lat="44.11295" lon="6.83282">
        <ele>1061.3840332031</ele>
        <time>2017-10-28T08:02:57Z</time>
      </trkpt>
      <trkpt lat="44.11291" lon="6.83261">
        <ele>1058.3840332031</ele>
        <time>2017-10-28T08:03:05Z</time>
      </trkpt>
      <trkpt lat="44.1128" lon="6.83244">
        <ele>1059.3840332031</ele>
        <time>2017-10-28T08:03:12Z</time>
      </trkpt>
      <trkpt lat="44.11268" lon="6.83227">
        <ele>1060.3840332031</ele>
        <time>2017-10-28T08:03:20Z</time>
      </trkpt>
      <trkpt lat="44.11259" lon="6.83206">
        <ele>1061.3840332031</ele>
        <time>2017-10-28T08:03:28Z</time>
      </trkpt>
      <trkpt lat="44.11249" lon="6.83188">
        <ele>1062.3840332031</ele>
        <time>2017-10-28T08:03:35Z</time>
      </trkpt>
      <trkpt lat="44.11238" lon="6.83176">
        <ele>1063.3840332031</ele>
        <time>2017-10-28T08:03:41Z</time>
      </trkpt>
      <trkpt lat="44.11225" lon="6.83163">
        <ele>1064.3840332031</ele>
        <time>2017-10-28T08:03:48Z</time>
      </trkpt>
      <trkpt lat="44.11212" lon="6.83149">
        <ele>1065.3840332031</ele>
        <time>2017-10-28T08:03:55Z</time>
      </trkpt>
      <trkpt lat="44.11205" lon="6.8314">
        <ele>1067.3840332031</ele>
        <time>2017-10-28T08:03:59Z</time>
      </trkpt>
      <trkpt lat="44.11195" lon="6.83125">
        <ele>1068.3840332031</ele>
        <time>2017-10-28T08:04:06Z</time>
      </trkpt>
      <trkpt lat="44.11188" lon="6.83107">
        <ele>1068.3840332031</ele>
        <time>2017-10-28T08:04:12Z</time>
      </trkpt>
      <trkpt lat="44.11179" lon="6.83086">
        <ele>1067.3840332031</ele>
        <time>2017-10-28T08:04:20Z</time>
      </trkpt>
      <trkpt lat="44.11173" lon="6.83065">
        <ele>1068.3840332031</ele>
        <time>2017-10-28T08:04:27Z</time>
      </trkpt>
      <trkpt lat="44.11168" lon="6.83043">
        <ele>1069.3840332031</ele>
        <time>2017-10-28T08:04:35Z</time>
      </trkpt>
      <trkpt lat="44.11166" lon="6.8302">
        <ele>1070.3840332031</ele>
        <time>2017-10-28T08:04:43Z</time>
      </trkpt>
      <trkpt lat="44.11167" lon="6.82998">
        <ele>1070.3840332031</ele>
        <time>2017-10-28T08:04:50Z</time>
      </trkpt>
      <trkpt lat="44.1118" lon="6.82985">
        <ele>1072.3840332031</ele>
        <time>2017-10-28T08:04:58Z</time>
      </trkpt>
      <trkpt lat="44.11196" lon="6.82984">
        <ele>1074.3840332031</ele>
        <time>2017-10-28T08:05:06Z</time>
      </trkpt>
      <trkpt lat="44.11205" lon="6.82987">
        <ele>1075.3840332031</ele>
        <time>2017-10-28T08:05:11Z</time>
      </trkpt>
      <trkpt lat="44.11221" lon="6.8299">
        <ele>1075.3840332031</ele>
        <time>2017-10-28T08:05:19Z</time>
      </trkpt>
      <trkpt lat="44.11236" lon="6.82995">
        <ele>1075.3840332031</ele>
        <time>2017-10-28T08:05:27Z</time>
      </trkpt>
      <trkpt lat="44.11253" lon="6.82998">
        <ele>1076.3840332031</ele>
        <time>2017-10-28T08:05:35Z</time>
      </trkpt>
      <trkpt lat="44.11269" lon="6.83001">
        <ele>1077.3840332031</ele>
        <time>2017-10-28T08:05:43Z</time>
      </trkpt>
      <trkpt lat="44.11286" lon="6.83005">
        <ele>1078.3840332031</ele>
        <time>2017-10-28T08:05:51Z</time>
      </trkpt>
      <trkpt lat="44.11302" lon="6.83008">
        <ele>1079.3840332031</ele>
        <time>2017-10-28T08:05:59Z</time>
      </trkpt>
      <trkpt lat="44.11319" lon="6.83014">
        <ele>1080.3840332031</ele>
        <time>2017-10-28T08:06:07Z</time>
      </trkpt>
      <trkpt lat="44.11335" lon="6.83021">
        <ele>1081.3840332031</ele>
        <time>2017-10-28T08:06:15Z</time>
      </trkpt>
      <trkpt lat="44.11349" lon="6.83033">
        <ele>1081.3840332031</ele>
        <time>2017-10-28T08:06:23Z</time>
      </trkpt>
      <trkpt lat="44.11363" lon="6.83047">
        <ele>1082.3840332031</ele>
        <time>2017-10-28T08:06:31Z</time>
      </trkpt>
      <trkpt lat="44.11377" lon="6.8306">
        <ele>1082.3840332031</ele>
        <time>2017-10-28T08:06:39Z</time>
      </trkpt>
      <trkpt lat="44.1139" lon="6.83071">
        <ele>1084.3840332031</ele>
        <time>2017-10-28T08:06:47Z</time>
      </trkpt>
      <trkpt lat="44.11404" lon="6.8308">
        <ele>1086.3840332031</ele>
        <time>2017-10-28T08:06:55Z</time>
      </trkpt>
      <trkpt lat="44.11419" lon="6.83083">
        <ele>1087.3840332031</ele>
        <time>2017-10-28T08:07:03Z</time>
      </trkpt>
      <trkpt lat="44.11435" lon="6.83084">
        <ele>1089.3840332031</ele>
        <time>2017-10-28T08:07:11Z</time>
      </trkpt>
      <trkpt lat="44.11451" lon="6.83081">
        <ele>1090.3840332031</ele>
        <time>2017-10-28T08:07:19Z</time>
      </trkpt>
      <trkpt lat="44.11467" lon="6.83079">
        <ele>1091.3840332031</ele>
        <time>2017-10-28T08:07:27Z</time>
      </trkpt>
      <trkpt lat="44.11483" lon="6.83079">
        <ele>1093.3840332031</ele>
        <time>2017-10-28T08:07:35Z</time>
      </trkpt>
      <trkpt lat="44.11498" lon="6.83084">
        <ele>1094.3840332031</ele>
        <time>2017-10-28T08:07:43Z</time>
      </trkpt>
      <trkpt lat="44.11506" lon="6.83091">
        <ele>1094.3840332031</ele>
        <time>2017-10-28T08:07:48Z</time>
      </trkpt>
      <trkpt lat="44.1151" lon="6.83101">
        <ele>1095.3840332031</ele>
        <time>2017-10-28T08:07:53Z</time>
      </trkpt>
      <trkpt lat="44.11517" lon="6.8312">
        <ele>1096.3840332031</ele>
        <time>2017-10-28T08:08:01Z</time>
      </trkpt>
      <trkpt lat="44.11533" lon="6.83124">
        <ele>1098.3850097656</ele>
        <time>2017-10-28T08:08:09Z</time>
      </trkpt>
      <trkpt lat="44.11548" lon="6.83113">
        <ele>1099.3850097656</ele>
        <time>2017-10-28T08:08:16Z</time>
      </trkpt>
      <trkpt lat="44.11562" lon="6.83101">
        <ele>1099.3850097656</ele>
        <time>2017-10-28T08:08:25Z</time>
      </trkpt>
      <trkpt lat="44.11578" lon="6.83092">
        <ele>1100.3850097656</ele>
        <time>2017-10-28T08:08:33Z</time>
      </trkpt>
      <trkpt lat="44.11594" lon="6.83094">
        <ele>1102.3850097656</ele>
        <time>2017-10-28T08:08:41Z</time>
      </trkpt>
      <trkpt lat="44.11606" lon="6.83108">
        <ele>1103.3850097656</ele>
        <time>2017-10-28T08:08:49Z</time>
      </trkpt>
      <trkpt lat="44.11618" lon="6.83121">
        <ele>1103.3850097656</ele>
        <time>2017-10-28T08:08:57Z</time>
      </trkpt>
      <trkpt lat="44.11633" lon="6.83125">
        <ele>1105.3850097656</ele>
        <time>2017-10-28T08:09:05Z</time>
      </trkpt>
      <trkpt lat="44.11649" lon="6.83129">
        <ele>1107.3850097656</ele>
        <time>2017-10-28T08:09:13Z</time>
      </trkpt>
      <trkpt lat="44.11658" lon="6.83146">
        <ele>1108.3850097656</ele>
        <time>2017-10-28T08:09:21Z</time>
      </trkpt>
      <trkpt lat="44.11657" lon="6.83169">
        <ele>1109.3850097656</ele>
        <time>2017-10-28T08:09:29Z</time>
      </trkpt>
      <trkpt lat="44.11653" lon="6.8319">
        <ele>1111.3850097656</ele>
        <time>2017-10-28T08:09:37Z</time>
      </trkpt>
      <trkpt lat="44.1165" lon="6.83214">
        <ele>1112.3850097656</ele>
        <time>2017-10-28T08:09:45Z</time>
      </trkpt>
      <trkpt lat="44.11662" lon="6.8323">
        <ele>1113.3850097656</ele>
        <time>2017-10-28T08:09:53Z</time>
      </trkpt>
      <trkpt lat="44.11681" lon="6.83228">
        <ele>1115.3850097656</ele>
        <time>2017-10-28T08:10:01Z</time>
      </trkpt>
      <trkpt lat="44.11698" lon="6.83222">
        <ele>1116.3850097656</ele>
        <time>2017-10-28T08:10:09Z</time>
      </trkpt>
      <trkpt lat="44.11714" lon="6.83219">
        <ele>1116.3850097656</ele>
        <time>2017-10-28T08:10:16Z</time>
      </trkpt>
      <trkpt lat="44.11731" lon="6.83223">
        <ele>1117.3850097656</ele>
        <time>2017-10-28T08:10:24Z</time>
      </trkpt>
      <trkpt lat="44.11746" lon="6.83231">
        <ele>1117.3850097656</ele>
        <time>2017-10-28T08:10:32Z</time>
      </trkpt>
      <trkpt lat="44.11758" lon="6.83244">
        <ele>1119.3850097656</ele>
        <time>2017-10-28T08:10:40Z</time>
      </trkpt>
      <trkpt lat="44.11766" lon="6.83264">
        <ele>1118.3850097656</ele>
        <time>2017-10-28T08:10:48Z</time>
      </trkpt>
      <trkpt lat="44.11768" lon="6.83275">
        <ele>1118.3850097656</ele>
        <time>2017-10-28T08:10:53Z</time>
      </trkpt>
      <trkpt lat="44.1177" lon="6.83296">
        <ele>1120.3850097656</ele>
        <time>2017-10-28T08:11:01Z</time>
      </trkpt>
      <trkpt lat="44.11768" lon="6.83307">
        <ele>1122.3850097656</ele>
        <time>2017-10-28T08:11:06Z</time>
      </trkpt>
      <trkpt lat="44.11766" lon="6.8333">
        <ele>1121.3850097656</ele>
        <time>2017-10-28T08:11:14Z</time>
      </trkpt>
      <trkpt lat="44.11765" lon="6.83353">
        <ele>1122.3850097656</ele>
        <time>2017-10-28T08:11:22Z</time>
      </trkpt>
      <trkpt lat="44.1177" lon="6.83374">
        <ele>1124.3850097656</ele>
        <time>2017-10-28T08:11:30Z</time>
      </trkpt>
      <trkpt lat="44.11782" lon="6.83393">
        <ele>1127.3850097656</ele>
        <time>2017-10-28T08:11:39Z</time>
      </trkpt>
      <trkpt lat="44.11795" lon="6.83406">
        <ele>1124.3850097656</ele>
        <time>2017-10-28T08:11:46Z</time>
      </trkpt>
      <trkpt lat="44.11802" lon="6.83414">
        <ele>1127.3859863281</ele>
        <time>2017-10-28T08:11:52Z</time>
      </trkpt>
      <trkpt lat="44.11815" lon="6.83425">
        <ele>1126.3859863281</ele>
        <time>2017-10-28T08:11:59Z</time>
      </trkpt>
      <trkpt lat="44.1183" lon="6.83432">
        <ele>1127.3859863281</ele>
        <time>2017-10-28T08:12:07Z</time>
      </trkpt>
      <trkpt lat="44.11845" lon="6.83434">
        <ele>1127.3859863281</ele>
        <time>2017-10-28T08:12:15Z</time>
      </trkpt>
      <trkpt lat="44.11861" lon="6.8343">
        <ele>1130.3859863281</ele>
        <time>2017-10-28T08:12:23Z</time>
      </trkpt>
      <trkpt lat="44.11877" lon="6.83426">
        <ele>1133.3859863281</ele>
        <time>2017-10-28T08:12:31Z</time>
      </trkpt>
      <trkpt lat="44.11892" lon="6.83425">
        <ele>1135.3859863281</ele>
        <time>2017-10-28T08:12:40Z</time>
      </trkpt>
      <trkpt lat="44.11905" lon="6.83413">
        <ele>1134.3859863281</ele>
        <time>2017-10-28T08:12:48Z</time>
      </trkpt>
      <trkpt lat="44.11912" lon="6.83395">
        <ele>1135.3859863281</ele>
        <time>2017-10-28T08:12:56Z</time>
      </trkpt>
      <trkpt lat="44.11916" lon="6.83375">
        <ele>1137.3859863281</ele>
        <time>2017-10-28T08:13:05Z</time>
      </trkpt>
      <trkpt lat="44.11927" lon="6.83356">
        <ele>1135.3859863281</ele>
        <time>2017-10-28T08:13:13Z</time>
      </trkpt>
      <trkpt lat="44.1194" lon="6.83345">
        <ele>1140.3859863281</ele>
        <time>2017-10-28T08:13:21Z</time>
      </trkpt>
      <trkpt lat="44.11948" lon="6.83339">
        <ele>1141.3859863281</ele>
        <time>2017-10-28T08:13:25Z</time>
      </trkpt>
      <trkpt lat="44.11958" lon="6.83323">
        <ele>1140.3859863281</ele>
        <time>2017-10-28T08:13:33Z</time>
      </trkpt>
      <trkpt lat="44.11961" lon="6.83314">
        <ele>1140.3859863281</ele>
        <time>2017-10-28T08:13:37Z</time>
      </trkpt>
      <trkpt lat="44.11963" lon="6.83302">
        <ele>1142.3859863281</ele>
        <time>2017-10-28T08:13:42Z</time>
      </trkpt>
      <trkpt lat="44.11968" lon="6.83279">
        <ele>1143.3859863281</ele>
        <time>2017-10-28T08:13:51Z</time>
      </trkpt>
      <trkpt lat="44.11972" lon="6.8327">
        <ele>1146.3859863281</ele>
        <time>2017-10-28T08:13:55Z</time>
      </trkpt>
      <trkpt lat="44.11983" lon="6.83254">
        <ele>1147.3850097656</ele>
        <time>2017-10-28T08:14:03Z</time>
      </trkpt>
      <trkpt lat="44.11989" lon="6.83244">
        <ele>1148.3850097656</ele>
        <time>2017-10-28T08:14:09Z</time>
      </trkpt>
      <trkpt lat="44.11996" lon="6.83238">
        <ele>1150.3850097656</ele>
        <time>2017-10-28T08:14:14Z</time>
      </trkpt>
      <trkpt lat="44.1201" lon="6.83228">
        <ele>1149.3850097656</ele>
        <time>2017-10-28T08:14:21Z</time>
      </trkpt>
      <trkpt lat="44.1202" lon="6.83245">
        <ele>1150.3859863281</ele>
        <time>2017-10-28T08:14:30Z</time>
      </trkpt>
      <trkpt lat="44.12019" lon="6.83265">
        <ele>1151.3859863281</ele>
        <time>2017-10-28T08:14:39Z</time>
      </trkpt>
      <trkpt lat="44.12016" lon="6.83288">
        <ele>1154.3859863281</ele>
        <time>2017-10-28T08:14:48Z</time>
      </trkpt>
      <trkpt lat="44.12013" lon="6.83311">
        <ele>1154.3859863281</ele>
        <time>2017-10-28T08:14:56Z</time>
      </trkpt>
      <trkpt lat="44.12012" lon="6.83323">
        <ele>1155.3859863281</ele>
        <time>2017-10-28T08:15:00Z</time>
      </trkpt>
      <trkpt lat="44.1201" lon="6.83346">
        <ele>1154.3859863281</ele>
        <time>2017-10-28T08:15:08Z</time>
      </trkpt>
      <trkpt lat="44.12014" lon="6.8337">
        <ele>1155.3859863281</ele>
        <time>2017-10-28T08:15:16Z</time>
      </trkpt>
      <trkpt lat="44.12028" lon="6.83377">
        <ele>1154.3859863281</ele>
        <time>2017-10-28T08:15:22Z</time>
      </trkpt>
      <trkpt lat="44.12042" lon="6.83362">
        <ele>1157.3859863281</ele>
        <time>2017-10-28T08:15:30Z</time>
      </trkpt>
      <trkpt lat="44.12052" lon="6.83345">
        <ele>1156.3859863281</ele>
        <time>2017-10-28T08:15:38Z</time>
      </trkpt>
      <trkpt lat="44.12057" lon="6.83334">
        <ele>1158.3859863281</ele>
        <time>2017-10-28T08:15:43Z</time>
      </trkpt>
      <trkpt lat="44.12068" lon="6.83318">
        <ele>1162.3859863281</ele>
        <time>2017-10-28T08:15:52Z</time>
      </trkpt>
      <trkpt lat="44.12083" lon="6.8331">
        <ele>1165.3859863281</ele>
        <time>2017-10-28T08:16:01Z</time>
      </trkpt>
      <trkpt lat="44.12099" lon="6.83302">
        <ele>1164.3859863281</ele>
        <time>2017-10-28T08:16:09Z</time>
      </trkpt>
      <trkpt lat="44.12111" lon="6.83288">
        <ele>1166.3859863281</ele>
        <time>2017-10-28T08:16:16Z</time>
      </trkpt>
      <trkpt lat="44.12116" lon="6.83279">
        <ele>1167.3859863281</ele>
        <time>2017-10-28T08:16:21Z</time>
      </trkpt>
      <trkpt lat="44.12131" lon="6.83268">
        <ele>1168.3859863281</ele>
        <time>2017-10-28T08:16:29Z</time>
      </trkpt>
      <trkpt lat="44.12148" lon="6.83265">
        <ele>1168.3859863281</ele>
        <time>2017-10-28T08:16:37Z</time>
      </trkpt>
      <trkpt lat="44.12165" lon="6.83266">
        <ele>1170.3859863281</ele>
        <time>2017-10-28T08:16:45Z</time>
      </trkpt>
      <trkpt lat="44.12181" lon="6.83276">
        <ele>1171.3859863281</ele>
        <time>2017-10-28T08:16:53Z</time>
      </trkpt>
      <trkpt lat="44.12197" lon="6.83289">
        <ele>1171.3859863281</ele>
        <time>2017-10-28T08:17:01Z</time>
      </trkpt>
      <trkpt lat="44.12214" lon="6.83295">
        <ele>1172.3859863281</ele>
        <time>2017-10-28T08:17:09Z</time>
      </trkpt>
      <trkpt lat="44.1223" lon="6.83292">
        <ele>1172.3859863281</ele>
        <time>2017-10-28T08:17:16Z</time>
      </trkpt>
      <trkpt lat="44.12247" lon="6.83284">
        <ele>1173.3859863281</ele>
        <time>2017-10-28T08:17:24Z</time>
      </trkpt>
      <trkpt lat="44.12264" lon="6.83281">
        <ele>1175.3859863281</ele>
        <time>2017-10-28T08:17:32Z</time>
      </trkpt>
      <trkpt lat="44.12269" lon="6.83296">
        <ele>1176.3859863281</ele>
        <time>2017-10-28T08:17:41Z</time>
      </trkpt>
      <trkpt lat="44.12254" lon="6.83303">
        <ele>1175.3859863281</ele>
        <time>2017-10-28T08:17:48Z</time>
      </trkpt>
      <trkpt lat="44.1224" lon="6.83317">
        <ele>1176.3859863281</ele>
        <time>2017-10-28T08:17:56Z</time>
      </trkpt>
      <trkpt lat="44.12229" lon="6.83334">
        <ele>1176.3859863281</ele>
        <time>2017-10-28T08:18:03Z</time>
      </trkpt>
      <trkpt lat="44.12217" lon="6.83353">
        <ele>1177.3859863281</ele>
        <time>2017-10-28T08:18:12Z</time>
      </trkpt>
      <trkpt lat="44.12201" lon="6.83367">
        <ele>1176.3859863281</ele>
        <time>2017-10-28T08:18:20Z</time>
      </trkpt>
      <trkpt lat="44.12186" lon="6.83378">
        <ele>1179.3859863281</ele>
        <time>2017-10-28T08:18:28Z</time>
      </trkpt>
      <trkpt lat="44.12172" lon="6.83393">
        <ele>1180.3859863281</ele>
        <time>2017-10-28T08:18:37Z</time>
      </trkpt>
      <trkpt lat="44.12167" lon="6.83403">
        <ele>1180.3859863281</ele>
        <time>2017-10-28T08:18:42Z</time>
      </trkpt>
      <trkpt lat="44.12158" lon="6.83422">
        <ele>1183.3859863281</ele>
        <time>2017-10-28T08:18:50Z</time>
      </trkpt>
      <trkpt lat="44.1215" lon="6.83441">
        <ele>1184.3859863281</ele>
        <time>2017-10-28T08:18:58Z</time>
      </trkpt>
      <trkpt lat="44.12146" lon="6.83451">
        <ele>1182.3859863281</ele>
        <time>2017-10-28T08:19:03Z</time>
      </trkpt>
      <trkpt lat="44.1214" lon="6.83461">
        <ele>1184.3859863281</ele>
        <time>2017-10-28T08:19:08Z</time>
      </trkpt>
      <trkpt lat="44.12127" lon="6.83479">
        <ele>1183.3859863281</ele>
        <time>2017-10-28T08:19:16Z</time>
      </trkpt>
      <trkpt lat="44.12122" lon="6.83501">
        <ele>1185.3859863281</ele>
        <time>2017-10-28T08:19:24Z</time>
      </trkpt>
      <trkpt lat="44.12125" lon="6.83522">
        <ele>1189.3859863281</ele>
        <time>2017-10-28T08:19:31Z</time>
      </trkpt>
      <trkpt lat="44.12121" lon="6.83541">
        <ele>1191.3859863281</ele>
        <time>2017-10-28T08:19:39Z</time>
      </trkpt>
      <trkpt lat="44.12111" lon="6.8356">
        <ele>1193.3859863281</ele>
        <time>2017-10-28T08:19:47Z</time>
      </trkpt>
      <trkpt lat="44.12108" lon="6.83584">
        <ele>1195.3859863281</ele>
        <time>2017-10-28T08:19:55Z</time>
      </trkpt>
      <trkpt lat="44.12107" lon="6.83604">
        <ele>1194.3859863281</ele>
        <time>2017-10-28T08:20:01Z</time>
      </trkpt>
      <trkpt lat="44.121" lon="6.83627">
        <ele>1196.3859863281</ele>
        <time>2017-10-28T08:20:09Z</time>
      </trkpt>
      <trkpt lat="44.12094" lon="6.83646">
        <ele>1194.3859863281</ele>
        <time>2017-10-28T08:20:15Z</time>
      </trkpt>
      <trkpt lat="44.12091" lon="6.83669">
        <ele>1195.3859863281</ele>
        <time>2017-10-28T08:20:23Z</time>
      </trkpt>
      <trkpt lat="44.12098" lon="6.83694">
        <ele>1195.3869628906</ele>
        <time>2017-10-28T08:20:31Z</time>
      </trkpt>
      <trkpt lat="44.12101" lon="6.83714">
        <ele>1198.3869628906</ele>
        <time>2017-10-28T08:20:38Z</time>
      </trkpt>
      <trkpt lat="44.12099" lon="6.83737">
        <ele>1199.3869628906</ele>
        <time>2017-10-28T08:20:46Z</time>
      </trkpt>
      <trkpt lat="44.1211" lon="6.8375">
        <ele>1201.3869628906</ele>
        <time>2017-10-28T08:20:54Z</time>
      </trkpt>
      <trkpt lat="44.12119" lon="6.83727">
        <ele>1201.3869628906</ele>
        <time>2017-10-28T08:21:02Z</time>
      </trkpt>
      <trkpt lat="44.12117" lon="6.83702">
        <ele>1202.3869628906</ele>
        <time>2017-10-28T08:21:10Z</time>
      </trkpt>
      <trkpt lat="44.12122" lon="6.8368">
        <ele>1205.3869628906</ele>
        <time>2017-10-28T08:21:17Z</time>
      </trkpt>
      <trkpt lat="44.12132" lon="6.83663">
        <ele>1206.3869628906</ele>
        <time>2017-10-28T08:21:25Z</time>
      </trkpt>
      <trkpt lat="44.12145" lon="6.83645">
        <ele>1207.3869628906</ele>
        <time>2017-10-28T08:21:33Z</time>
      </trkpt>
      <trkpt lat="44.12156" lon="6.83629">
        <ele>1209.3859863281</ele>
        <time>2017-10-28T08:21:41Z</time>
      </trkpt>
      <trkpt lat="44.12167" lon="6.83612">
        <ele>1209.3859863281</ele>
        <time>2017-10-28T08:21:49Z</time>
      </trkpt>
      <trkpt lat="44.12179" lon="6.83593">
        <ele>1208.3859863281</ele>
        <time>2017-10-28T08:21:56Z</time>
      </trkpt>
      <trkpt lat="44.1219" lon="6.83576">
        <ele>1209.3859863281</ele>
        <time>2017-10-28T08:22:03Z</time>
      </trkpt>
      <trkpt lat="44.12202" lon="6.83558">
        <ele>1211.3859863281</ele>
        <time>2017-10-28T08:22:11Z</time>
      </trkpt>
      <trkpt lat="44.12215" lon="6.83546">
        <ele>1212.3859863281</ele>
        <time>2017-10-28T08:22:18Z</time>
      </trkpt>
      <trkpt lat="44.12231" lon="6.83538">
        <ele>1214.3859863281</ele>
        <time>2017-10-28T08:22:25Z</time>
      </trkpt>
      <trkpt lat="44.12246" lon="6.83531">
        <ele>1215.3859863281</ele>
        <time>2017-10-28T08:22:33Z</time>
      </trkpt>
      <trkpt lat="44.12262" lon="6.83528">
        <ele>1216.3859863281</ele>
        <time>2017-10-28T08:22:41Z</time>
      </trkpt>
      <trkpt lat="44.1227" lon="6.83529">
        <ele>1218.3859863281</ele>
        <time>2017-10-28T08:23:38Z</time>
      </trkpt>
      <trkpt lat="44.12286" lon="6.8353">
        <ele>1222.3869628906</ele>
        <time>2017-10-28T08:23:46Z</time>
      </trkpt>
      <trkpt lat="44.12303" lon="6.83537">
        <ele>1222.3869628906</ele>
        <time>2017-10-28T08:23:54Z</time>
      </trkpt>
      <trkpt lat="44.12318" lon="6.83542">
        <ele>1221.3869628906</ele>
        <time>2017-10-28T08:24:01Z</time>
      </trkpt>
      <trkpt lat="44.12333" lon="6.83545">
        <ele>1219.3869628906</ele>
        <time>2017-10-28T08:24:07Z</time>
      </trkpt>
      <trkpt lat="44.12349" lon="6.83545">
        <ele>1220.3869628906</ele>
        <time>2017-10-28T08:24:14Z</time>
      </trkpt>
      <trkpt lat="44.12366" lon="6.8354">
        <ele>1221.3869628906</ele>
        <time>2017-10-28T08:24:21Z</time>
      </trkpt>
      <trkpt lat="44.12382" lon="6.83544">
        <ele>1225.3869628906</ele>
        <time>2017-10-28T08:24:29Z</time>
      </trkpt>
      <trkpt lat="44.12398" lon="6.83548">
        <ele>1227.3869628906</ele>
        <time>2017-10-28T08:24:37Z</time>
      </trkpt>
      <trkpt lat="44.12413" lon="6.83554">
        <ele>1224.3869628906</ele>
        <time>2017-10-28T08:24:44Z</time>
      </trkpt>
      <trkpt lat="44.12428" lon="6.83561">
        <ele>1228.3869628906</ele>
        <time>2017-10-28T08:24:52Z</time>
      </trkpt>
      <trkpt lat="44.12444" lon="6.83569">
        <ele>1228.3869628906</ele>
        <time>2017-10-28T08:25:00Z</time>
      </trkpt>
      <trkpt lat="44.12458" lon="6.83581">
        <ele>1230.3869628906</ele>
        <time>2017-10-28T08:25:08Z</time>
      </trkpt>
      <trkpt lat="44.12473" lon="6.83591">
        <ele>1232.3869628906</ele>
        <time>2017-10-28T08:25:16Z</time>
      </trkpt>
      <trkpt lat="44.12488" lon="6.83592">
        <ele>1233.3869628906</ele>
        <time>2017-10-28T08:25:24Z</time>
      </trkpt>
      <trkpt lat="44.12505" lon="6.83585">
        <ele>1234.3869628906</ele>
        <time>2017-10-28T08:25:32Z</time>
      </trkpt>
      <trkpt lat="44.1252" lon="6.83574">
        <ele>1234.3869628906</ele>
        <time>2017-10-28T08:25:40Z</time>
      </trkpt>
      <trkpt lat="44.12531" lon="6.83558">
        <ele>1234.3869628906</ele>
        <time>2017-10-28T08:25:47Z</time>
      </trkpt>
      <trkpt lat="44.1254" lon="6.83538">
        <ele>1234.3869628906</ele>
        <time>2017-10-28T08:25:55Z</time>
      </trkpt>
      <trkpt lat="44.12543" lon="6.83515">
        <ele>1236.3869628906</ele>
        <time>2017-10-28T08:26:03Z</time>
      </trkpt>
      <trkpt lat="44.12546" lon="6.83494">
        <ele>1238.3869628906</ele>
        <time>2017-10-28T08:26:11Z</time>
      </trkpt>
      <trkpt lat="44.12549" lon="6.8347">
        <ele>1239.3869628906</ele>
        <time>2017-10-28T08:26:19Z</time>
      </trkpt>
      <trkpt lat="44.12551" lon="6.83446">
        <ele>1240.3869628906</ele>
        <time>2017-10-28T08:26:27Z</time>
      </trkpt>
      <trkpt lat="44.12558" lon="6.83426">
        <ele>1240.3869628906</ele>
        <time>2017-10-28T08:26:34Z</time>
      </trkpt>
      <trkpt lat="44.12571" lon="6.83413">
        <ele>1241.3869628906</ele>
        <time>2017-10-28T08:26:42Z</time>
      </trkpt>
      <trkpt lat="44.1258" lon="6.83409">
        <ele>1242.3869628906</ele>
        <time>2017-10-28T08:26:47Z</time>
      </trkpt>
      <trkpt lat="44.12596" lon="6.83409">
        <ele>1245.3869628906</ele>
        <time>2017-10-28T08:26:55Z</time>
      </trkpt>
      <trkpt lat="44.12615" lon="6.83405">
        <ele>1246.3869628906</ele>
        <time>2017-10-28T08:27:03Z</time>
      </trkpt>
      <trkpt lat="44.12631" lon="6.8341">
        <ele>1246.3869628906</ele>
        <time>2017-10-28T08:27:11Z</time>
      </trkpt>
      <trkpt lat="44.12645" lon="6.83425">
        <ele>1247.3869628906</ele>
        <time>2017-10-28T08:27:19Z</time>
      </trkpt>
      <trkpt lat="44.12656" lon="6.83446">
        <ele>1250.3869628906</ele>
        <time>2017-10-28T08:27:27Z</time>
      </trkpt>
      <trkpt lat="44.12664" lon="6.83466">
        <ele>1252.3869628906</ele>
        <time>2017-10-28T08:27:34Z</time>
      </trkpt>
      <trkpt lat="44.12669" lon="6.83477">
        <ele>1253.3869628906</ele>
        <time>2017-10-28T08:27:38Z</time>
      </trkpt>
      <trkpt lat="44.1268" lon="6.83494">
        <ele>1254.3869628906</ele>
        <time>2017-10-28T08:27:45Z</time>
      </trkpt>
      <trkpt lat="44.12696" lon="6.83497">
        <ele>1254.3869628906</ele>
        <time>2017-10-28T08:27:51Z</time>
      </trkpt>
      <trkpt lat="44.1271" lon="6.83488">
        <ele>1255.3869628906</ele>
        <time>2017-10-28T08:27:57Z</time>
      </trkpt>
      <trkpt lat="44.12726" lon="6.83477">
        <ele>1256.3869628906</ele>
        <time>2017-10-28T08:28:05Z</time>
      </trkpt>
      <trkpt lat="44.1274" lon="6.83469">
        <ele>1255.3869628906</ele>
        <time>2017-10-28T08:28:11Z</time>
      </trkpt>
      <trkpt lat="44.12754" lon="6.83462">
        <ele>1255.3869628906</ele>
        <time>2017-10-28T08:28:17Z</time>
      </trkpt>
      <trkpt lat="44.12769" lon="6.83453">
        <ele>1257.3869628906</ele>
        <time>2017-10-28T08:28:24Z</time>
      </trkpt>
      <trkpt lat="44.12785" lon="6.83447">
        <ele>1260.3869628906</ele>
        <time>2017-10-28T08:28:31Z</time>
      </trkpt>
      <trkpt lat="44.12801" lon="6.83441">
        <ele>1262.3869628906</ele>
        <time>2017-10-28T08:28:38Z</time>
      </trkpt>
      <trkpt lat="44.12816" lon="6.83432">
        <ele>1263.3869628906</ele>
        <time>2017-10-28T08:28:44Z</time>
      </trkpt>
      <trkpt lat="44.12826" lon="6.83427">
        <ele>1264.3869628906</ele>
        <time>2017-10-28T08:28:48Z</time>
      </trkpt>
      <trkpt lat="44.12841" lon="6.83417">
        <ele>1265.3869628906</ele>
        <time>2017-10-28T08:28:55Z</time>
      </trkpt>
      <trkpt lat="44.12855" lon="6.83405">
        <ele>1264.3869628906</ele>
        <time>2017-10-28T08:29:01Z</time>
      </trkpt>
      <trkpt lat="44.12867" lon="6.83389">
        <ele>1266.3869628906</ele>
        <time>2017-10-28T08:29:09Z</time>
      </trkpt>
      <trkpt lat="44.12872" lon="6.8338">
        <ele>1266.3869628906</ele>
        <time>2017-10-28T08:29:12Z</time>
      </trkpt>
      <trkpt lat="44.1288" lon="6.83362">
        <ele>1267.3869628906</ele>
        <time>2017-10-28T08:29:18Z</time>
      </trkpt>
      <trkpt lat="44.1289" lon="6.83343">
        <ele>1267.3869628906</ele>
        <time>2017-10-28T08:29:24Z</time>
      </trkpt>
      <trkpt lat="44.12899" lon="6.83322">
        <ele>1269.3869628906</ele>
        <time>2017-10-28T08:29:31Z</time>
      </trkpt>
      <trkpt lat="44.12909" lon="6.83301">
        <ele>1268.3869628906</ele>
        <time>2017-10-28T08:29:39Z</time>
      </trkpt>
      <trkpt lat="44.1292" lon="6.83282">
        <ele>1271.3869628906</ele>
        <time>2017-10-28T08:29:47Z</time>
      </trkpt>
      <trkpt lat="44.12935" lon="6.83266">
        <ele>1271.3869628906</ele>
        <time>2017-10-28T08:29:55Z</time>
      </trkpt>
      <trkpt lat="44.12946" lon="6.83249">
        <ele>1268.3869628906</ele>
        <time>2017-10-28T08:30:02Z</time>
      </trkpt>
      <trkpt lat="44.12959" lon="6.83235">
        <ele>1273.3869628906</ele>
        <time>2017-10-28T08:30:08Z</time>
      </trkpt>
      <trkpt lat="44.12972" lon="6.83224">
        <ele>1274.3869628906</ele>
        <time>2017-10-28T08:30:14Z</time>
      </trkpt>
      <trkpt lat="44.1298" lon="6.83217">
        <ele>1275.3869628906</ele>
        <time>2017-10-28T08:30:18Z</time>
      </trkpt>
      <trkpt lat="44.12993" lon="6.83203">
        <ele>1277.3869628906</ele>
        <time>2017-10-28T08:30:25Z</time>
      </trkpt>
      <trkpt lat="44.13002" lon="6.83182">
        <ele>1278.3869628906</ele>
        <time>2017-10-28T08:30:32Z</time>
      </trkpt>
      <trkpt lat="44.13014" lon="6.83164">
        <ele>1278.3869628906</ele>
        <time>2017-10-28T08:30:38Z</time>
      </trkpt>
      <trkpt lat="44.13027" lon="6.8315">
        <ele>1281.3869628906</ele>
        <time>2017-10-28T08:30:44Z</time>
      </trkpt>
      <trkpt lat="44.13037" lon="6.83135">
        <ele>1283.3869628906</ele>
        <time>2017-10-28T08:33:35Z</time>
      </trkpt>
      <trkpt lat="44.13053" lon="6.83124">
        <ele>1282.3869628906</ele>
        <time>2017-10-28T08:33:40Z</time>
      </trkpt>
      <trkpt lat="44.13078" lon="6.83102">
        <ele>1277.3869628906</ele>
        <time>2017-10-28T08:33:46Z</time>
      </trkpt>
      <trkpt lat="44.13113" lon="6.83093">
        <ele>1276.3869628906</ele>
        <time>2017-10-28T08:33:52Z</time>
      </trkpt>
      <trkpt lat="44.13122" lon="6.83096">
        <ele>1275.3869628906</ele>
        <time>2017-10-28T08:33:54Z</time>
      </trkpt>
      <trkpt lat="44.1314" lon="6.83096">
        <ele>1276.3869628906</ele>
        <time>2017-10-28T08:34:01Z</time>
      </trkpt>
      <trkpt lat="44.13157" lon="6.83094">
        <ele>1277.3869628906</ele>
        <time>2017-10-28T08:34:09Z</time>
      </trkpt>
      <trkpt lat="44.13172" lon="6.83087">
        <ele>1277.3869628906</ele>
        <time>2017-10-28T08:34:17Z</time>
      </trkpt>
      <trkpt lat="44.13186" lon="6.83079">
        <ele>1279.3869628906</ele>
        <time>2017-10-28T08:34:26Z</time>
      </trkpt>
      <trkpt lat="44.13199" lon="6.83066">
        <ele>1281.3869628906</ele>
        <time>2017-10-28T08:34:34Z</time>
      </trkpt>
      <trkpt lat="44.13205" lon="6.83061">
        <ele>1282.3869628906</ele>
        <time>2017-10-28T08:34:38Z</time>
      </trkpt>
      <trkpt lat="44.13218" lon="6.83049">
        <ele>1284.3869628906</ele>
        <time>2017-10-28T08:34:46Z</time>
      </trkpt>
      <trkpt lat="44.13227" lon="6.83048">
        <ele>1285.3869628906</ele>
        <time>2017-10-28T08:34:51Z</time>
      </trkpt>
      <trkpt lat="44.13241" lon="6.83048">
        <ele>1287.3869628906</ele>
        <time>2017-10-28T08:34:58Z</time>
      </trkpt>
      <trkpt lat="44.13249" lon="6.83048">
        <ele>1291.3869628906</ele>
        <time>2017-10-28T08:35:03Z</time>
      </trkpt>
      <trkpt lat="44.13258" lon="6.83044">
        <ele>1290.3869628906</ele>
        <time>2017-10-28T08:35:08Z</time>
      </trkpt>
      <trkpt lat="44.13264" lon="6.83039">
        <ele>1289.3869628906</ele>
        <time>2017-10-28T08:35:13Z</time>
      </trkpt>
      <trkpt lat="44.13277" lon="6.83023">
        <ele>1292.3869628906</ele>
        <time>2017-10-28T08:35:22Z</time>
      </trkpt>
      <trkpt lat="44.13284" lon="6.83015">
        <ele>1291.3869628906</ele>
        <time>2017-10-28T08:35:27Z</time>
      </trkpt>
      <trkpt lat="44.13292" lon="6.83008">
        <ele>1293.3869628906</ele>
        <time>2017-10-28T08:35:33Z</time>
      </trkpt>
      <trkpt lat="44.13298" lon="6.83002">
        <ele>1295.3869628906</ele>
        <time>2017-10-28T08:35:38Z</time>
      </trkpt>
      <trkpt lat="44.13305" lon="6.82997">
        <ele>1297.3869628906</ele>
        <time>2017-10-28T08:35:43Z</time>
      </trkpt>
      <trkpt lat="44.13312" lon="6.82992">
        <ele>1299.3869628906</ele>
        <time>2017-10-28T08:35:48Z</time>
      </trkpt>
      <trkpt lat="44.1332" lon="6.82989">
        <ele>1298.3869628906</ele>
        <time>2017-10-28T08:35:53Z</time>
      </trkpt>
      <trkpt lat="44.13335" lon="6.82981">
        <ele>1302.3869628906</ele>
        <time>2017-10-28T08:36:03Z</time>
      </trkpt>
      <trkpt lat="44.13343" lon="6.82984">
        <ele>1303.3869628906</ele>
        <time>2017-10-28T08:36:08Z</time>
      </trkpt>
      <trkpt lat="44.13357" lon="6.8299">
        <ele>1305.3869628906</ele>
        <time>2017-10-28T08:36:16Z</time>
      </trkpt>
      <trkpt lat="44.13372" lon="6.8299">
        <ele>1305.3869628906</ele>
        <time>2017-10-28T08:36:24Z</time>
      </trkpt>
      <trkpt lat="44.13386" lon="6.8298">
        <ele>1306.3869628906</ele>
        <time>2017-10-28T08:36:33Z</time>
      </trkpt>
      <trkpt lat="44.13394" lon="6.82975">
        <ele>1308.3869628906</ele>
        <time>2017-10-28T08:36:38Z</time>
      </trkpt>
      <trkpt lat="44.1341" lon="6.8297">
        <ele>1309.3869628906</ele>
        <time>2017-10-28T08:36:47Z</time>
      </trkpt>
      <trkpt lat="44.13426" lon="6.82968">
        <ele>1309.3869628906</ele>
        <time>2017-10-28T08:36:55Z</time>
      </trkpt>
      <trkpt lat="44.13434" lon="6.82967">
        <ele>1310.3869628906</ele>
        <time>2017-10-28T08:37:00Z</time>
      </trkpt>
      <trkpt lat="44.13444" lon="6.8297">
        <ele>1312.3869628906</ele>
        <time>2017-10-28T08:37:05Z</time>
      </trkpt>
      <trkpt lat="44.13459" lon="6.82978">
        <ele>1311.3869628906</ele>
        <time>2017-10-28T08:37:14Z</time>
      </trkpt>
      <trkpt lat="44.13474" lon="6.82987">
        <ele>1314.3869628906</ele>
        <time>2017-10-28T08:37:23Z</time>
      </trkpt>
      <trkpt lat="44.13476" lon="6.83">
        <ele>1314.3869628906</ele>
        <time>2017-10-28T08:37:28Z</time>
      </trkpt>
      <trkpt lat="44.13468" lon="6.83018">
        <ele>1314.3869628906</ele>
        <time>2017-10-28T08:37:34Z</time>
      </trkpt>
      <trkpt lat="44.13465" lon="6.83042">
        <ele>1314.3869628906</ele>
        <time>2017-10-28T08:37:40Z</time>
      </trkpt>
      <trkpt lat="44.13477" lon="6.83056">
        <ele>1312.3869628906</ele>
        <time>2017-10-28T08:37:46Z</time>
      </trkpt>
      <trkpt lat="44.13494" lon="6.83055">
        <ele>1313.3869628906</ele>
        <time>2017-10-28T08:37:52Z</time>
      </trkpt>
      <trkpt lat="44.13511" lon="6.83055">
        <ele>1316.3879394531</ele>
        <time>2017-10-28T08:37:59Z</time>
      </trkpt>
      <trkpt lat="44.13527" lon="6.83057">
        <ele>1317.3879394531</ele>
        <time>2017-10-28T08:38:05Z</time>
      </trkpt>
      <trkpt lat="44.13534" lon="6.83062">
        <ele>1316.3879394531</ele>
        <time>2017-10-28T08:38:08Z</time>
      </trkpt>
      <trkpt lat="44.13537" lon="6.83081">
        <ele>1315.3879394531</ele>
        <time>2017-10-28T08:38:15Z</time>
      </trkpt>
      <trkpt lat="44.13546" lon="6.83104">
        <ele>1314.3879394531</ele>
        <time>2017-10-28T08:38:20Z</time>
      </trkpt>
      <trkpt lat="44.13564" lon="6.83104">
        <ele>1315.3879394531</ele>
        <time>2017-10-28T08:38:25Z</time>
      </trkpt>
      <trkpt lat="44.1358" lon="6.83097">
        <ele>1316.3879394531</ele>
        <time>2017-10-28T08:38:31Z</time>
      </trkpt>
      <trkpt lat="44.13596" lon="6.83095">
        <ele>1319.3879394531</ele>
        <time>2017-10-28T08:38:39Z</time>
      </trkpt>
      <trkpt lat="44.13612" lon="6.83096">
        <ele>1320.3879394531</ele>
        <time>2017-10-28T08:38:48Z</time>
      </trkpt>
      <trkpt lat="44.13621" lon="6.83094">
        <ele>1322.3879394531</ele>
        <time>2017-10-28T08:38:53Z</time>
      </trkpt>
      <trkpt lat="44.13628" lon="6.83093">
        <ele>1324.3879394531</ele>
        <time>2017-10-28T08:38:58Z</time>
      </trkpt>
      <trkpt lat="44.13636" lon="6.83099">
        <ele>1326.3879394531</ele>
        <time>2017-10-28T08:39:03Z</time>
      </trkpt>
      <trkpt lat="44.13642" lon="6.83105">
        <ele>1327.3879394531</ele>
        <time>2017-10-28T08:39:06Z</time>
      </trkpt>
      <trkpt lat="44.13656" lon="6.83112">
        <ele>1326.3879394531</ele>
        <time>2017-10-28T08:39:14Z</time>
      </trkpt>
      <trkpt lat="44.13663" lon="6.83118">
        <ele>1329.3879394531</ele>
        <time>2017-10-28T08:39:19Z</time>
      </trkpt>
      <trkpt lat="44.13675" lon="6.83133">
        <ele>1327.3879394531</ele>
        <time>2017-10-28T08:39:27Z</time>
      </trkpt>
      <trkpt lat="44.13679" lon="6.83153">
        <ele>1329.3879394531</ele>
        <time>2017-10-28T08:39:34Z</time>
      </trkpt>
      <trkpt lat="44.13693" lon="6.83166">
        <ele>1330.3879394531</ele>
        <time>2017-10-28T08:39:41Z</time>
      </trkpt>
      <trkpt lat="44.13709" lon="6.83167">
        <ele>1327.3879394531</ele>
        <time>2017-10-28T08:39:48Z</time>
      </trkpt>
      <trkpt lat="44.13716" lon="6.83164">
        <ele>1328.3879394531</ele>
        <time>2017-10-28T08:39:51Z</time>
      </trkpt>
      <trkpt lat="44.13733" lon="6.8316">
        <ele>1328.3879394531</ele>
        <time>2017-10-28T08:39:58Z</time>
      </trkpt>
      <trkpt lat="44.1375" lon="6.83156">
        <ele>1330.3879394531</ele>
        <time>2017-10-28T08:40:07Z</time>
      </trkpt>
      <trkpt lat="44.13759" lon="6.83154">
        <ele>1332.3879394531</ele>
        <time>2017-10-28T08:40:12Z</time>
      </trkpt>
      <trkpt lat="44.13767" lon="6.83157">
        <ele>1333.3879394531</ele>
        <time>2017-10-28T08:40:17Z</time>
      </trkpt>
      <trkpt lat="44.13782" lon="6.8316">
        <ele>1333.3879394531</ele>
        <time>2017-10-28T08:40:25Z</time>
      </trkpt>
      <trkpt lat="44.13793" lon="6.83175">
        <ele>1332.3879394531</ele>
        <time>2017-10-28T08:40:33Z</time>
      </trkpt>
      <trkpt lat="44.13794" lon="6.832">
        <ele>1334.3879394531</ele>
        <time>2017-10-28T08:40:41Z</time>
      </trkpt>
      <trkpt lat="44.13794" lon="6.83211">
        <ele>1336.3879394531</ele>
        <time>2017-10-28T08:40:45Z</time>
      </trkpt>
      <trkpt lat="44.13797" lon="6.83223">
        <ele>1337.3879394531</ele>
        <time>2017-10-28T08:40:50Z</time>
      </trkpt>
      <trkpt lat="44.13797" lon="6.83245">
        <ele>1340.3879394531</ele>
        <time>2017-10-28T08:40:58Z</time>
      </trkpt>
      <trkpt lat="44.13791" lon="6.83264">
        <ele>1339.3879394531</ele>
        <time>2017-10-28T08:41:05Z</time>
      </trkpt>
      <trkpt lat="44.13788" lon="6.83274">
        <ele>1340.3879394531</ele>
        <time>2017-10-28T08:41:09Z</time>
      </trkpt>
      <trkpt lat="44.13779" lon="6.83293">
        <ele>1340.3879394531</ele>
        <time>2017-10-28T08:41:18Z</time>
      </trkpt>
      <trkpt lat="44.13785" lon="6.83314">
        <ele>1342.3879394531</ele>
        <time>2017-10-28T08:41:26Z</time>
      </trkpt>
      <trkpt lat="44.13784" lon="6.83326">
        <ele>1343.3879394531</ele>
        <time>2017-10-28T08:41:31Z</time>
      </trkpt>
      <trkpt lat="44.13787" lon="6.83347">
        <ele>1342.3890380859</ele>
        <time>2017-10-28T08:41:38Z</time>
      </trkpt>
      <trkpt lat="44.13796" lon="6.83351">
        <ele>1345.3890380859</ele>
        <time>2017-10-28T08:41:43Z</time>
      </trkpt>
      <trkpt lat="44.13802" lon="6.8336">
        <ele>1346.3890380859</ele>
        <time>2017-10-28T08:41:48Z</time>
      </trkpt>
      <trkpt lat="44.13807" lon="6.83371">
        <ele>1347.3890380859</ele>
        <time>2017-10-28T08:41:53Z</time>
      </trkpt>
      <trkpt lat="44.13809" lon="6.83393">
        <ele>1347.3890380859</ele>
        <time>2017-10-28T08:42:02Z</time>
      </trkpt>
      <trkpt lat="44.13806" lon="6.83418">
        <ele>1349.3890380859</ele>
        <time>2017-10-28T08:42:10Z</time>
      </trkpt>
      <trkpt lat="44.13807" lon="6.83441">
        <ele>1351.3890380859</ele>
        <time>2017-10-28T08:42:18Z</time>
      </trkpt>
      <trkpt lat="44.13814" lon="6.83463">
        <ele>1350.3890380859</ele>
        <time>2017-10-28T08:42:25Z</time>
      </trkpt>
      <trkpt lat="44.13818" lon="6.83484">
        <ele>1350.3890380859</ele>
        <time>2017-10-28T08:42:33Z</time>
      </trkpt>
      <trkpt lat="44.13821" lon="6.83497">
        <ele>1349.3890380859</ele>
        <time>2017-10-28T08:42:37Z</time>
      </trkpt>
      <trkpt lat="44.1383" lon="6.83517">
        <ele>1352.3890380859</ele>
        <time>2017-10-28T08:42:45Z</time>
      </trkpt>
      <trkpt lat="44.13837" lon="6.83536">
        <ele>1353.3890380859</ele>
        <time>2017-10-28T08:42:53Z</time>
      </trkpt>
      <trkpt lat="44.13845" lon="6.83557">
        <ele>1354.3890380859</ele>
        <time>2017-10-28T08:43:01Z</time>
      </trkpt>
      <trkpt lat="44.13854" lon="6.83578">
        <ele>1356.3890380859</ele>
        <time>2017-10-28T08:43:08Z</time>
      </trkpt>
      <trkpt lat="44.13864" lon="6.83598">
        <ele>1354.3890380859</ele>
        <time>2017-10-28T08:43:15Z</time>
      </trkpt>
      <trkpt lat="44.13877" lon="6.83618">
        <ele>1355.3890380859</ele>
        <time>2017-10-28T08:43:21Z</time>
      </trkpt>
      <trkpt lat="44.13895" lon="6.83636">
        <ele>1356.3890380859</ele>
        <time>2017-10-28T08:43:27Z</time>
      </trkpt>
      <trkpt lat="44.13911" lon="6.83647">
        <ele>1355.3890380859</ele>
        <time>2017-10-28T08:43:32Z</time>
      </trkpt>
      <trkpt lat="44.13926" lon="6.8366">
        <ele>1357.3890380859</ele>
        <time>2017-10-28T08:43:37Z</time>
      </trkpt>
      <trkpt lat="44.13932" lon="6.83671">
        <ele>1357.3890380859</ele>
        <time>2017-10-28T08:43:40Z</time>
      </trkpt>
      <trkpt lat="44.13953" lon="6.83679">
        <ele>1357.3890380859</ele>
        <time>2017-10-28T08:43:46Z</time>
      </trkpt>
      <trkpt lat="44.13974" lon="6.83662">
        <ele>1356.3890380859</ele>
        <time>2017-10-28T08:43:53Z</time>
      </trkpt>
      <trkpt lat="44.13992" lon="6.83649">
        <ele>1356.3890380859</ele>
        <time>2017-10-28T08:43:59Z</time>
      </trkpt>
      <trkpt lat="44.14" lon="6.83642">
        <ele>1356.3890380859</ele>
        <time>2017-10-28T08:44:02Z</time>
      </trkpt>
      <trkpt lat="44.14017" lon="6.83627">
        <ele>1355.3890380859</ele>
        <time>2017-10-28T08:44:08Z</time>
      </trkpt>
      <trkpt lat="44.14036" lon="6.83622">
        <ele>1356.3890380859</ele>
        <time>2017-10-28T08:44:14Z</time>
      </trkpt>
      <trkpt lat="44.14043" lon="6.83624">
        <ele>1358.3890380859</ele>
        <time>2017-10-28T08:44:16Z</time>
      </trkpt>
      <trkpt lat="44.14063" lon="6.83628">
        <ele>1359.3900146484</ele>
        <time>2017-10-28T08:44:22Z</time>
      </trkpt>
      <trkpt lat="44.14082" lon="6.83627">
        <ele>1357.3900146484</ele>
        <time>2017-10-28T08:44:27Z</time>
      </trkpt>
      <trkpt lat="44.14099" lon="6.8362">
        <ele>1358.3900146484</ele>
        <time>2017-10-28T08:44:32Z</time>
      </trkpt>
      <trkpt lat="44.14124" lon="6.8362">
        <ele>1359.3900146484</ele>
        <time>2017-10-28T08:44:39Z</time>
      </trkpt>
      <trkpt lat="44.14142" lon="6.83622">
        <ele>1360.3900146484</ele>
        <time>2017-10-28T08:44:44Z</time>
      </trkpt>
      <trkpt lat="44.14163" lon="6.83617">
        <ele>1365.3900146484</ele>
        <time>2017-10-28T08:44:50Z</time>
      </trkpt>
      <trkpt lat="44.14182" lon="6.83601">
        <ele>1368.3900146484</ele>
        <time>2017-10-28T08:44:56Z</time>
      </trkpt>
      <trkpt lat="44.14205" lon="6.83586">
        <ele>1368.3900146484</ele>
        <time>2017-10-28T08:45:02Z</time>
      </trkpt>
      <trkpt lat="44.14226" lon="6.83573">
        <ele>1368.3900146484</ele>
        <time>2017-10-28T08:45:08Z</time>
      </trkpt>
      <trkpt lat="44.14244" lon="6.83571">
        <ele>1366.3900146484</ele>
        <time>2017-10-28T08:45:13Z</time>
      </trkpt>
      <trkpt lat="44.14261" lon="6.83572">
        <ele>1364.3900146484</ele>
        <time>2017-10-28T08:45:18Z</time>
      </trkpt>
      <trkpt lat="44.14269" lon="6.83574">
        <ele>1365.3900146484</ele>
        <time>2017-10-28T08:45:20Z</time>
      </trkpt>
      <trkpt lat="44.14286" lon="6.83564">
        <ele>1368.3900146484</ele>
        <time>2017-10-28T08:45:25Z</time>
      </trkpt>
      <trkpt lat="44.14297" lon="6.83544">
        <ele>1363.3900146484</ele>
        <time>2017-10-28T08:45:30Z</time>
      </trkpt>
      <trkpt lat="44.14308" lon="6.83518">
        <ele>1367.3900146484</ele>
        <time>2017-10-28T08:45:36Z</time>
      </trkpt>
      <trkpt lat="44.14314" lon="6.83508">
        <ele>1368.3900146484</ele>
        <time>2017-10-28T08:45:39Z</time>
      </trkpt>
      <trkpt lat="44.1433" lon="6.83504">
        <ele>1368.3900146484</ele>
        <time>2017-10-28T08:45:44Z</time>
      </trkpt>
      <trkpt lat="44.14344" lon="6.8352">
        <ele>1367.3900146484</ele>
        <time>2017-10-28T08:45:49Z</time>
      </trkpt>
      <trkpt lat="44.14364" lon="6.8354">
        <ele>1369.3900146484</ele>
        <time>2017-10-28T08:45:55Z</time>
      </trkpt>
      <trkpt lat="44.14378" lon="6.83554">
        <ele>1368.3900146484</ele>
        <time>2017-10-28T08:46:00Z</time>
      </trkpt>
      <trkpt lat="44.1439" lon="6.83578">
        <ele>1368.3900146484</ele>
        <time>2017-10-28T08:46:06Z</time>
      </trkpt>
      <trkpt lat="44.14407" lon="6.83598">
        <ele>1368.3900146484</ele>
        <time>2017-10-28T08:46:12Z</time>
      </trkpt>
      <trkpt lat="44.14417" lon="6.83625">
        <ele>1369.3900146484</ele>
        <time>2017-10-28T08:46:18Z</time>
      </trkpt>
      <trkpt lat="44.14433" lon="6.83646">
        <ele>1370.3900146484</ele>
        <time>2017-10-28T08:46:24Z</time>
      </trkpt>
      <trkpt lat="44.14454" lon="6.83667">
        <ele>1371.3900146484</ele>
        <time>2017-10-28T08:46:31Z</time>
      </trkpt>
      <trkpt lat="44.14468" lon="6.83684">
        <ele>1372.3900146484</ele>
        <time>2017-10-28T08:46:37Z</time>
      </trkpt>
      <trkpt lat="44.1448" lon="6.83705">
        <ele>1372.3900146484</ele>
        <time>2017-10-28T08:46:43Z</time>
      </trkpt>
      <trkpt lat="44.14495" lon="6.83722">
        <ele>1373.3900146484</ele>
        <time>2017-10-28T08:46:49Z</time>
      </trkpt>
      <trkpt lat="44.14511" lon="6.83734">
        <ele>1374.3900146484</ele>
        <time>2017-10-28T08:46:55Z</time>
      </trkpt>
      <trkpt lat="44.14524" lon="6.8375">
        <ele>1372.3900146484</ele>
        <time>2017-10-28T08:47:00Z</time>
      </trkpt>
      <trkpt lat="44.14545" lon="6.8376">
        <ele>1371.3909912109</ele>
        <time>2017-10-28T08:47:06Z</time>
      </trkpt>
      <trkpt lat="44.1457" lon="6.83773">
        <ele>1371.3909912109</ele>
        <time>2017-10-28T08:47:12Z</time>
      </trkpt>
      <trkpt lat="44.14594" lon="6.83788">
        <ele>1371.3909912109</ele>
        <time>2017-10-28T08:47:19Z</time>
      </trkpt>
      <trkpt lat="44.14609" lon="6.83799">
        <ele>1370.3909912109</ele>
        <time>2017-10-28T08:47:24Z</time>
      </trkpt>
      <trkpt lat="44.14625" lon="6.83812">
        <ele>1372.3909912109</ele>
        <time>2017-10-28T08:47:29Z</time>
      </trkpt>
      <trkpt lat="44.14637" lon="6.83828">
        <ele>1374.3909912109</ele>
        <time>2017-10-28T08:47:34Z</time>
      </trkpt>
      <trkpt lat="44.14645" lon="6.83834">
        <ele>1376.3909912109</ele>
        <time>2017-10-28T08:47:37Z</time>
      </trkpt>
      <trkpt lat="44.14662" lon="6.83844">
        <ele>1376.3909912109</ele>
        <time>2017-10-28T08:47:43Z</time>
      </trkpt>
      <trkpt lat="44.14671" lon="6.83847">
        <ele>1377.3909912109</ele>
        <time>2017-10-28T08:47:46Z</time>
      </trkpt>
      <trkpt lat="44.14687" lon="6.83856">
        <ele>1380.3909912109</ele>
        <time>2017-10-28T08:47:53Z</time>
      </trkpt>
      <trkpt lat="44.14701" lon="6.83868">
        <ele>1383.3909912109</ele>
        <time>2017-10-28T08:48:00Z</time>
      </trkpt>
      <trkpt lat="44.14716" lon="6.83878">
        <ele>1384.3909912109</ele>
        <time>2017-10-28T08:48:07Z</time>
      </trkpt>
      <trkpt lat="44.14732" lon="6.83886">
        <ele>1383.3909912109</ele>
        <time>2017-10-28T08:48:15Z</time>
      </trkpt>
      <trkpt lat="44.14739" lon="6.83885">
        <ele>1382.3909912109</ele>
        <time>2017-10-28T08:48:19Z</time>
      </trkpt>
      <trkpt lat="44.14747" lon="6.83884">
        <ele>1382.3909912109</ele>
        <time>2017-10-28T08:48:24Z</time>
      </trkpt>
      <trkpt lat="44.14754" lon="6.83879">
        <ele>1383.3909912109</ele>
        <time>2017-10-28T08:48:31Z</time>
      </trkpt>
      <trkpt lat="44.14763" lon="6.83881">
        <ele>1384.3909912109</ele>
        <time>2017-10-28T08:48:36Z</time>
      </trkpt>
      <trkpt lat="44.1478" lon="6.8388">
        <ele>1381.3909912109</ele>
        <time>2017-10-28T08:48:43Z</time>
      </trkpt>
      <trkpt lat="44.14795" lon="6.83885">
        <ele>1384.3909912109</ele>
        <time>2017-10-28T08:48:50Z</time>
      </trkpt>
      <trkpt lat="44.14812" lon="6.83886">
        <ele>1384.3909912109</ele>
        <time>2017-10-28T08:48:57Z</time>
      </trkpt>
      <trkpt lat="44.14829" lon="6.83884">
        <ele>1384.3909912109</ele>
        <time>2017-10-28T08:49:03Z</time>
      </trkpt>
      <trkpt lat="44.14844" lon="6.83882">
        <ele>1386.3909912109</ele>
        <time>2017-10-28T08:49:09Z</time>
      </trkpt>
      <trkpt lat="44.14852" lon="6.83882">
        <ele>1386.3909912109</ele>
        <time>2017-10-28T08:49:14Z</time>
      </trkpt>
      <trkpt lat="44.1487" lon="6.83889">
        <ele>1389.3909912109</ele>
        <time>2017-10-28T08:49:21Z</time>
      </trkpt>
      <trkpt lat="44.14885" lon="6.839">
        <ele>1391.3909912109</ele>
        <time>2017-10-28T08:49:27Z</time>
      </trkpt>
      <trkpt lat="44.14898" lon="6.83916">
        <ele>1391.3909912109</ele>
        <time>2017-10-28T08:49:34Z</time>
      </trkpt>
      <trkpt lat="44.14905" lon="6.83923">
        <ele>1391.3909912109</ele>
        <time>2017-10-28T08:49:37Z</time>
      </trkpt>
      <trkpt lat="44.14923" lon="6.83925">
        <ele>1394.3909912109</ele>
        <time>2017-10-28T08:49:44Z</time>
      </trkpt>
      <trkpt lat="44.14938" lon="6.8392">
        <ele>1394.3909912109</ele>
        <time>2017-10-28T08:49:50Z</time>
      </trkpt>
      <trkpt lat="44.14953" lon="6.83917">
        <ele>1395.3909912109</ele>
        <time>2017-10-28T08:49:56Z</time>
      </trkpt>
      <trkpt lat="44.14973" lon="6.83901">
        <ele>1396.3909912109</ele>
        <time>2017-10-28T08:50:04Z</time>
      </trkpt>
      <trkpt lat="44.15024" lon="6.83858">
        <ele>1393.3909912109</ele>
        <time>2017-10-28T08:50:43Z</time>
      </trkpt>
      <trkpt lat="44.15022" lon="6.83848">
        <ele>1398.3909912109</ele>
        <time>2017-10-28T08:50:51Z</time>
      </trkpt>
      <trkpt lat="44.15022" lon="6.83838">
        <ele>1397.3909912109</ele>
        <time>2017-10-28T08:50:56Z</time>
      </trkpt>
      <trkpt lat="44.1503" lon="6.83833">
        <ele>1398.3909912109</ele>
        <time>2017-10-28T08:51:01Z</time>
      </trkpt>
      <trkpt lat="44.15037" lon="6.83837">
        <ele>1401.3909912109</ele>
        <time>2017-10-28T08:51:05Z</time>
      </trkpt>
      <trkpt lat="44.15041" lon="6.83849">
        <ele>1402.3909912109</ele>
        <time>2017-10-28T08:51:10Z</time>
      </trkpt>
      <trkpt lat="44.15045" lon="6.83871">
        <ele>1405.3919677734</ele>
        <time>2017-10-28T08:51:18Z</time>
      </trkpt>
      <trkpt lat="44.15045" lon="6.83881">
        <ele>1406.3919677734</ele>
        <time>2017-10-28T08:51:23Z</time>
      </trkpt>
      <trkpt lat="44.15045" lon="6.83893">
        <ele>1407.3919677734</ele>
        <time>2017-10-28T08:51:29Z</time>
      </trkpt>
      <trkpt lat="44.15041" lon="6.83902">
        <ele>1409.3919677734</ele>
        <time>2017-10-28T08:51:34Z</time>
      </trkpt>
      <trkpt lat="44.15038" lon="6.83912">
        <ele>1410.3919677734</ele>
        <time>2017-10-28T08:51:39Z</time>
      </trkpt>
      <trkpt lat="44.15044" lon="6.83918">
        <ele>1410.3919677734</ele>
        <time>2017-10-28T08:51:45Z</time>
      </trkpt>
      <trkpt lat="44.15052" lon="6.83921">
        <ele>1410.3919677734</ele>
        <time>2017-10-28T08:51:50Z</time>
      </trkpt>
      <trkpt lat="44.1506" lon="6.83923">
        <ele>1410.3919677734</ele>
        <time>2017-10-28T08:51:55Z</time>
      </trkpt>
      <trkpt lat="44.15069" lon="6.83924">
        <ele>1413.3919677734</ele>
        <time>2017-10-28T08:52:00Z</time>
      </trkpt>
      <trkpt lat="44.15083" lon="6.83924">
        <ele>1413.3919677734</ele>
        <time>2017-10-28T08:52:08Z</time>
      </trkpt>
      <trkpt lat="44.15099" lon="6.83928">
        <ele>1415.3919677734</ele>
        <time>2017-10-28T08:52:17Z</time>
      </trkpt>
      <trkpt lat="44.15107" lon="6.83924">
        <ele>1415.3919677734</ele>
        <time>2017-10-28T08:52:22Z</time>
      </trkpt>
      <trkpt lat="44.15116" lon="6.83923">
        <ele>1414.3919677734</ele>
        <time>2017-10-28T08:52:28Z</time>
      </trkpt>
      <trkpt lat="44.15124" lon="6.83926">
        <ele>1414.3919677734</ele>
        <time>2017-10-28T08:52:33Z</time>
      </trkpt>
      <trkpt lat="44.15139" lon="6.8393">
        <ele>1417.3919677734</ele>
        <time>2017-10-28T08:52:42Z</time>
      </trkpt>
      <trkpt lat="44.15148" lon="6.83931">
        <ele>1419.3919677734</ele>
        <time>2017-10-28T08:52:47Z</time>
      </trkpt>
      <trkpt lat="44.15157" lon="6.83932">
        <ele>1420.3919677734</ele>
        <time>2017-10-28T08:52:52Z</time>
      </trkpt>
      <trkpt lat="44.15172" lon="6.83935">
        <ele>1420.3919677734</ele>
        <time>2017-10-28T08:53:00Z</time>
      </trkpt>
      <trkpt lat="44.15187" lon="6.8394">
        <ele>1423.3919677734</ele>
        <time>2017-10-28T08:53:09Z</time>
      </trkpt>
      <trkpt lat="44.15196" lon="6.8394">
        <ele>1422.3919677734</ele>
        <time>2017-10-28T08:53:14Z</time>
      </trkpt>
      <trkpt lat="44.15203" lon="6.83939">
        <ele>1424.3919677734</ele>
        <time>2017-10-28T08:53:19Z</time>
      </trkpt>
      <trkpt lat="44.15212" lon="6.83937">
        <ele>1424.3919677734</ele>
        <time>2017-10-28T08:53:24Z</time>
      </trkpt>
      <trkpt lat="44.15219" lon="6.8393">
        <ele>1426.3919677734</ele>
        <time>2017-10-28T08:53:30Z</time>
      </trkpt>
      <trkpt lat="44.15227" lon="6.83923">
        <ele>1426.3919677734</ele>
        <time>2017-10-28T08:53:35Z</time>
      </trkpt>
      <trkpt lat="44.15233" lon="6.83917">
        <ele>1426.3919677734</ele>
        <time>2017-10-28T08:53:39Z</time>
      </trkpt>
      <trkpt lat="44.15247" lon="6.83905">
        <ele>1428.3919677734</ele>
        <time>2017-10-28T08:53:47Z</time>
      </trkpt>
      <trkpt lat="44.15255" lon="6.83898">
        <ele>1429.3919677734</ele>
        <time>2017-10-28T08:53:52Z</time>
      </trkpt>
      <trkpt lat="44.15263" lon="6.83894">
        <ele>1431.3919677734</ele>
        <time>2017-10-28T08:53:56Z</time>
      </trkpt>
      <trkpt lat="44.1527" lon="6.8389">
        <ele>1431.3919677734</ele>
        <time>2017-10-28T08:54:01Z</time>
      </trkpt>
      <trkpt lat="44.15279" lon="6.83886">
        <ele>1432.3919677734</ele>
        <time>2017-10-28T08:54:06Z</time>
      </trkpt>
      <trkpt lat="44.15295" lon="6.83873">
        <ele>1430.3919677734</ele>
        <time>2017-10-28T08:54:14Z</time>
      </trkpt>
      <trkpt lat="44.15301" lon="6.83866">
        <ele>1430.3919677734</ele>
        <time>2017-10-28T08:54:18Z</time>
      </trkpt>
      <trkpt lat="44.15317" lon="6.83863">
        <ele>1430.3919677734</ele>
        <time>2017-10-28T08:54:27Z</time>
      </trkpt>
      <trkpt lat="44.15326" lon="6.83862">
        <ele>1431.3919677734</ele>
        <time>2017-10-28T08:54:32Z</time>
      </trkpt>
      <trkpt lat="44.15334" lon="6.8386">
        <ele>1432.3919677734</ele>
        <time>2017-10-28T08:54:37Z</time>
      </trkpt>
      <trkpt lat="44.15349" lon="6.83856">
        <ele>1434.3919677734</ele>
        <time>2017-10-28T08:54:48Z</time>
      </trkpt>
      <trkpt lat="44.15364" lon="6.83859">
        <ele>1434.3919677734</ele>
        <time>2017-10-28T08:54:57Z</time>
      </trkpt>
      <trkpt lat="44.15372" lon="6.83864">
        <ele>1435.3919677734</ele>
        <time>2017-10-28T08:55:02Z</time>
      </trkpt>
      <trkpt lat="44.15386" lon="6.83876">
        <ele>1437.3919677734</ele>
        <time>2017-10-28T08:55:10Z</time>
      </trkpt>
      <trkpt lat="44.154" lon="6.83883">
        <ele>1438.3919677734</ele>
        <time>2017-10-28T08:55:16Z</time>
      </trkpt>
      <trkpt lat="44.15415" lon="6.83883">
        <ele>1440.3919677734</ele>
        <time>2017-10-28T08:55:22Z</time>
      </trkpt>
      <trkpt lat="44.15432" lon="6.8388">
        <ele>1440.3919677734</ele>
        <time>2017-10-28T08:55:29Z</time>
      </trkpt>
      <trkpt lat="44.15447" lon="6.83879">
        <ele>1442.3919677734</ele>
        <time>2017-10-28T08:55:36Z</time>
      </trkpt>
      <trkpt lat="44.15463" lon="6.83881">
        <ele>1442.3919677734</ele>
        <time>2017-10-28T08:55:44Z</time>
      </trkpt>
      <trkpt lat="44.15479" lon="6.83882">
        <ele>1443.3919677734</ele>
        <time>2017-10-28T08:55:51Z</time>
      </trkpt>
      <trkpt lat="44.15496" lon="6.83878">
        <ele>1443.3919677734</ele>
        <time>2017-10-28T08:55:59Z</time>
      </trkpt>
      <trkpt lat="44.15505" lon="6.83876">
        <ele>1442.3919677734</ele>
        <time>2017-10-28T08:56:03Z</time>
      </trkpt>
      <trkpt lat="44.15522" lon="6.83876">
        <ele>1445.3919677734</ele>
        <time>2017-10-28T08:56:10Z</time>
      </trkpt>
      <trkpt lat="44.15537" lon="6.83878">
        <ele>1445.3919677734</ele>
        <time>2017-10-28T08:56:16Z</time>
      </trkpt>
      <trkpt lat="44.15555" lon="6.83876">
        <ele>1447.3919677734</ele>
        <time>2017-10-28T08:56:24Z</time>
      </trkpt>
      <trkpt lat="44.15572" lon="6.83872">
        <ele>1451.3919677734</ele>
        <time>2017-10-28T08:56:32Z</time>
      </trkpt>
      <trkpt lat="44.15579" lon="6.83868">
        <ele>1449.3919677734</ele>
        <time>2017-10-28T08:56:36Z</time>
      </trkpt>
      <trkpt lat="44.15587" lon="6.83863">
        <ele>1450.3919677734</ele>
        <time>2017-10-28T08:56:41Z</time>
      </trkpt>
      <trkpt lat="44.15597" lon="6.83848">
        <ele>1449.3919677734</ele>
        <time>2017-10-28T08:56:49Z</time>
      </trkpt>
      <trkpt lat="44.15603" lon="6.83838">
        <ele>1450.3919677734</ele>
        <time>2017-10-28T08:56:54Z</time>
      </trkpt>
      <trkpt lat="44.15608" lon="6.83828">
        <ele>1452.3919677734</ele>
        <time>2017-10-28T08:56:59Z</time>
      </trkpt>
      <trkpt lat="44.15612" lon="6.8382">
        <ele>1453.3919677734</ele>
        <time>2017-10-28T08:57:04Z</time>
      </trkpt>
      <trkpt lat="44.15616" lon="6.83812">
        <ele>1454.3919677734</ele>
        <time>2017-10-28T08:57:09Z</time>
      </trkpt>
      <trkpt lat="44.15622" lon="6.83805">
        <ele>1454.3919677734</ele>
        <time>2017-10-28T08:57:14Z</time>
      </trkpt>
      <trkpt lat="44.15628" lon="6.83797">
        <ele>1454.3919677734</ele>
        <time>2017-10-28T08:57:19Z</time>
      </trkpt>
      <trkpt lat="44.15638" lon="6.8378">
        <ele>1455.3919677734</ele>
        <time>2017-10-28T08:57:27Z</time>
      </trkpt>
      <trkpt lat="44.15641" lon="6.8377">
        <ele>1457.3919677734</ele>
        <time>2017-10-28T08:57:33Z</time>
      </trkpt>
      <trkpt lat="44.15644" lon="6.8376">
        <ele>1458.3919677734</ele>
        <time>2017-10-28T08:57:38Z</time>
      </trkpt>
      <trkpt lat="44.15647" lon="6.83749">
        <ele>1461.3919677734</ele>
        <time>2017-10-28T08:57:44Z</time>
      </trkpt>
      <trkpt lat="44.15647" lon="6.83727">
        <ele>1460.3919677734</ele>
        <time>2017-10-28T08:57:53Z</time>
      </trkpt>
      <trkpt lat="44.15649" lon="6.83716">
        <ele>1460.3919677734</ele>
        <time>2017-10-28T08:57:58Z</time>
      </trkpt>
      <trkpt lat="44.15652" lon="6.83706">
        <ele>1460.3919677734</ele>
        <time>2017-10-28T08:58:03Z</time>
      </trkpt>
      <trkpt lat="44.15658" lon="6.83698">
        <ele>1461.3919677734</ele>
        <time>2017-10-28T08:58:08Z</time>
      </trkpt>
      <trkpt lat="44.15662" lon="6.8369">
        <ele>1462.3919677734</ele>
        <time>2017-10-28T08:58:13Z</time>
      </trkpt>
      <trkpt lat="44.15666" lon="6.83681">
        <ele>1463.3919677734</ele>
        <time>2017-10-28T08:58:18Z</time>
      </trkpt>
      <trkpt lat="44.15672" lon="6.83673">
        <ele>1461.3919677734</ele>
        <time>2017-10-28T08:58:23Z</time>
      </trkpt>
      <trkpt lat="44.15676" lon="6.83665">
        <ele>1462.3919677734</ele>
        <time>2017-10-28T08:58:28Z</time>
      </trkpt>
      <trkpt lat="44.15682" lon="6.83656">
        <ele>1462.3919677734</ele>
        <time>2017-10-28T08:58:34Z</time>
      </trkpt>
      <trkpt lat="44.15687" lon="6.83648">
        <ele>1463.3919677734</ele>
        <time>2017-10-28T08:58:39Z</time>
      </trkpt>
      <trkpt lat="44.15688" lon="6.83637">
        <ele>1465.3919677734</ele>
        <time>2017-10-28T08:58:44Z</time>
      </trkpt>
      <trkpt lat="44.15697" lon="6.8362">
        <ele>1466.3919677734</ele>
        <time>2017-10-28T08:58:52Z</time>
      </trkpt>
      <trkpt lat="44.15709" lon="6.83604">
        <ele>1468.3919677734</ele>
        <time>2017-10-28T08:59:00Z</time>
      </trkpt>
      <trkpt lat="44.15717" lon="6.83598">
        <ele>1469.3919677734</ele>
        <time>2017-10-28T08:59:05Z</time>
      </trkpt>
      <trkpt lat="44.15727" lon="6.83582">
        <ele>1468.3919677734</ele>
        <time>2017-10-28T08:59:14Z</time>
      </trkpt>
      <trkpt lat="44.15731" lon="6.83574">
        <ele>1467.3919677734</ele>
        <time>2017-10-28T08:59:19Z</time>
      </trkpt>
      <trkpt lat="44.15739" lon="6.8357">
        <ele>1471.3919677734</ele>
        <time>2017-10-28T08:59:25Z</time>
      </trkpt>
      <trkpt lat="44.15746" lon="6.83574">
        <ele>1475.3919677734</ele>
        <time>2017-10-28T08:59:30Z</time>
      </trkpt>
      <trkpt lat="44.1575" lon="6.83583">
        <ele>1476.3919677734</ele>
        <time>2017-10-28T08:59:35Z</time>
      </trkpt>
      <trkpt lat="44.1575" lon="6.83594">
        <ele>1478.3919677734</ele>
        <time>2017-10-28T08:59:40Z</time>
      </trkpt>
      <trkpt lat="44.15751" lon="6.83605">
        <ele>1478.3919677734</ele>
        <time>2017-10-28T08:59:46Z</time>
      </trkpt>
      <trkpt lat="44.15747" lon="6.83615">
        <ele>1477.3919677734</ele>
        <time>2017-10-28T08:59:53Z</time>
      </trkpt>
      <trkpt lat="44.15746" lon="6.83626">
        <ele>1477.3919677734</ele>
        <time>2017-10-28T08:59:58Z</time>
      </trkpt>
      <trkpt lat="44.15744" lon="6.83647">
        <ele>1477.3919677734</ele>
        <time>2017-10-28T09:00:08Z</time>
      </trkpt>
      <trkpt lat="44.15743" lon="6.83657">
        <ele>1478.3919677734</ele>
        <time>2017-10-28T09:00:13Z</time>
      </trkpt>
      <trkpt lat="44.15743" lon="6.83669">
        <ele>1480.3919677734</ele>
        <time>2017-10-28T09:00:19Z</time>
      </trkpt>
      <trkpt lat="44.15745" lon="6.83681">
        <ele>1481.3919677734</ele>
        <time>2017-10-28T09:00:24Z</time>
      </trkpt>
      <trkpt lat="44.1575" lon="6.83701">
        <ele>1483.3919677734</ele>
        <time>2017-10-28T09:00:34Z</time>
      </trkpt>
      <trkpt lat="44.15753" lon="6.83712">
        <ele>1485.3919677734</ele>
        <time>2017-10-28T09:00:39Z</time>
      </trkpt>
      <trkpt lat="44.15758" lon="6.83721">
        <ele>1486.3919677734</ele>
        <time>2017-10-28T09:01:01Z</time>
      </trkpt>
      <trkpt lat="44.15767" lon="6.83739">
        <ele>1485.3919677734</ele>
        <time>2017-10-28T09:01:09Z</time>
      </trkpt>
      <trkpt lat="44.15772" lon="6.83748">
        <ele>1487.3919677734</ele>
        <time>2017-10-28T09:01:14Z</time>
      </trkpt>
      <trkpt lat="44.15777" lon="6.83757">
        <ele>1486.3919677734</ele>
        <time>2017-10-28T09:01:20Z</time>
      </trkpt>
      <trkpt lat="44.15783" lon="6.83766">
        <ele>1485.3919677734</ele>
        <time>2017-10-28T09:01:26Z</time>
      </trkpt>
      <trkpt lat="44.15794" lon="6.8378">
        <ele>1485.3929443359</ele>
        <time>2017-10-28T09:01:36Z</time>
      </trkpt>
      <trkpt lat="44.15797" lon="6.8379">
        <ele>1487.3929443359</ele>
        <time>2017-10-28T09:01:40Z</time>
      </trkpt>
      <trkpt lat="44.15804" lon="6.8381">
        <ele>1488.3929443359</ele>
        <time>2017-10-28T09:01:49Z</time>
      </trkpt>
      <trkpt lat="44.15808" lon="6.83819">
        <ele>1486.3929443359</ele>
        <time>2017-10-28T09:01:55Z</time>
      </trkpt>
      <trkpt lat="44.15814" lon="6.83838">
        <ele>1490.3929443359</ele>
        <time>2017-10-28T09:02:03Z</time>
      </trkpt>
      <trkpt lat="44.1582" lon="6.83861">
        <ele>1494.3929443359</ele>
        <time>2017-10-28T09:02:11Z</time>
      </trkpt>
      <trkpt lat="44.15826" lon="6.83884">
        <ele>1494.3929443359</ele>
        <time>2017-10-28T09:02:20Z</time>
      </trkpt>
      <trkpt lat="44.15829" lon="6.83896">
        <ele>1496.3929443359</ele>
        <time>2017-10-28T09:02:25Z</time>
      </trkpt>
      <trkpt lat="44.15835" lon="6.83917">
        <ele>1493.3929443359</ele>
        <time>2017-10-28T09:02:33Z</time>
      </trkpt>
      <trkpt lat="44.1584" lon="6.83937">
        <ele>1493.3929443359</ele>
        <time>2017-10-28T09:02:41Z</time>
      </trkpt>
      <trkpt lat="44.15844" lon="6.83947">
        <ele>1496.3929443359</ele>
        <time>2017-10-28T09:02:46Z</time>
      </trkpt>
      <trkpt lat="44.15857" lon="6.83959">
        <ele>1497.3929443359</ele>
        <time>2017-10-28T09:02:55Z</time>
      </trkpt>
      <trkpt lat="44.15871" lon="6.83969">
        <ele>1498.3929443359</ele>
        <time>2017-10-28T09:03:03Z</time>
      </trkpt>
      <trkpt lat="44.15878" lon="6.83976">
        <ele>1501.3929443359</ele>
        <time>2017-10-28T09:03:08Z</time>
      </trkpt>
      <trkpt lat="44.15892" lon="6.83986">
        <ele>1505.3929443359</ele>
        <time>2017-10-28T09:03:16Z</time>
      </trkpt>
      <trkpt lat="44.15899" lon="6.83992">
        <ele>1507.3929443359</ele>
        <time>2017-10-28T09:03:21Z</time>
      </trkpt>
      <trkpt lat="44.15915" lon="6.83988">
        <ele>1507.3929443359</ele>
        <time>2017-10-28T09:03:30Z</time>
      </trkpt>
      <trkpt lat="44.15923" lon="6.83983">
        <ele>1506.3929443359</ele>
        <time>2017-10-28T09:03:35Z</time>
      </trkpt>
      <trkpt lat="44.15931" lon="6.8398">
        <ele>1507.3929443359</ele>
        <time>2017-10-28T09:03:41Z</time>
      </trkpt>
      <trkpt lat="44.15939" lon="6.83975">
        <ele>1506.3929443359</ele>
        <time>2017-10-28T09:03:46Z</time>
      </trkpt>
      <trkpt lat="44.15953" lon="6.83966">
        <ele>1505.3929443359</ele>
        <time>2017-10-28T09:03:54Z</time>
      </trkpt>
      <trkpt lat="44.15962" lon="6.8396">
        <ele>1507.3929443359</ele>
        <time>2017-10-28T09:04:00Z</time>
      </trkpt>
      <trkpt lat="44.15975" lon="6.8395">
        <ele>1509.3929443359</ele>
        <time>2017-10-28T09:04:09Z</time>
      </trkpt>
      <trkpt lat="44.15982" lon="6.83943">
        <ele>1510.3929443359</ele>
        <time>2017-10-28T09:04:14Z</time>
      </trkpt>
      <trkpt lat="44.15988" lon="6.83937">
        <ele>1509.3929443359</ele>
        <time>2017-10-28T09:04:18Z</time>
      </trkpt>
      <trkpt lat="44.15995" lon="6.83933">
        <ele>1509.3929443359</ele>
        <time>2017-10-28T09:04:23Z</time>
      </trkpt>
      <trkpt lat="44.16003" lon="6.8393">
        <ele>1510.3929443359</ele>
        <time>2017-10-28T09:04:28Z</time>
      </trkpt>
      <trkpt lat="44.1601" lon="6.83928">
        <ele>1513.3929443359</ele>
        <time>2017-10-28T09:04:33Z</time>
      </trkpt>
      <trkpt lat="44.16026" lon="6.8392">
        <ele>1516.3929443359</ele>
        <time>2017-10-28T09:04:42Z</time>
      </trkpt>
      <trkpt lat="44.16039" lon="6.8391">
        <ele>1514.3929443359</ele>
        <time>2017-10-28T09:04:51Z</time>
      </trkpt>
      <trkpt lat="44.16046" lon="6.83903">
        <ele>1516.3929443359</ele>
        <time>2017-10-28T09:04:56Z</time>
      </trkpt>
      <trkpt lat="44.16061" lon="6.83898">
        <ele>1520.3929443359</ele>
        <time>2017-10-28T09:05:05Z</time>
      </trkpt>
      <trkpt lat="44.16076" lon="6.83891">
        <ele>1523.3929443359</ele>
        <time>2017-10-28T09:05:15Z</time>
      </trkpt>
      <trkpt lat="44.16083" lon="6.83885">
        <ele>1522.3929443359</ele>
        <time>2017-10-28T09:05:20Z</time>
      </trkpt>
      <trkpt lat="44.1609" lon="6.8388">
        <ele>1520.3929443359</ele>
        <time>2017-10-28T09:05:25Z</time>
      </trkpt>
      <trkpt lat="44.16098" lon="6.83882">
        <ele>1522.3929443359</ele>
        <time>2017-10-28T09:05:30Z</time>
      </trkpt>
      <trkpt lat="44.16104" lon="6.83889">
        <ele>1523.3929443359</ele>
        <time>2017-10-28T09:05:35Z</time>
      </trkpt>
      <trkpt lat="44.1611" lon="6.83899">
        <ele>1523.3929443359</ele>
        <time>2017-10-28T09:05:40Z</time>
      </trkpt>
      <trkpt lat="44.16118" lon="6.83918">
        <ele>1525.3929443359</ele>
        <time>2017-10-28T09:05:48Z</time>
      </trkpt>
      <trkpt lat="44.16122" lon="6.83939">
        <ele>1529.3929443359</ele>
        <time>2017-10-28T09:05:56Z</time>
      </trkpt>
      <trkpt lat="44.16125" lon="6.83949">
        <ele>1528.3929443359</ele>
        <time>2017-10-28T09:06:01Z</time>
      </trkpt>
      <trkpt lat="44.16127" lon="6.83959">
        <ele>1529.3929443359</ele>
        <time>2017-10-28T09:06:06Z</time>
      </trkpt>
      <trkpt lat="44.16127" lon="6.8397">
        <ele>1529.3929443359</ele>
        <time>2017-10-28T09:06:11Z</time>
      </trkpt>
      <trkpt lat="44.16126" lon="6.83981">
        <ele>1530.3929443359</ele>
        <time>2017-10-28T09:06:16Z</time>
      </trkpt>
      <trkpt lat="44.16127" lon="6.83993">
        <ele>1529.3929443359</ele>
        <time>2017-10-28T09:06:23Z</time>
      </trkpt>
      <trkpt lat="44.16125" lon="6.84004">
        <ele>1528.3929443359</ele>
        <time>2017-10-28T09:06:29Z</time>
      </trkpt>
      <trkpt lat="44.16124" lon="6.84025">
        <ele>1530.3940429688</ele>
        <time>2017-10-28T09:06:38Z</time>
      </trkpt>
      <trkpt lat="44.16128" lon="6.84046">
        <ele>1529.3940429688</ele>
        <time>2017-10-28T09:06:47Z</time>
      </trkpt>
      <trkpt lat="44.16132" lon="6.84058">
        <ele>1530.3940429688</ele>
        <time>2017-10-28T09:06:52Z</time>
      </trkpt>
      <trkpt lat="44.16138" lon="6.84081">
        <ele>1531.3940429688</ele>
        <time>2017-10-28T09:07:01Z</time>
      </trkpt>
      <trkpt lat="44.16141" lon="6.8409">
        <ele>1530.3940429688</ele>
        <time>2017-10-28T09:07:05Z</time>
      </trkpt>
      <trkpt lat="44.16142" lon="6.84103">
        <ele>1531.3940429688</ele>
        <time>2017-10-28T09:07:11Z</time>
      </trkpt>
      <trkpt lat="44.16143" lon="6.84124">
        <ele>1532.3940429688</ele>
        <time>2017-10-28T09:07:21Z</time>
      </trkpt>
      <trkpt lat="44.16143" lon="6.84135">
        <ele>1533.3940429688</ele>
        <time>2017-10-28T09:07:26Z</time>
      </trkpt>
      <trkpt lat="44.16146" lon="6.84146">
        <ele>1535.3940429688</ele>
        <time>2017-10-28T09:07:31Z</time>
      </trkpt>
      <trkpt lat="44.16151" lon="6.84154">
        <ele>1537.3940429688</ele>
        <time>2017-10-28T09:07:37Z</time>
      </trkpt>
      <trkpt lat="44.16158" lon="6.84158">
        <ele>1536.3940429688</ele>
        <time>2017-10-28T09:07:42Z</time>
      </trkpt>
      <trkpt lat="44.16174" lon="6.84166">
        <ele>1539.3940429688</ele>
        <time>2017-10-28T09:07:50Z</time>
      </trkpt>
      <trkpt lat="44.16189" lon="6.84164">
        <ele>1539.3940429688</ele>
        <time>2017-10-28T09:07:58Z</time>
      </trkpt>
      <trkpt lat="44.16204" lon="6.84167">
        <ele>1539.3940429688</ele>
        <time>2017-10-28T09:08:07Z</time>
      </trkpt>
      <trkpt lat="44.16211" lon="6.84172">
        <ele>1539.3940429688</ele>
        <time>2017-10-28T09:08:12Z</time>
      </trkpt>
      <trkpt lat="44.16218" lon="6.84174">
        <ele>1540.3940429688</ele>
        <time>2017-10-28T09:08:17Z</time>
      </trkpt>
      <trkpt lat="44.16233" lon="6.84176">
        <ele>1541.3940429688</ele>
        <time>2017-10-28T09:08:24Z</time>
      </trkpt>
      <trkpt lat="44.16241" lon="6.84175">
        <ele>1541.3940429688</ele>
        <time>2017-10-28T09:08:29Z</time>
      </trkpt>
      <trkpt lat="44.16256" lon="6.84165">
        <ele>1542.3940429688</ele>
        <time>2017-10-28T09:08:38Z</time>
      </trkpt>
      <trkpt lat="44.16264" lon="6.84161">
        <ele>1545.3940429688</ele>
        <time>2017-10-28T09:08:43Z</time>
      </trkpt>
      <trkpt lat="44.16279" lon="6.84148">
        <ele>1547.3940429688</ele>
        <time>2017-10-28T09:08:50Z</time>
      </trkpt>
      <trkpt lat="44.16286" lon="6.84142">
        <ele>1547.3940429688</ele>
        <time>2017-10-28T09:08:55Z</time>
      </trkpt>
      <trkpt lat="44.16294" lon="6.84137">
        <ele>1549.3940429688</ele>
        <time>2017-10-28T09:09:00Z</time>
      </trkpt>
      <trkpt lat="44.16302" lon="6.84137">
        <ele>1554.3940429688</ele>
        <time>2017-10-28T09:09:05Z</time>
      </trkpt>
      <trkpt lat="44.1631" lon="6.84133">
        <ele>1553.3940429688</ele>
        <time>2017-10-28T09:09:10Z</time>
      </trkpt>
      <trkpt lat="44.16318" lon="6.84133">
        <ele>1554.3940429688</ele>
        <time>2017-10-28T09:09:15Z</time>
      </trkpt>
      <trkpt lat="44.16334" lon="6.84138">
        <ele>1557.3940429688</ele>
        <time>2017-10-28T09:09:24Z</time>
      </trkpt>
      <trkpt lat="44.16341" lon="6.84143">
        <ele>1559.3940429688</ele>
        <time>2017-10-28T09:09:30Z</time>
      </trkpt>
      <trkpt lat="44.16346" lon="6.84152">
        <ele>1557.3940429688</ele>
        <time>2017-10-28T09:09:35Z</time>
      </trkpt>
      <trkpt lat="44.16357" lon="6.84172">
        <ele>1556.3940429688</ele>
        <time>2017-10-28T09:09:43Z</time>
      </trkpt>
      <trkpt lat="44.16369" lon="6.84187">
        <ele>1557.3940429688</ele>
        <time>2017-10-28T09:09:51Z</time>
      </trkpt>
      <trkpt lat="44.16375" lon="6.84196">
        <ele>1558.3940429688</ele>
        <time>2017-10-28T09:09:56Z</time>
      </trkpt>
      <trkpt lat="44.16382" lon="6.84204">
        <ele>1558.3940429688</ele>
        <time>2017-10-28T09:10:02Z</time>
      </trkpt>
      <trkpt lat="44.16389" lon="6.84209">
        <ele>1559.3940429688</ele>
        <time>2017-10-28T09:10:07Z</time>
      </trkpt>
      <trkpt lat="44.16398" lon="6.84213">
        <ele>1559.3940429688</ele>
        <time>2017-10-28T09:10:12Z</time>
      </trkpt>
      <trkpt lat="44.16412" lon="6.84214">
        <ele>1562.3940429688</ele>
        <time>2017-10-28T09:10:22Z</time>
      </trkpt>
      <trkpt lat="44.16421" lon="6.84216">
        <ele>1563.3940429688</ele>
        <time>2017-10-28T09:10:28Z</time>
      </trkpt>
      <trkpt lat="44.16436" lon="6.84222">
        <ele>1562.3940429688</ele>
        <time>2017-10-28T09:10:37Z</time>
      </trkpt>
      <trkpt lat="44.16443" lon="6.84225">
        <ele>1565.3940429688</ele>
        <time>2017-10-28T09:10:43Z</time>
      </trkpt>
      <trkpt lat="44.16457" lon="6.84233">
        <ele>1566.3940429688</ele>
        <time>2017-10-28T09:10:52Z</time>
      </trkpt>
      <trkpt lat="44.16466" lon="6.84233">
        <ele>1568.3940429688</ele>
        <time>2017-10-28T09:10:58Z</time>
      </trkpt>
      <trkpt lat="44.16474" lon="6.84235">
        <ele>1571.3940429688</ele>
        <time>2017-10-28T09:11:04Z</time>
      </trkpt>
      <trkpt lat="44.16481" lon="6.84238">
        <ele>1571.3940429688</ele>
        <time>2017-10-28T09:11:09Z</time>
      </trkpt>
      <trkpt lat="44.16488" lon="6.84243">
        <ele>1571.3950195312</ele>
        <time>2017-10-28T09:11:14Z</time>
      </trkpt>
      <trkpt lat="44.16495" lon="6.84247">
        <ele>1571.3950195312</ele>
        <time>2017-10-28T09:11:20Z</time>
      </trkpt>
      <trkpt lat="44.16503" lon="6.84251">
        <ele>1571.3950195312</ele>
        <time>2017-10-28T09:11:25Z</time>
      </trkpt>
      <trkpt lat="44.1651" lon="6.84251">
        <ele>1574.3950195312</ele>
        <time>2017-10-28T09:11:30Z</time>
      </trkpt>
      <trkpt lat="44.16519" lon="6.84249">
        <ele>1572.3950195312</ele>
        <time>2017-10-28T09:11:35Z</time>
      </trkpt>
      <trkpt lat="44.16527" lon="6.84248">
        <ele>1572.3950195312</ele>
        <time>2017-10-28T09:11:40Z</time>
      </trkpt>
      <trkpt lat="44.16535" lon="6.84246">
        <ele>1572.3950195312</ele>
        <time>2017-10-28T09:11:45Z</time>
      </trkpt>
      <trkpt lat="44.16544" lon="6.84246">
        <ele>1575.3950195312</ele>
        <time>2017-10-28T09:11:51Z</time>
      </trkpt>
      <trkpt lat="44.1655" lon="6.84243">
        <ele>1577.3950195312</ele>
        <time>2017-10-28T09:11:56Z</time>
      </trkpt>
      <trkpt lat="44.16559" lon="6.8424">
        <ele>1578.3950195312</ele>
        <time>2017-10-28T09:12:02Z</time>
      </trkpt>
      <trkpt lat="44.16574" lon="6.84233">
        <ele>1579.3950195312</ele>
        <time>2017-10-28T09:12:12Z</time>
      </trkpt>
      <trkpt lat="44.1658" lon="6.84227">
        <ele>1579.3950195312</ele>
        <time>2017-10-28T09:12:18Z</time>
      </trkpt>
      <trkpt lat="44.16589" lon="6.84224">
        <ele>1581.3950195312</ele>
        <time>2017-10-28T09:12:23Z</time>
      </trkpt>
      <trkpt lat="44.16596" lon="6.84219">
        <ele>1582.3950195312</ele>
        <time>2017-10-28T09:12:28Z</time>
      </trkpt>
      <trkpt lat="44.16602" lon="6.84214">
        <ele>1581.3950195312</ele>
        <time>2017-10-28T09:12:31Z</time>
      </trkpt>
      <trkpt lat="44.16621" lon="6.84207">
        <ele>1583.3950195312</ele>
        <time>2017-10-28T09:12:39Z</time>
      </trkpt>
      <trkpt lat="44.16628" lon="6.84202">
        <ele>1584.3950195312</ele>
        <time>2017-10-28T09:12:44Z</time>
      </trkpt>
      <trkpt lat="44.16646" lon="6.84196">
        <ele>1586.3950195312</ele>
        <time>2017-10-28T09:12:53Z</time>
      </trkpt>
      <trkpt lat="44.1666" lon="6.84188">
        <ele>1588.3950195312</ele>
        <time>2017-10-28T09:13:03Z</time>
      </trkpt>
      <trkpt lat="44.16666" lon="6.84182">
        <ele>1590.3950195312</ele>
        <time>2017-10-28T09:13:09Z</time>
      </trkpt>
      <trkpt lat="44.16674" lon="6.84178">
        <ele>1591.3950195312</ele>
        <time>2017-10-28T09:13:15Z</time>
      </trkpt>
      <trkpt lat="44.16682" lon="6.84176">
        <ele>1592.3950195312</ele>
        <time>2017-10-28T09:13:21Z</time>
      </trkpt>
      <trkpt lat="44.1669" lon="6.84179">
        <ele>1595.3950195312</ele>
        <time>2017-10-28T09:13:27Z</time>
      </trkpt>
      <trkpt lat="44.16698" lon="6.84181">
        <ele>1591.3950195312</ele>
        <time>2017-10-28T09:13:32Z</time>
      </trkpt>
      <trkpt lat="44.16711" lon="6.8419">
        <ele>1591.3950195312</ele>
        <time>2017-10-28T09:13:41Z</time>
      </trkpt>
      <trkpt lat="44.16718" lon="6.84196">
        <ele>1591.3950195312</ele>
        <time>2017-10-28T09:13:48Z</time>
      </trkpt>
      <trkpt lat="44.16725" lon="6.84201">
        <ele>1593.3950195312</ele>
        <time>2017-10-28T09:13:55Z</time>
      </trkpt>
      <trkpt lat="44.16732" lon="6.84203">
        <ele>1594.3950195312</ele>
        <time>2017-10-28T09:14:02Z</time>
      </trkpt>
      <trkpt lat="44.1674" lon="6.84204">
        <ele>1595.3950195312</ele>
        <time>2017-10-28T09:14:53Z</time>
      </trkpt>
      <trkpt lat="44.16757" lon="6.8421">
        <ele>1596.3950195312</ele>
        <time>2017-10-28T09:15:01Z</time>
      </trkpt>
      <trkpt lat="44.1677" lon="6.84222">
        <ele>1597.3950195312</ele>
        <time>2017-10-28T09:15:10Z</time>
      </trkpt>
      <trkpt lat="44.16784" lon="6.84232">
        <ele>1598.3950195312</ele>
        <time>2017-10-28T09:15:20Z</time>
      </trkpt>
      <trkpt lat="44.16799" lon="6.84242">
        <ele>1599.3950195312</ele>
        <time>2017-10-28T09:15:30Z</time>
      </trkpt>
      <trkpt lat="44.16806" lon="6.84249">
        <ele>1600.3950195312</ele>
        <time>2017-10-28T09:15:35Z</time>
      </trkpt>
      <trkpt lat="44.16813" lon="6.84255">
        <ele>1599.3950195312</ele>
        <time>2017-10-28T09:15:42Z</time>
      </trkpt>
      <trkpt lat="44.16819" lon="6.84263">
        <ele>1600.3950195312</ele>
        <time>2017-10-28T09:15:47Z</time>
      </trkpt>
      <trkpt lat="44.16823" lon="6.84273">
        <ele>1600.3950195312</ele>
        <time>2017-10-28T09:15:52Z</time>
      </trkpt>
      <trkpt lat="44.16831" lon="6.84293">
        <ele>1601.3950195312</ele>
        <time>2017-10-28T09:16:01Z</time>
      </trkpt>
      <trkpt lat="44.16835" lon="6.84303">
        <ele>1602.3950195312</ele>
        <time>2017-10-28T09:16:06Z</time>
      </trkpt>
      <trkpt lat="44.16841" lon="6.84323">
        <ele>1605.3950195312</ele>
        <time>2017-10-28T09:16:16Z</time>
      </trkpt>
      <trkpt lat="44.16845" lon="6.84333">
        <ele>1606.3950195312</ele>
        <time>2017-10-28T09:16:22Z</time>
      </trkpt>
      <trkpt lat="44.16847" lon="6.84344">
        <ele>1607.3950195312</ele>
        <time>2017-10-28T09:16:28Z</time>
      </trkpt>
      <trkpt lat="44.16849" lon="6.84354">
        <ele>1610.3950195312</ele>
        <time>2017-10-28T09:16:33Z</time>
      </trkpt>
      <trkpt lat="44.16852" lon="6.84365">
        <ele>1609.3950195312</ele>
        <time>2017-10-28T09:16:39Z</time>
      </trkpt>
      <trkpt lat="44.16864" lon="6.84375">
        <ele>1609.3950195312</ele>
        <time>2017-10-28T09:16:49Z</time>
      </trkpt>
      <trkpt lat="44.16872" lon="6.84375">
        <ele>1611.3950195312</ele>
        <time>2017-10-28T09:16:55Z</time>
      </trkpt>
      <trkpt lat="44.16879" lon="6.84373">
        <ele>1611.3950195312</ele>
        <time>2017-10-28T09:17:00Z</time>
      </trkpt>
      <trkpt lat="44.16887" lon="6.8437">
        <ele>1611.3950195312</ele>
        <time>2017-10-28T09:17:05Z</time>
      </trkpt>
      <trkpt lat="44.16894" lon="6.84367">
        <ele>1612.3950195312</ele>
        <time>2017-10-28T09:17:10Z</time>
      </trkpt>
      <trkpt lat="44.16901" lon="6.84362">
        <ele>1615.3950195312</ele>
        <time>2017-10-28T09:17:16Z</time>
      </trkpt>
      <trkpt lat="44.16908" lon="6.84355">
        <ele>1616.3950195312</ele>
        <time>2017-10-28T09:17:21Z</time>
      </trkpt>
      <trkpt lat="44.16915" lon="6.84349">
        <ele>1617.3950195312</ele>
        <time>2017-10-28T09:17:26Z</time>
      </trkpt>
      <trkpt lat="44.16922" lon="6.84344">
        <ele>1616.3950195312</ele>
        <time>2017-10-28T09:17:31Z</time>
      </trkpt>
      <trkpt lat="44.16937" lon="6.84341">
        <ele>1620.3950195312</ele>
        <time>2017-10-28T09:17:40Z</time>
      </trkpt>
      <trkpt lat="44.16945" lon="6.84343">
        <ele>1619.3950195312</ele>
        <time>2017-10-28T09:17:45Z</time>
      </trkpt>
      <trkpt lat="44.16951" lon="6.84348">
        <ele>1620.3950195312</ele>
        <time>2017-10-28T09:17:50Z</time>
      </trkpt>
      <trkpt lat="44.16959" lon="6.8435">
        <ele>1620.3950195312</ele>
        <time>2017-10-28T09:17:55Z</time>
      </trkpt>
      <trkpt lat="44.16967" lon="6.84351">
        <ele>1623.3950195312</ele>
        <time>2017-10-28T09:18:00Z</time>
      </trkpt>
      <trkpt lat="44.16975" lon="6.84357">
        <ele>1620.3959960938</ele>
        <time>2017-10-28T09:18:06Z</time>
      </trkpt>
      <trkpt lat="44.16984" lon="6.84358">
        <ele>1621.3959960938</ele>
        <time>2017-10-28T09:18:11Z</time>
      </trkpt>
      <trkpt lat="44.16992" lon="6.84359">
        <ele>1622.3959960938</ele>
        <time>2017-10-28T09:18:16Z</time>
      </trkpt>
      <trkpt lat="44.17" lon="6.84358">
        <ele>1624.3959960938</ele>
        <time>2017-10-28T09:18:21Z</time>
      </trkpt>
      <trkpt lat="44.17016" lon="6.84357">
        <ele>1625.3959960938</ele>
        <time>2017-10-28T09:18:30Z</time>
      </trkpt>
      <trkpt lat="44.17031" lon="6.84362">
        <ele>1628.3959960938</ele>
        <time>2017-10-28T09:18:38Z</time>
      </trkpt>
      <trkpt lat="44.17039" lon="6.84367">
        <ele>1627.3959960938</ele>
        <time>2017-10-28T09:18:43Z</time>
      </trkpt>
      <trkpt lat="44.17044" lon="6.84377">
        <ele>1629.3959960938</ele>
        <time>2017-10-28T09:18:49Z</time>
      </trkpt>
      <trkpt lat="44.17048" lon="6.84385">
        <ele>1629.3959960938</ele>
        <time>2017-10-28T09:18:54Z</time>
      </trkpt>
      <trkpt lat="44.17055" lon="6.84393">
        <ele>1629.3959960938</ele>
        <time>2017-10-28T09:18:59Z</time>
      </trkpt>
      <trkpt lat="44.17061" lon="6.844">
        <ele>1630.3959960938</ele>
        <time>2017-10-28T09:19:04Z</time>
      </trkpt>
      <trkpt lat="44.17075" lon="6.84404">
        <ele>1631.3959960938</ele>
        <time>2017-10-28T09:19:14Z</time>
      </trkpt>
      <trkpt lat="44.17082" lon="6.84399">
        <ele>1632.3959960938</ele>
        <time>2017-10-28T09:19:19Z</time>
      </trkpt>
      <trkpt lat="44.17097" lon="6.84394">
        <ele>1632.3959960938</ele>
        <time>2017-10-28T09:19:27Z</time>
      </trkpt>
      <trkpt lat="44.17108" lon="6.84376">
        <ele>1633.3959960938</ele>
        <time>2017-10-28T09:19:36Z</time>
      </trkpt>
      <trkpt lat="44.17111" lon="6.84356">
        <ele>1635.3959960938</ele>
        <time>2017-10-28T09:19:44Z</time>
      </trkpt>
      <trkpt lat="44.17116" lon="6.84336">
        <ele>1637.3959960938</ele>
        <time>2017-10-28T09:19:52Z</time>
      </trkpt>
      <trkpt lat="44.17119" lon="6.84327">
        <ele>1639.3959960938</ele>
        <time>2017-10-28T09:19:57Z</time>
      </trkpt>
      <trkpt lat="44.1712" lon="6.84303">
        <ele>1638.3959960938</ele>
        <time>2017-10-28T09:20:06Z</time>
      </trkpt>
      <trkpt lat="44.17122" lon="6.84292">
        <ele>1640.3959960938</ele>
        <time>2017-10-28T09:20:12Z</time>
      </trkpt>
      <trkpt lat="44.17132" lon="6.84275">
        <ele>1640.3959960938</ele>
        <time>2017-10-28T09:20:22Z</time>
      </trkpt>
      <trkpt lat="44.17139" lon="6.84266">
        <ele>1641.3959960938</ele>
        <time>2017-10-28T09:20:27Z</time>
      </trkpt>
      <trkpt lat="44.17148" lon="6.84263">
        <ele>1642.3959960938</ele>
        <time>2017-10-28T09:20:32Z</time>
      </trkpt>
      <trkpt lat="44.17156" lon="6.84263">
        <ele>1644.3959960938</ele>
        <time>2017-10-28T09:20:38Z</time>
      </trkpt>
      <trkpt lat="44.17164" lon="6.84263">
        <ele>1646.3959960938</ele>
        <time>2017-10-28T09:20:43Z</time>
      </trkpt>
      <trkpt lat="44.17172" lon="6.8426">
        <ele>1647.3959960938</ele>
        <time>2017-10-28T09:20:48Z</time>
      </trkpt>
      <trkpt lat="44.17189" lon="6.84255">
        <ele>1647.3959960938</ele>
        <time>2017-10-28T09:20:57Z</time>
      </trkpt>
      <trkpt lat="44.17207" lon="6.84252">
        <ele>1648.3959960938</ele>
        <time>2017-10-28T09:21:05Z</time>
      </trkpt>
      <trkpt lat="44.17223" lon="6.84246">
        <ele>1647.3959960938</ele>
        <time>2017-10-28T09:21:11Z</time>
      </trkpt>
      <trkpt lat="44.17236" lon="6.84227">
        <ele>1645.3959960938</ele>
        <time>2017-10-28T09:21:18Z</time>
      </trkpt>
      <trkpt lat="44.17244" lon="6.84204">
        <ele>1648.3959960938</ele>
        <time>2017-10-28T09:21:24Z</time>
      </trkpt>
      <trkpt lat="44.17255" lon="6.8419">
        <ele>1648.3959960938</ele>
        <time>2017-10-28T09:21:33Z</time>
      </trkpt>
      <trkpt lat="44.17267" lon="6.84207">
        <ele>1647.3959960938</ele>
        <time>2017-10-28T09:21:40Z</time>
      </trkpt>
      <trkpt lat="44.1727" lon="6.84227">
        <ele>1647.3959960938</ele>
        <time>2017-10-28T09:21:46Z</time>
      </trkpt>
      <trkpt lat="44.17278" lon="6.84233">
        <ele>1645.3959960938</ele>
        <time>2017-10-28T09:21:49Z</time>
      </trkpt>
      <trkpt lat="44.17297" lon="6.84231">
        <ele>1646.3959960938</ele>
        <time>2017-10-28T09:21:55Z</time>
      </trkpt>
      <trkpt lat="44.17313" lon="6.84217">
        <ele>1647.3959960938</ele>
        <time>2017-10-28T09:22:01Z</time>
      </trkpt>
      <trkpt lat="44.17325" lon="6.842">
        <ele>1649.3959960938</ele>
        <time>2017-10-28T09:22:07Z</time>
      </trkpt>
      <trkpt lat="44.17341" lon="6.84183">
        <ele>1649.3959960938</ele>
        <time>2017-10-28T09:22:13Z</time>
      </trkpt>
      <trkpt lat="44.17361" lon="6.84162">
        <ele>1649.3959960938</ele>
        <time>2017-10-28T09:22:20Z</time>
      </trkpt>
      <trkpt lat="44.17376" lon="6.84175">
        <ele>1650.3959960938</ele>
        <time>2017-10-28T09:22:26Z</time>
      </trkpt>
      <trkpt lat="44.17385" lon="6.84199">
        <ele>1650.3959960938</ele>
        <time>2017-10-28T09:22:32Z</time>
      </trkpt>
      <trkpt lat="44.17394" lon="6.8422">
        <ele>1650.3959960938</ele>
        <time>2017-10-28T09:22:38Z</time>
      </trkpt>
      <trkpt lat="44.17408" lon="6.84239">
        <ele>1650.3959960938</ele>
        <time>2017-10-28T09:22:44Z</time>
      </trkpt>
      <trkpt lat="44.17415" lon="6.84242">
        <ele>1651.3959960938</ele>
        <time>2017-10-28T09:26:23Z</time>
      </trkpt>
      <trkpt lat="44.17424" lon="6.84241">
        <ele>1649.3959960938</ele>
        <time>2017-10-28T09:27:07Z</time>
      </trkpt>
      <trkpt lat="44.17441" lon="6.84239">
        <ele>1650.3959960938</ele>
        <time>2017-10-28T09:27:15Z</time>
      </trkpt>
      <trkpt lat="44.17456" lon="6.84245">
        <ele>1651.3959960938</ele>
        <time>2017-10-28T09:27:23Z</time>
      </trkpt>
      <trkpt lat="44.17472" lon="6.84254">
        <ele>1651.3959960938</ele>
        <time>2017-10-28T09:27:31Z</time>
      </trkpt>
      <trkpt lat="44.17481" lon="6.84258">
        <ele>1652.3959960938</ele>
        <time>2017-10-28T09:27:36Z</time>
      </trkpt>
      <trkpt lat="44.17497" lon="6.84267">
        <ele>1650.3959960938</ele>
        <time>2017-10-28T09:27:44Z</time>
      </trkpt>
      <trkpt lat="44.17503" lon="6.84274">
        <ele>1651.3959960938</ele>
        <time>2017-10-28T09:27:48Z</time>
      </trkpt>
      <trkpt lat="44.17515" lon="6.84288">
        <ele>1653.3959960938</ele>
        <time>2017-10-28T09:27:55Z</time>
      </trkpt>
      <trkpt lat="44.17522" lon="6.84293">
        <ele>1653.3959960938</ele>
        <time>2017-10-28T09:27:59Z</time>
      </trkpt>
      <trkpt lat="44.17529" lon="6.843">
        <ele>1652.3959960938</ele>
        <time>2017-10-28T09:28:04Z</time>
      </trkpt>
      <trkpt lat="44.17544" lon="6.84305">
        <ele>1654.3959960938</ele>
        <time>2017-10-28T09:28:12Z</time>
      </trkpt>
      <trkpt lat="44.17553" lon="6.84304">
        <ele>1654.3959960938</ele>
        <time>2017-10-28T09:28:17Z</time>
      </trkpt>
      <trkpt lat="44.1756" lon="6.84299">
        <ele>1655.3959960938</ele>
        <time>2017-10-28T09:28:21Z</time>
      </trkpt>
      <trkpt lat="44.17573" lon="6.84287">
        <ele>1657.3959960938</ele>
        <time>2017-10-28T09:28:30Z</time>
      </trkpt>
      <trkpt lat="44.17581" lon="6.84279">
        <ele>1658.3959960938</ele>
        <time>2017-10-28T09:28:35Z</time>
      </trkpt>
      <trkpt lat="44.17587" lon="6.84271">
        <ele>1659.3959960938</ele>
        <time>2017-10-28T09:28:40Z</time>
      </trkpt>
      <trkpt lat="44.17593" lon="6.84265">
        <ele>1660.3959960938</ele>
        <time>2017-10-28T09:28:45Z</time>
      </trkpt>
      <trkpt lat="44.176" lon="6.84258">
        <ele>1662.3959960938</ele>
        <time>2017-10-28T09:28:50Z</time>
      </trkpt>
      <trkpt lat="44.17606" lon="6.8425">
        <ele>1663.3959960938</ele>
        <time>2017-10-28T09:28:55Z</time>
      </trkpt>
      <trkpt lat="44.17612" lon="6.84243">
        <ele>1667.3959960938</ele>
        <time>2017-10-28T09:29:02Z</time>
      </trkpt>
      <trkpt lat="44.17617" lon="6.84235">
        <ele>1667.3959960938</ele>
        <time>2017-10-28T09:29:07Z</time>
      </trkpt>
      <trkpt lat="44.17624" lon="6.84228">
        <ele>1669.3959960938</ele>
        <time>2017-10-28T09:29:12Z</time>
      </trkpt>
      <trkpt lat="44.17631" lon="6.84223">
        <ele>1671.3959960938</ele>
        <time>2017-10-28T09:29:17Z</time>
      </trkpt>
      <trkpt lat="44.17638" lon="6.84217">
        <ele>1672.3959960938</ele>
        <time>2017-10-28T09:29:22Z</time>
      </trkpt>
      <trkpt lat="44.1763" lon="6.84215">
        <ele>1675.3959960938</ele>
        <time>2017-10-28T09:29:34Z</time>
      </trkpt>
      <trkpt lat="44.17616" lon="6.84223">
        <ele>1674.3959960938</ele>
        <time>2017-10-28T09:29:43Z</time>
      </trkpt>
      <trkpt lat="44.17608" lon="6.84227">
        <ele>1676.3959960938</ele>
        <time>2017-10-28T09:29:48Z</time>
      </trkpt>
      <trkpt lat="44.17593" lon="6.84232">
        <ele>1677.3959960938</ele>
        <time>2017-10-28T09:29:56Z</time>
      </trkpt>
      <trkpt lat="44.17586" lon="6.84236">
        <ele>1677.3959960938</ele>
        <time>2017-10-28T09:30:01Z</time>
      </trkpt>
      <trkpt lat="44.17579" lon="6.8424">
        <ele>1678.3959960938</ele>
        <time>2017-10-28T09:30:06Z</time>
      </trkpt>
      <trkpt lat="44.17571" lon="6.84242">
        <ele>1679.3959960938</ele>
        <time>2017-10-28T09:30:12Z</time>
      </trkpt>
      <trkpt lat="44.17564" lon="6.84236">
        <ele>1680.3959960938</ele>
        <time>2017-10-28T09:30:18Z</time>
      </trkpt>
      <trkpt lat="44.17561" lon="6.84227">
        <ele>1682.3959960938</ele>
        <time>2017-10-28T09:30:24Z</time>
      </trkpt>
      <trkpt lat="44.17566" lon="6.84218">
        <ele>1682.3959960938</ele>
        <time>2017-10-28T09:30:33Z</time>
      </trkpt>
      <trkpt lat="44.17568" lon="6.84208">
        <ele>1683.3959960938</ele>
        <time>2017-10-28T09:30:44Z</time>
      </trkpt>
      <trkpt lat="44.17563" lon="6.84201">
        <ele>1684.3959960938</ele>
        <time>2017-10-28T09:30:58Z</time>
      </trkpt>
      <trkpt lat="44.17558" lon="6.84193">
        <ele>1685.3959960938</ele>
        <time>2017-10-28T09:31:05Z</time>
      </trkpt>
      <trkpt lat="44.17557" lon="6.84183">
        <ele>1687.3959960938</ele>
        <time>2017-10-28T09:31:13Z</time>
      </trkpt>
      <trkpt lat="44.17555" lon="6.84173">
        <ele>1689.3959960938</ele>
        <time>2017-10-28T09:31:26Z</time>
      </trkpt>
      <trkpt lat="44.17561" lon="6.84179">
        <ele>1684.3959960938</ele>
        <time>2017-10-28T09:32:24Z</time>
      </trkpt>
      <trkpt lat="44.17566" lon="6.84171">
        <ele>1689.3959960938</ele>
        <time>2017-10-28T09:34:10Z</time>
      </trkpt>
      <trkpt lat="44.17573" lon="6.84173">
        <ele>1690.3959960938</ele>
        <time>2017-10-28T09:34:20Z</time>
      </trkpt>
      <trkpt lat="44.17572" lon="6.84162">
        <ele>1693.3959960938</ele>
        <time>2017-10-28T09:34:34Z</time>
      </trkpt>
      <trkpt lat="44.17571" lon="6.84151">
        <ele>1695.3959960938</ele>
        <time>2017-10-28T09:34:42Z</time>
      </trkpt>
      <trkpt lat="44.17569" lon="6.84141">
        <ele>1696.3959960938</ele>
        <time>2017-10-28T09:34:59Z</time>
      </trkpt>
      <trkpt lat="44.17576" lon="6.84144">
        <ele>1696.3959960938</ele>
        <time>2017-10-28T09:35:07Z</time>
      </trkpt>
      <trkpt lat="44.17584" lon="6.84143">
        <ele>1697.3959960938</ele>
        <time>2017-10-28T09:35:22Z</time>
      </trkpt>
      <trkpt lat="44.17588" lon="6.84134">
        <ele>1699.3959960938</ele>
        <time>2017-10-28T09:35:59Z</time>
      </trkpt>
      <trkpt lat="44.17589" lon="6.84123">
        <ele>1699.3959960938</ele>
        <time>2017-10-28T09:36:08Z</time>
      </trkpt>
      <trkpt lat="44.17588" lon="6.84111">
        <ele>1699.3959960938</ele>
        <time>2017-10-28T09:36:17Z</time>
      </trkpt>
      <trkpt lat="44.1759" lon="6.84101">
        <ele>1698.3959960938</ele>
        <time>2017-10-28T09:36:24Z</time>
      </trkpt>
      <trkpt lat="44.17596" lon="6.84093">
        <ele>1701.3959960938</ele>
        <time>2017-10-28T09:36:33Z</time>
      </trkpt>
      <trkpt lat="44.17599" lon="6.84082">
        <ele>1702.3959960938</ele>
        <time>2017-10-28T09:36:42Z</time>
      </trkpt>
      <trkpt lat="44.17597" lon="6.84072">
        <ele>1704.3959960938</ele>
        <time>2017-10-28T09:36:51Z</time>
      </trkpt>
      <trkpt lat="44.17592" lon="6.84065">
        <ele>1703.3959960938</ele>
        <time>2017-10-28T09:36:58Z</time>
      </trkpt>
      <trkpt lat="44.17592" lon="6.84053">
        <ele>1705.3959960938</ele>
        <time>2017-10-28T09:37:06Z</time>
      </trkpt>
      <trkpt lat="44.17595" lon="6.84043">
        <ele>1707.3959960938</ele>
        <time>2017-10-28T09:37:17Z</time>
      </trkpt>
      <trkpt lat="44.17597" lon="6.84032">
        <ele>1708.3959960938</ele>
        <time>2017-10-28T09:37:27Z</time>
      </trkpt>
      <trkpt lat="44.17598" lon="6.84022">
        <ele>1708.3959960938</ele>
        <time>2017-10-28T09:44:20Z</time>
      </trkpt>
      <trkpt lat="44.17602" lon="6.84013">
        <ele>1717.3959960938</ele>
        <time>2017-10-28T09:46:27Z</time>
      </trkpt>
      <trkpt lat="44.17604" lon="6.84003">
        <ele>1719.3959960938</ele>
        <time>2017-10-28T09:46:41Z</time>
      </trkpt>
      <trkpt lat="44.17608" lon="6.83994">
        <ele>1723.3959960938</ele>
        <time>2017-10-28T09:46:50Z</time>
      </trkpt>
      <trkpt lat="44.17612" lon="6.83985">
        <ele>1726.3959960938</ele>
        <time>2017-10-28T09:47:01Z</time>
      </trkpt>
      <trkpt lat="44.17616" lon="6.83976">
        <ele>1729.3959960938</ele>
        <time>2017-10-28T09:47:10Z</time>
      </trkpt>
      <trkpt lat="44.17618" lon="6.83966">
        <ele>1731.3959960938</ele>
        <time>2017-10-28T09:47:28Z</time>
      </trkpt>
      <trkpt lat="44.17621" lon="6.83957">
        <ele>1731.3959960938</ele>
        <time>2017-10-28T09:47:41Z</time>
      </trkpt>
      <trkpt lat="44.17625" lon="6.83949">
        <ele>1733.3959960938</ele>
        <time>2017-10-28T09:47:53Z</time>
      </trkpt>
      <trkpt lat="44.1763" lon="6.83941">
        <ele>1733.3959960938</ele>
        <time>2017-10-28T09:48:04Z</time>
      </trkpt>
      <trkpt lat="44.17633" lon="6.83931">
        <ele>1738.3959960938</ele>
        <time>2017-10-28T09:48:17Z</time>
      </trkpt>
      <trkpt lat="44.17634" lon="6.83921">
        <ele>1740.3959960938</ele>
        <time>2017-10-28T09:48:29Z</time>
      </trkpt>
      <trkpt lat="44.17638" lon="6.83909">
        <ele>1740.3959960938</ele>
        <time>2017-10-28T09:48:57Z</time>
      </trkpt>
      <trkpt lat="44.17641" lon="6.83899">
        <ele>1743.3959960938</ele>
        <time>2017-10-28T09:49:13Z</time>
      </trkpt>
      <trkpt lat="44.17645" lon="6.8389">
        <ele>1745.3959960938</ele>
        <time>2017-10-28T09:49:31Z</time>
      </trkpt>
      <trkpt lat="44.17652" lon="6.83884">
        <ele>1746.3959960938</ele>
        <time>2017-10-28T09:49:40Z</time>
      </trkpt>
      <trkpt lat="44.17656" lon="6.83876">
        <ele>1746.3959960938</ele>
        <time>2017-10-28T09:49:51Z</time>
      </trkpt>
      <trkpt lat="44.17661" lon="6.83868">
        <ele>1745.3959960938</ele>
        <time>2017-10-28T09:49:59Z</time>
      </trkpt>
      <trkpt lat="44.17667" lon="6.83861">
        <ele>1745.3959960938</ele>
        <time>2017-10-28T09:50:11Z</time>
      </trkpt>
      <trkpt lat="44.17672" lon="6.83853">
        <ele>1751.3959960938</ele>
        <time>2017-10-28T09:50:22Z</time>
      </trkpt>
      <trkpt lat="44.17673" lon="6.83843">
        <ele>1752.3959960938</ele>
        <time>2017-10-28T09:50:33Z</time>
      </trkpt>
      <trkpt lat="44.17674" lon="6.83832">
        <ele>1755.3959960938</ele>
        <time>2017-10-28T09:50:45Z</time>
      </trkpt>
      <trkpt lat="44.17676" lon="6.83822">
        <ele>1756.3959960938</ele>
        <time>2017-10-28T09:51:04Z</time>
      </trkpt>
      <trkpt lat="44.17678" lon="6.83811">
        <ele>1758.3959960938</ele>
        <time>2017-10-28T09:51:15Z</time>
      </trkpt>
      <trkpt lat="44.17675" lon="6.83801">
        <ele>1759.3959960938</ele>
        <time>2017-10-28T09:51:25Z</time>
      </trkpt>
      <trkpt lat="44.17671" lon="6.83793">
        <ele>1760.3959960938</ele>
        <time>2017-10-28T09:51:36Z</time>
      </trkpt>
      <trkpt lat="44.17664" lon="6.83787">
        <ele>1766.3959960938</ele>
        <time>2017-10-28T09:52:08Z</time>
      </trkpt>
      <trkpt lat="44.1766" lon="6.83777">
        <ele>1767.3950195312</ele>
        <time>2017-10-28T09:52:17Z</time>
      </trkpt>
      <trkpt lat="44.17657" lon="6.83767">
        <ele>1768.3950195312</ele>
        <time>2017-10-28T09:52:30Z</time>
      </trkpt>
      <trkpt lat="44.17653" lon="6.83758">
        <ele>1769.3950195312</ele>
        <time>2017-10-28T09:52:36Z</time>
      </trkpt>
      <trkpt lat="44.17647" lon="6.8375">
        <ele>1769.3950195312</ele>
        <time>2017-10-28T09:52:42Z</time>
      </trkpt>
      <trkpt lat="44.1764" lon="6.83745">
        <ele>1769.3950195312</ele>
        <time>2017-10-28T09:52:47Z</time>
      </trkpt>
      <trkpt lat="44.17633" lon="6.83743">
        <ele>1771.3950195312</ele>
        <time>2017-10-28T09:52:53Z</time>
      </trkpt>
      <trkpt lat="44.17626" lon="6.83737">
        <ele>1773.3950195312</ele>
        <time>2017-10-28T09:53:00Z</time>
      </trkpt>
      <trkpt lat="44.17622" lon="6.83728">
        <ele>1772.3950195312</ele>
        <time>2017-10-28T09:53:06Z</time>
      </trkpt>
      <trkpt lat="44.17627" lon="6.83721">
        <ele>1776.3950195312</ele>
        <time>2017-10-28T09:53:14Z</time>
      </trkpt>
      <trkpt lat="44.17636" lon="6.83717">
        <ele>1776.3950195312</ele>
        <time>2017-10-28T09:53:22Z</time>
      </trkpt>
      <trkpt lat="44.17643" lon="6.83715">
        <ele>1775.3950195312</ele>
        <time>2017-10-28T09:53:28Z</time>
      </trkpt>
      <trkpt lat="44.17651" lon="6.83713">
        <ele>1777.3950195312</ele>
        <time>2017-10-28T09:53:37Z</time>
      </trkpt>
      <trkpt lat="44.17658" lon="6.83711">
        <ele>1778.3950195312</ele>
        <time>2017-10-28T09:53:45Z</time>
      </trkpt>
      <trkpt lat="44.17665" lon="6.8371">
        <ele>1779.3950195312</ele>
        <time>2017-10-28T09:53:51Z</time>
      </trkpt>
      <trkpt lat="44.17672" lon="6.83708">
        <ele>1779.3950195312</ele>
        <time>2017-10-28T09:53:58Z</time>
      </trkpt>
      <trkpt lat="44.17679" lon="6.83705">
        <ele>1782.3950195312</ele>
        <time>2017-10-28T09:54:06Z</time>
      </trkpt>
      <trkpt lat="44.17684" lon="6.83697">
        <ele>1783.3950195312</ele>
        <time>2017-10-28T09:54:15Z</time>
      </trkpt>
      <trkpt lat="44.1768" lon="6.83688">
        <ele>1786.3950195312</ele>
        <time>2017-10-28T09:54:21Z</time>
      </trkpt>
      <trkpt lat="44.17678" lon="6.83677">
        <ele>1786.3950195312</ele>
        <time>2017-10-28T09:54:28Z</time>
      </trkpt>
      <trkpt lat="44.17674" lon="6.83667">
        <ele>1789.3950195312</ele>
        <time>2017-10-28T09:54:49Z</time>
      </trkpt>
      <trkpt lat="44.17672" lon="6.83657">
        <ele>1792.3950195312</ele>
        <time>2017-10-28T09:54:58Z</time>
      </trkpt>
      <trkpt lat="44.17671" lon="6.83647">
        <ele>1790.3950195312</ele>
        <time>2017-10-28T09:55:05Z</time>
      </trkpt>
      <trkpt lat="44.17663" lon="6.83643">
        <ele>1791.3950195312</ele>
        <time>2017-10-28T09:55:11Z</time>
      </trkpt>
      <trkpt lat="44.17657" lon="6.83634">
        <ele>1791.3950195312</ele>
        <time>2017-10-28T09:55:16Z</time>
      </trkpt>
      <trkpt lat="44.1765" lon="6.83629">
        <ele>1789.3950195312</ele>
        <time>2017-10-28T09:55:21Z</time>
      </trkpt>
      <trkpt lat="44.17638" lon="6.83617">
        <ele>1792.3950195312</ele>
        <time>2017-10-28T09:55:30Z</time>
      </trkpt>
      <trkpt lat="44.17631" lon="6.8361">
        <ele>1793.3950195312</ele>
        <time>2017-10-28T09:55:36Z</time>
      </trkpt>
      <trkpt lat="44.17624" lon="6.83606">
        <ele>1795.3950195312</ele>
        <time>2017-10-28T09:55:41Z</time>
      </trkpt>
      <trkpt lat="44.17616" lon="6.83602">
        <ele>1793.3950195312</ele>
        <time>2017-10-28T09:55:46Z</time>
      </trkpt>
      <trkpt lat="44.17598" lon="6.83598">
        <ele>1792.3950195312</ele>
        <time>2017-10-28T09:55:53Z</time>
      </trkpt>
      <trkpt lat="44.1758" lon="6.83594">
        <ele>1793.3950195312</ele>
        <time>2017-10-28T09:56:01Z</time>
      </trkpt>
      <trkpt lat="44.17561" lon="6.83596">
        <ele>1797.3950195312</ele>
        <time>2017-10-28T09:56:09Z</time>
      </trkpt>
      <trkpt lat="44.17553" lon="6.83595">
        <ele>1797.3950195312</ele>
        <time>2017-10-28T09:56:14Z</time>
      </trkpt>
      <trkpt lat="44.17545" lon="6.83594">
        <ele>1798.3950195312</ele>
        <time>2017-10-28T09:56:19Z</time>
      </trkpt>
      <trkpt lat="44.17537" lon="6.83591">
        <ele>1798.3950195312</ele>
        <time>2017-10-28T09:56:24Z</time>
      </trkpt>
      <trkpt lat="44.17533" lon="6.83582">
        <ele>1799.3950195312</ele>
        <time>2017-10-28T09:56:31Z</time>
      </trkpt>
      <trkpt lat="44.1753" lon="6.83571">
        <ele>1798.3950195312</ele>
        <time>2017-10-28T09:56:37Z</time>
      </trkpt>
      <trkpt lat="44.17524" lon="6.83566">
        <ele>1799.3950195312</ele>
        <time>2017-10-28T09:56:44Z</time>
      </trkpt>
      <trkpt lat="44.17516" lon="6.83564">
        <ele>1800.3950195312</ele>
        <time>2017-10-28T09:56:49Z</time>
      </trkpt>
      <trkpt lat="44.17507" lon="6.83561">
        <ele>1802.3950195312</ele>
        <time>2017-10-28T09:56:55Z</time>
      </trkpt>
      <trkpt lat="44.17499" lon="6.83562">
        <ele>1802.3950195312</ele>
        <time>2017-10-28T09:57:01Z</time>
      </trkpt>
      <trkpt lat="44.17492" lon="6.83566">
        <ele>1802.3950195312</ele>
        <time>2017-10-28T09:57:07Z</time>
      </trkpt>
      <trkpt lat="44.17485" lon="6.83569">
        <ele>1803.3950195312</ele>
        <time>2017-10-28T09:57:14Z</time>
      </trkpt>
      <trkpt lat="44.17477" lon="6.83569">
        <ele>1809.3950195312</ele>
        <time>2017-10-28T09:57:24Z</time>
      </trkpt>
      <trkpt lat="44.17471" lon="6.83564">
        <ele>1811.3950195312</ele>
        <time>2017-10-28T09:57:31Z</time>
      </trkpt>
      <trkpt lat="44.17462" lon="6.83567">
        <ele>1810.3950195312</ele>
        <time>2017-10-28T09:57:36Z</time>
      </trkpt>
      <trkpt lat="44.17445" lon="6.83561">
        <ele>1809.3950195312</ele>
        <time>2017-10-28T09:57:41Z</time>
      </trkpt>
      <trkpt lat="44.17427" lon="6.83531">
        <ele>1807.3950195312</ele>
        <time>2017-10-28T09:57:48Z</time>
      </trkpt>
      <trkpt lat="44.17422" lon="6.83511">
        <ele>1807.3950195312</ele>
        <time>2017-10-28T09:57:54Z</time>
      </trkpt>
      <trkpt lat="44.17414" lon="6.83493">
        <ele>1807.3950195312</ele>
        <time>2017-10-28T09:58:00Z</time>
      </trkpt>
      <trkpt lat="44.17409" lon="6.83473">
        <ele>1809.3940429688</ele>
        <time>2017-10-28T09:58:09Z</time>
      </trkpt>
      <trkpt lat="44.17413" lon="6.83464">
        <ele>1810.3940429688</ele>
        <time>2017-10-28T09:58:19Z</time>
      </trkpt>
      <trkpt lat="44.17418" lon="6.83456">
        <ele>1814.3940429688</ele>
        <time>2017-10-28T09:58:30Z</time>
      </trkpt>
      <trkpt lat="44.17421" lon="6.83447">
        <ele>1814.3940429688</ele>
        <time>2017-10-28T09:58:39Z</time>
      </trkpt>
      <trkpt lat="44.17427" lon="6.83442">
        <ele>1816.3940429688</ele>
        <time>2017-10-28T09:58:47Z</time>
      </trkpt>
      <trkpt lat="44.17434" lon="6.83437">
        <ele>1816.3940429688</ele>
        <time>2017-10-28T09:58:55Z</time>
      </trkpt>
      <trkpt lat="44.17441" lon="6.83433">
        <ele>1817.3940429688</ele>
        <time>2017-10-28T09:59:01Z</time>
      </trkpt>
      <trkpt lat="44.17448" lon="6.8343">
        <ele>1817.3940429688</ele>
        <time>2017-10-28T09:59:07Z</time>
      </trkpt>
      <trkpt lat="44.17458" lon="6.83432">
        <ele>1818.3940429688</ele>
        <time>2017-10-28T09:59:17Z</time>
      </trkpt>
      <trkpt lat="44.17466" lon="6.8343">
        <ele>1820.3950195312</ele>
        <time>2017-10-28T09:59:27Z</time>
      </trkpt>
      <trkpt lat="44.17473" lon="6.8343">
        <ele>1821.3950195312</ele>
        <time>2017-10-28T09:59:37Z</time>
      </trkpt>
      <trkpt lat="44.17481" lon="6.83431">
        <ele>1821.3950195312</ele>
        <time>2017-10-28T09:59:47Z</time>
      </trkpt>
      <trkpt lat="44.17487" lon="6.83437">
        <ele>1823.3950195312</ele>
        <time>2017-10-28T10:00:02Z</time>
      </trkpt>
      <trkpt lat="44.17493" lon="6.83444">
        <ele>1826.3950195312</ele>
        <time>2017-10-28T10:00:15Z</time>
      </trkpt>
      <trkpt lat="44.17507" lon="6.83443">
        <ele>1828.3950195312</ele>
        <time>2017-10-28T10:00:23Z</time>
      </trkpt>
      <trkpt lat="44.17515" lon="6.8344">
        <ele>1826.3950195312</ele>
        <time>2017-10-28T10:00:28Z</time>
      </trkpt>
      <trkpt lat="44.17522" lon="6.83437">
        <ele>1828.3950195312</ele>
        <time>2017-10-28T10:00:35Z</time>
      </trkpt>
      <trkpt lat="44.17529" lon="6.83441">
        <ele>1831.3950195312</ele>
        <time>2017-10-28T10:00:41Z</time>
      </trkpt>
      <trkpt lat="44.17539" lon="6.83459">
        <ele>1832.3950195312</ele>
        <time>2017-10-28T10:00:49Z</time>
      </trkpt>
      <trkpt lat="44.17553" lon="6.83472">
        <ele>1833.3950195312</ele>
        <time>2017-10-28T10:00:56Z</time>
      </trkpt>
      <trkpt lat="44.1756" lon="6.83476">
        <ele>1834.3950195312</ele>
        <time>2017-10-28T10:01:00Z</time>
      </trkpt>
      <trkpt lat="44.17568" lon="6.83477">
        <ele>1835.3950195312</ele>
        <time>2017-10-28T10:01:06Z</time>
      </trkpt>
      <trkpt lat="44.17576" lon="6.83478">
        <ele>1837.3950195312</ele>
        <time>2017-10-28T10:01:16Z</time>
      </trkpt>
      <trkpt lat="44.17583" lon="6.83476">
        <ele>1840.3950195312</ele>
        <time>2017-10-28T10:01:26Z</time>
      </trkpt>
      <trkpt lat="44.17591" lon="6.83475">
        <ele>1843.3950195312</ele>
        <time>2017-10-28T10:01:36Z</time>
      </trkpt>
      <trkpt lat="44.17599" lon="6.83477">
        <ele>1843.3950195312</ele>
        <time>2017-10-28T10:01:45Z</time>
      </trkpt>
      <trkpt lat="44.17606" lon="6.83478">
        <ele>1846.3950195312</ele>
        <time>2017-10-28T10:02:00Z</time>
      </trkpt>
      <trkpt lat="44.17614" lon="6.8348">
        <ele>1844.3950195312</ele>
        <time>2017-10-28T10:02:11Z</time>
      </trkpt>
      <trkpt lat="44.1762" lon="6.83475">
        <ele>1848.3950195312</ele>
        <time>2017-10-28T10:02:33Z</time>
      </trkpt>
      <trkpt lat="44.17627" lon="6.83469">
        <ele>1847.3950195312</ele>
        <time>2017-10-28T10:02:45Z</time>
      </trkpt>
      <trkpt lat="44.17631" lon="6.8346">
        <ele>1848.3950195312</ele>
        <time>2017-10-28T10:02:55Z</time>
      </trkpt>
      <trkpt lat="44.17634" lon="6.83451">
        <ele>1851.3950195312</ele>
        <time>2017-10-28T10:03:04Z</time>
      </trkpt>
      <trkpt lat="44.17638" lon="6.83442">
        <ele>1854.3950195312</ele>
        <time>2017-10-28T10:03:16Z</time>
      </trkpt>
      <trkpt lat="44.17637" lon="6.8343">
        <ele>1855.3950195312</ele>
        <time>2017-10-28T10:03:29Z</time>
      </trkpt>
      <trkpt lat="44.17634" lon="6.83421">
        <ele>1854.3950195312</ele>
        <time>2017-10-28T10:03:38Z</time>
      </trkpt>
      <trkpt lat="44.17631" lon="6.83411">
        <ele>1859.3950195312</ele>
        <time>2017-10-28T10:03:52Z</time>
      </trkpt>
      <trkpt lat="44.17628" lon="6.83402">
        <ele>1864.3950195312</ele>
        <time>2017-10-28T10:04:15Z</time>
      </trkpt>
      <trkpt lat="44.17626" lon="6.83391">
        <ele>1866.3950195312</ele>
        <time>2017-10-28T10:04:28Z</time>
      </trkpt>
      <trkpt lat="44.17622" lon="6.83382">
        <ele>1867.3950195312</ele>
        <time>2017-10-28T10:04:38Z</time>
      </trkpt>
      <trkpt lat="44.17617" lon="6.83374">
        <ele>1869.3950195312</ele>
        <time>2017-10-28T10:04:46Z</time>
      </trkpt>
      <trkpt lat="44.17612" lon="6.83365">
        <ele>1869.3950195312</ele>
        <time>2017-10-28T10:04:53Z</time>
      </trkpt>
      <trkpt lat="44.1761" lon="6.83355">
        <ele>1868.3950195312</ele>
        <time>2017-10-28T10:04:59Z</time>
      </trkpt>
      <trkpt lat="44.17608" lon="6.83344">
        <ele>1867.3950195312</ele>
        <time>2017-10-28T10:05:06Z</time>
      </trkpt>
      <trkpt lat="44.17608" lon="6.83334">
        <ele>1868.3950195312</ele>
        <time>2017-10-28T10:05:12Z</time>
      </trkpt>
      <trkpt lat="44.17611" lon="6.83324">
        <ele>1870.3950195312</ele>
        <time>2017-10-28T10:05:19Z</time>
      </trkpt>
      <trkpt lat="44.17617" lon="6.83318">
        <ele>1870.3950195312</ele>
        <time>2017-10-28T10:05:28Z</time>
      </trkpt>
      <trkpt lat="44.17623" lon="6.83311">
        <ele>1872.3950195312</ele>
        <time>2017-10-28T10:05:36Z</time>
      </trkpt>
      <trkpt lat="44.17631" lon="6.8331">
        <ele>1874.3950195312</ele>
        <time>2017-10-28T10:05:44Z</time>
      </trkpt>
      <trkpt lat="44.17639" lon="6.83312">
        <ele>1875.3950195312</ele>
        <time>2017-10-28T10:05:51Z</time>
      </trkpt>
      <trkpt lat="44.17646" lon="6.83312">
        <ele>1876.3950195312</ele>
        <time>2017-10-28T10:05:59Z</time>
      </trkpt>
      <trkpt lat="44.17653" lon="6.83315">
        <ele>1877.3950195312</ele>
        <time>2017-10-28T10:06:08Z</time>
      </trkpt>
      <trkpt lat="44.17661" lon="6.83316">
        <ele>1877.3950195312</ele>
        <time>2017-10-28T10:06:18Z</time>
      </trkpt>
      <trkpt lat="44.17668" lon="6.83317">
        <ele>1879.3950195312</ele>
        <time>2017-10-28T10:06:27Z</time>
      </trkpt>
      <trkpt lat="44.17676" lon="6.83318">
        <ele>1880.3950195312</ele>
        <time>2017-10-28T10:06:51Z</time>
      </trkpt>
      <trkpt lat="44.17683" lon="6.8332">
        <ele>1880.3950195312</ele>
        <time>2017-10-28T10:06:59Z</time>
      </trkpt>
      <trkpt lat="44.17691" lon="6.8332">
        <ele>1882.3950195312</ele>
        <time>2017-10-28T10:07:12Z</time>
      </trkpt>
      <trkpt lat="44.17699" lon="6.8332">
        <ele>1884.3950195312</ele>
        <time>2017-10-28T10:07:28Z</time>
      </trkpt>
      <trkpt lat="44.17707" lon="6.8332">
        <ele>1888.3950195312</ele>
        <time>2017-10-28T10:07:40Z</time>
      </trkpt>
      <trkpt lat="44.17714" lon="6.83322">
        <ele>1889.3950195312</ele>
        <time>2017-10-28T10:07:51Z</time>
      </trkpt>
      <trkpt lat="44.17721" lon="6.83326">
        <ele>1889.3950195312</ele>
        <time>2017-10-28T10:08:01Z</time>
      </trkpt>
      <trkpt lat="44.17728" lon="6.83325">
        <ele>1893.3950195312</ele>
        <time>2017-10-28T10:08:15Z</time>
      </trkpt>
      <trkpt lat="44.17735" lon="6.83325">
        <ele>1893.3950195312</ele>
        <time>2017-10-28T10:08:35Z</time>
      </trkpt>
      <trkpt lat="44.17743" lon="6.83323">
        <ele>1902.3950195312</ele>
        <time>2017-10-28T10:08:54Z</time>
      </trkpt>
      <trkpt lat="44.17751" lon="6.8332">
        <ele>1899.3950195312</ele>
        <time>2017-10-28T10:09:11Z</time>
      </trkpt>
      <trkpt lat="44.17758" lon="6.8332">
        <ele>1901.3950195312</ele>
        <time>2017-10-28T10:09:25Z</time>
      </trkpt>
      <trkpt lat="44.17765" lon="6.83316">
        <ele>1903.3950195312</ele>
        <time>2017-10-28T10:09:39Z</time>
      </trkpt>
      <trkpt lat="44.17772" lon="6.83312">
        <ele>1906.3950195312</ele>
        <time>2017-10-28T10:09:51Z</time>
      </trkpt>
      <trkpt lat="44.17778" lon="6.83305">
        <ele>1908.3950195312</ele>
        <time>2017-10-28T10:10:10Z</time>
      </trkpt>
      <trkpt lat="44.17785" lon="6.833">
        <ele>1910.3950195312</ele>
        <time>2017-10-28T10:10:21Z</time>
      </trkpt>
      <trkpt lat="44.1779" lon="6.83294">
        <ele>1909.3950195312</ele>
        <time>2017-10-28T10:10:33Z</time>
      </trkpt>
      <trkpt lat="44.17793" lon="6.83284">
        <ele>1915.3950195312</ele>
        <time>2017-10-28T10:10:58Z</time>
      </trkpt>
      <trkpt lat="44.17797" lon="6.83276">
        <ele>1917.3950195312</ele>
        <time>2017-10-28T10:11:11Z</time>
      </trkpt>
      <trkpt lat="44.17801" lon="6.83266">
        <ele>1917.3950195312</ele>
        <time>2017-10-28T10:11:28Z</time>
      </trkpt>
      <trkpt lat="44.17807" lon="6.83259">
        <ele>1918.3950195312</ele>
        <time>2017-10-28T10:11:41Z</time>
      </trkpt>
      <trkpt lat="44.17812" lon="6.83252">
        <ele>1920.3950195312</ele>
        <time>2017-10-28T10:11:51Z</time>
      </trkpt>
      <trkpt lat="44.17812" lon="6.83242">
        <ele>1921.3950195312</ele>
        <time>2017-10-28T10:12:11Z</time>
      </trkpt>
      <trkpt lat="44.17811" lon="6.83232">
        <ele>1922.3950195312</ele>
        <time>2017-10-28T10:12:27Z</time>
      </trkpt>
      <trkpt lat="44.17806" lon="6.83224">
        <ele>1926.3950195312</ele>
        <time>2017-10-28T10:12:55Z</time>
      </trkpt>
      <trkpt lat="44.17804" lon="6.83214">
        <ele>1930.3950195312</ele>
        <time>2017-10-28T10:13:13Z</time>
      </trkpt>
      <trkpt lat="44.17798" lon="6.83208">
        <ele>1933.3950195312</ele>
        <time>2017-10-28T10:13:28Z</time>
      </trkpt>
      <trkpt lat="44.17792" lon="6.83201">
        <ele>1934.3950195312</ele>
        <time>2017-10-28T10:13:40Z</time>
      </trkpt>
      <trkpt lat="44.17785" lon="6.83195">
        <ele>1937.3950195312</ele>
        <time>2017-10-28T10:14:08Z</time>
      </trkpt>
      <trkpt lat="44.17781" lon="6.83188">
        <ele>1939.3950195312</ele>
        <time>2017-10-28T10:14:22Z</time>
      </trkpt>
      <trkpt lat="44.17778" lon="6.83179">
        <ele>1940.3950195312</ele>
        <time>2017-10-28T10:14:34Z</time>
      </trkpt>
      <trkpt lat="44.17778" lon="6.83168">
        <ele>1941.3940429688</ele>
        <time>2017-10-28T10:14:58Z</time>
      </trkpt>
      <trkpt lat="44.17772" lon="6.83161">
        <ele>1942.3940429688</ele>
        <time>2017-10-28T10:15:08Z</time>
      </trkpt>
      <trkpt lat="44.17767" lon="6.83153">
        <ele>1948.3940429688</ele>
        <time>2017-10-28T10:15:25Z</time>
      </trkpt>
      <trkpt lat="44.17763" lon="6.83144">
        <ele>1947.3940429688</ele>
        <time>2017-10-28T10:15:37Z</time>
      </trkpt>
      <trkpt lat="44.1776" lon="6.83134">
        <ele>1951.3940429688</ele>
        <time>2017-10-28T10:15:58Z</time>
      </trkpt>
      <trkpt lat="44.17755" lon="6.83126">
        <ele>1952.3940429688</ele>
        <time>2017-10-28T10:16:30Z</time>
      </trkpt>
      <trkpt lat="44.17751" lon="6.83116">
        <ele>1955.3940429688</ele>
        <time>2017-10-28T10:16:56Z</time>
      </trkpt>
      <trkpt lat="44.1775" lon="6.83105">
        <ele>1959.3940429688</ele>
        <time>2017-10-28T10:17:13Z</time>
      </trkpt>
      <trkpt lat="44.17753" lon="6.83096">
        <ele>1962.3940429688</ele>
        <time>2017-10-28T10:17:30Z</time>
      </trkpt>
      <trkpt lat="44.17759" lon="6.8309">
        <ele>1962.3940429688</ele>
        <time>2017-10-28T10:17:44Z</time>
      </trkpt>
      <trkpt lat="44.17766" lon="6.83087">
        <ele>1969.3940429688</ele>
        <time>2017-10-28T10:18:14Z</time>
      </trkpt>
      <trkpt lat="44.17773" lon="6.83082">
        <ele>1969.3940429688</ele>
        <time>2017-10-28T10:18:37Z</time>
      </trkpt>
      <trkpt lat="44.1778" lon="6.83078">
        <ele>1974.3940429688</ele>
        <time>2017-10-28T10:18:50Z</time>
      </trkpt>
      <trkpt lat="44.17787" lon="6.83072">
        <ele>1975.3940429688</ele>
        <time>2017-10-28T10:19:14Z</time>
      </trkpt>
      <trkpt lat="44.17792" lon="6.83066">
        <ele>1980.3940429688</ele>
        <time>2017-10-28T10:19:31Z</time>
      </trkpt>
      <trkpt lat="44.17797" lon="6.83058">
        <ele>1982.3940429688</ele>
        <time>2017-10-28T10:19:50Z</time>
      </trkpt>
      <trkpt lat="44.17802" lon="6.8305">
        <ele>1985.3940429688</ele>
        <time>2017-10-28T10:20:09Z</time>
      </trkpt>
      <trkpt lat="44.17806" lon="6.83042">
        <ele>1988.3940429688</ele>
        <time>2017-10-28T10:20:28Z</time>
      </trkpt>
      <trkpt lat="44.17813" lon="6.83037">
        <ele>1988.3940429688</ele>
        <time>2017-10-28T10:20:49Z</time>
      </trkpt>
      <trkpt lat="44.17821" lon="6.83034">
        <ele>1991.3940429688</ele>
        <time>2017-10-28T10:21:02Z</time>
      </trkpt>
      <trkpt lat="44.17826" lon="6.83026">
        <ele>1994.3940429688</ele>
        <time>2017-10-28T10:21:14Z</time>
      </trkpt>
      <trkpt lat="44.17832" lon="6.83022">
        <ele>1997.3940429688</ele>
        <time>2017-10-28T10:21:24Z</time>
      </trkpt>
      <trkpt lat="44.17836" lon="6.83013">
        <ele>2000.3940429688</ele>
        <time>2017-10-28T10:21:55Z</time>
      </trkpt>
      <trkpt lat="44.17837" lon="6.83002">
        <ele>2000.3940429688</ele>
        <time>2017-10-28T10:22:05Z</time>
      </trkpt>
      <trkpt lat="44.17834" lon="6.82993">
        <ele>2000.3940429688</ele>
        <time>2017-10-28T10:22:14Z</time>
      </trkpt>
      <trkpt lat="44.17831" lon="6.82983">
        <ele>2001.3940429688</ele>
        <time>2017-10-28T10:22:21Z</time>
      </trkpt>
      <trkpt lat="44.17823" lon="6.82978">
        <ele>2004.3940429688</ele>
        <time>2017-10-28T10:22:35Z</time>
      </trkpt>
      <trkpt lat="44.17818" lon="6.8297">
        <ele>2007.3940429688</ele>
        <time>2017-10-28T10:22:43Z</time>
      </trkpt>
      <trkpt lat="44.17812" lon="6.82962">
        <ele>2005.3940429688</ele>
        <time>2017-10-28T10:22:51Z</time>
      </trkpt>
      <trkpt lat="44.17804" lon="6.82958">
        <ele>2005.3940429688</ele>
        <time>2017-10-28T10:23:32Z</time>
      </trkpt>
      <trkpt lat="44.17797" lon="6.82956">
        <ele>2005.3940429688</ele>
        <time>2017-10-28T10:23:40Z</time>
      </trkpt>
      <trkpt lat="44.17796" lon="6.82944">
        <ele>2006.3940429688</ele>
        <time>2017-10-28T10:25:02Z</time>
      </trkpt>
      <trkpt lat="44.17793" lon="6.82921">
        <ele>2004.3940429688</ele>
        <time>2017-10-28T10:25:09Z</time>
      </trkpt>
      <trkpt lat="44.17788" lon="6.829">
        <ele>2003.3940429688</ele>
        <time>2017-10-28T10:25:14Z</time>
      </trkpt>
      <trkpt lat="44.17785" lon="6.82876">
        <ele>2002.3940429688</ele>
        <time>2017-10-28T10:25:20Z</time>
      </trkpt>
      <trkpt lat="44.17782" lon="6.82865">
        <ele>2004.3940429688</ele>
        <time>2017-10-28T10:25:26Z</time>
      </trkpt>
      <trkpt lat="44.17778" lon="6.82854">
        <ele>2004.3940429688</ele>
        <time>2017-10-28T10:25:31Z</time>
      </trkpt>
      <trkpt lat="44.17773" lon="6.82846">
        <ele>2006.3940429688</ele>
        <time>2017-10-28T10:25:36Z</time>
      </trkpt>
      <trkpt lat="44.17768" lon="6.82837">
        <ele>2006.3940429688</ele>
        <time>2017-10-28T10:25:42Z</time>
      </trkpt>
      <trkpt lat="44.17765" lon="6.82827">
        <ele>2009.3940429688</ele>
        <time>2017-10-28T10:25:48Z</time>
      </trkpt>
      <trkpt lat="44.17759" lon="6.82821">
        <ele>2011.3940429688</ele>
        <time>2017-10-28T10:25:54Z</time>
      </trkpt>
      <trkpt lat="44.17753" lon="6.82813">
        <ele>2012.3940429688</ele>
        <time>2017-10-28T10:26:00Z</time>
      </trkpt>
      <trkpt lat="44.17747" lon="6.82806">
        <ele>2013.3940429688</ele>
        <time>2017-10-28T10:26:06Z</time>
      </trkpt>
      <trkpt lat="44.17741" lon="6.828">
        <ele>2014.3940429688</ele>
        <time>2017-10-28T10:26:13Z</time>
      </trkpt>
      <trkpt lat="44.17735" lon="6.82793">
        <ele>2015.3940429688</ele>
        <time>2017-10-28T10:26:21Z</time>
      </trkpt>
      <trkpt lat="44.17729" lon="6.82787">
        <ele>2018.3940429688</ele>
        <time>2017-10-28T10:26:29Z</time>
      </trkpt>
      <trkpt lat="44.17722" lon="6.82781">
        <ele>2019.3940429688</ele>
        <time>2017-10-28T10:26:39Z</time>
      </trkpt>
      <trkpt lat="44.17715" lon="6.82776">
        <ele>2021.3940429688</ele>
        <time>2017-10-28T10:26:48Z</time>
      </trkpt>
      <trkpt lat="44.17708" lon="6.82772">
        <ele>2023.3940429688</ele>
        <time>2017-10-28T10:26:58Z</time>
      </trkpt>
      <trkpt lat="44.17701" lon="6.82768">
        <ele>2024.3940429688</ele>
        <time>2017-10-28T10:27:07Z</time>
      </trkpt>
      <trkpt lat="44.17694" lon="6.82764">
        <ele>2026.3940429688</ele>
        <time>2017-10-28T10:27:17Z</time>
      </trkpt>
      <trkpt lat="44.17686" lon="6.8276">
        <ele>2027.3940429688</ele>
        <time>2017-10-28T10:27:29Z</time>
      </trkpt>
      <trkpt lat="44.17679" lon="6.82755">
        <ele>2030.3940429688</ele>
        <time>2017-10-28T10:27:39Z</time>
      </trkpt>
      <trkpt lat="44.17672" lon="6.82752">
        <ele>2030.3940429688</ele>
        <time>2017-10-28T10:27:47Z</time>
      </trkpt>
      <trkpt lat="44.17665" lon="6.82745">
        <ele>2033.3940429688</ele>
        <time>2017-10-28T10:28:03Z</time>
      </trkpt>
      <trkpt lat="44.17659" lon="6.82739">
        <ele>2035.3929443359</ele>
        <time>2017-10-28T10:28:12Z</time>
      </trkpt>
      <trkpt lat="44.17652" lon="6.82735">
        <ele>2036.3929443359</ele>
        <time>2017-10-28T10:28:23Z</time>
      </trkpt>
      <trkpt lat="44.17645" lon="6.82731">
        <ele>2038.3929443359</ele>
        <time>2017-10-28T10:28:32Z</time>
      </trkpt>
      <trkpt lat="44.17638" lon="6.82725">
        <ele>2037.3929443359</ele>
        <time>2017-10-28T10:28:39Z</time>
      </trkpt>
      <trkpt lat="44.17631" lon="6.8272">
        <ele>2037.3929443359</ele>
        <time>2017-10-28T10:28:46Z</time>
      </trkpt>
      <trkpt lat="44.17624" lon="6.82717">
        <ele>2039.3929443359</ele>
        <time>2017-10-28T10:28:55Z</time>
      </trkpt>
      <trkpt lat="44.17617" lon="6.82713">
        <ele>2042.3929443359</ele>
        <time>2017-10-28T10:29:04Z</time>
      </trkpt>
      <trkpt lat="44.17611" lon="6.82707">
        <ele>2041.3929443359</ele>
        <time>2017-10-28T10:29:12Z</time>
      </trkpt>
      <trkpt lat="44.17605" lon="6.827">
        <ele>2042.3929443359</ele>
        <time>2017-10-28T10:29:21Z</time>
      </trkpt>
      <trkpt lat="44.17598" lon="6.82696">
        <ele>2043.3929443359</ele>
        <time>2017-10-28T10:29:30Z</time>
      </trkpt>
      <trkpt lat="44.17592" lon="6.82689">
        <ele>2045.3929443359</ele>
        <time>2017-10-28T10:29:38Z</time>
      </trkpt>
      <trkpt lat="44.17585" lon="6.82683">
        <ele>2047.3929443359</ele>
        <time>2017-10-28T10:29:45Z</time>
      </trkpt>
      <trkpt lat="44.17578" lon="6.82679">
        <ele>2050.3930664062</ele>
        <time>2017-10-28T10:29:51Z</time>
      </trkpt>
      <trkpt lat="44.1757" lon="6.82675">
        <ele>2049.3930664062</ele>
        <time>2017-10-28T10:29:58Z</time>
      </trkpt>
      <trkpt lat="44.17563" lon="6.82674">
        <ele>2050.3930664062</ele>
        <time>2017-10-28T10:30:11Z</time>
      </trkpt>
      <trkpt lat="44.17558" lon="6.82667">
        <ele>2053.3930664062</ele>
        <time>2017-10-28T10:30:21Z</time>
      </trkpt>
      <trkpt lat="44.1755" lon="6.82664">
        <ele>2052.3930664062</ele>
        <time>2017-10-28T10:30:30Z</time>
      </trkpt>
      <trkpt lat="44.17542" lon="6.8266">
        <ele>2053.3930664062</ele>
        <time>2017-10-28T10:30:35Z</time>
      </trkpt>
      <trkpt lat="44.17526" lon="6.82651">
        <ele>2053.3930664062</ele>
        <time>2017-10-28T10:30:41Z</time>
      </trkpt>
      <trkpt lat="44.17502" lon="6.82637">
        <ele>2053.3930664062</ele>
        <time>2017-10-28T10:30:48Z</time>
      </trkpt>
      <trkpt lat="44.17486" lon="6.82622">
        <ele>2051.3930664062</ele>
        <time>2017-10-28T10:30:54Z</time>
      </trkpt>
      <trkpt lat="44.17471" lon="6.82603">
        <ele>2050.3930664062</ele>
        <time>2017-10-28T10:30:59Z</time>
      </trkpt>
      <trkpt lat="44.17452" lon="6.82582">
        <ele>2050.3930664062</ele>
        <time>2017-10-28T10:31:05Z</time>
      </trkpt>
      <trkpt lat="44.17429" lon="6.82554">
        <ele>2049.3930664062</ele>
        <time>2017-10-28T10:31:11Z</time>
      </trkpt>
      <trkpt lat="44.17407" lon="6.82537">
        <ele>2049.3930664062</ele>
        <time>2017-10-28T10:31:17Z</time>
      </trkpt>
      <trkpt lat="44.17393" lon="6.82526">
        <ele>2050.3930664062</ele>
        <time>2017-10-28T10:31:22Z</time>
      </trkpt>
      <trkpt lat="44.17377" lon="6.82516">
        <ele>2052.3930664062</ele>
        <time>2017-10-28T10:31:30Z</time>
      </trkpt>
      <trkpt lat="44.17364" lon="6.82501">
        <ele>2054.3930664062</ele>
        <time>2017-10-28T10:31:39Z</time>
      </trkpt>
      <trkpt lat="44.17356" lon="6.82496">
        <ele>2056.3930664062</ele>
        <time>2017-10-28T10:31:45Z</time>
      </trkpt>
      <trkpt lat="44.1735" lon="6.82491">
        <ele>2058.3930664062</ele>
        <time>2017-10-28T10:31:50Z</time>
      </trkpt>
      <trkpt lat="44.17343" lon="6.82483">
        <ele>2058.3930664062</ele>
        <time>2017-10-28T10:31:55Z</time>
      </trkpt>
      <trkpt lat="44.17336" lon="6.82479">
        <ele>2057.3920898438</ele>
        <time>2017-10-28T10:32:04Z</time>
      </trkpt>
      <trkpt lat="44.17331" lon="6.82471">
        <ele>2054.3920898438</ele>
        <time>2017-10-28T10:32:09Z</time>
      </trkpt>
      <trkpt lat="44.17326" lon="6.82464">
        <ele>2057.3920898438</ele>
        <time>2017-10-28T10:32:16Z</time>
      </trkpt>
      <trkpt lat="44.1732" lon="6.82457">
        <ele>2059.3920898438</ele>
        <time>2017-10-28T10:32:26Z</time>
      </trkpt>
      <trkpt lat="44.17314" lon="6.82452">
        <ele>2061.3920898438</ele>
        <time>2017-10-28T10:32:33Z</time>
      </trkpt>
      <trkpt lat="44.17308" lon="6.82445">
        <ele>2064.3920898438</ele>
        <time>2017-10-28T10:32:43Z</time>
      </trkpt>
      <trkpt lat="44.17301" lon="6.8244">
        <ele>2062.3920898438</ele>
        <time>2017-10-28T10:32:51Z</time>
      </trkpt>
      <trkpt lat="44.17294" lon="6.82438">
        <ele>2064.3920898438</ele>
        <time>2017-10-28T10:33:00Z</time>
      </trkpt>
      <trkpt lat="44.17289" lon="6.82431">
        <ele>2066.3920898438</ele>
        <time>2017-10-28T10:33:11Z</time>
      </trkpt>
      <trkpt lat="44.17282" lon="6.82426">
        <ele>2070.3920898438</ele>
        <time>2017-10-28T10:33:25Z</time>
      </trkpt>
      <trkpt lat="44.17277" lon="6.82419">
        <ele>2072.3920898438</ele>
        <time>2017-10-28T10:33:34Z</time>
      </trkpt>
      <trkpt lat="44.17271" lon="6.82413">
        <ele>2072.3920898438</ele>
        <time>2017-10-28T10:33:46Z</time>
      </trkpt>
      <trkpt lat="44.17265" lon="6.82406">
        <ele>2075.3920898438</ele>
        <time>2017-10-28T10:33:54Z</time>
      </trkpt>
      <trkpt lat="44.17258" lon="6.82402">
        <ele>2077.3920898438</ele>
        <time>2017-10-28T10:34:07Z</time>
      </trkpt>
      <trkpt lat="44.17251" lon="6.82399">
        <ele>2074.3920898438</ele>
        <time>2017-10-28T10:34:20Z</time>
      </trkpt>
      <trkpt lat="44.17244" lon="6.82394">
        <ele>2077.3920898438</ele>
        <time>2017-10-28T10:34:30Z</time>
      </trkpt>
      <trkpt lat="44.17237" lon="6.82389">
        <ele>2081.3920898438</ele>
        <time>2017-10-28T10:34:43Z</time>
      </trkpt>
      <trkpt lat="44.1723" lon="6.82389">
        <ele>2084.3920898438</ele>
        <time>2017-10-28T10:34:53Z</time>
      </trkpt>
      <trkpt lat="44.17223" lon="6.82385">
        <ele>2085.3920898438</ele>
        <time>2017-10-28T10:35:05Z</time>
      </trkpt>
      <trkpt lat="44.17215" lon="6.82383">
        <ele>2086.3920898438</ele>
        <time>2017-10-28T10:35:16Z</time>
      </trkpt>
      <trkpt lat="44.17209" lon="6.82378">
        <ele>2089.3920898438</ele>
        <time>2017-10-28T10:35:27Z</time>
      </trkpt>
      <trkpt lat="44.17202" lon="6.82375">
        <ele>2090.3920898438</ele>
        <time>2017-10-28T10:35:37Z</time>
      </trkpt>
      <trkpt lat="44.17194" lon="6.82372">
        <ele>2091.3920898438</ele>
        <time>2017-10-28T10:35:45Z</time>
      </trkpt>
      <trkpt lat="44.17187" lon="6.82368">
        <ele>2094.3920898438</ele>
        <time>2017-10-28T10:35:54Z</time>
      </trkpt>
      <trkpt lat="44.1718" lon="6.82364">
        <ele>2096.3920898438</ele>
        <time>2017-10-28T10:36:17Z</time>
      </trkpt>
      <trkpt lat="44.17172" lon="6.82364">
        <ele>2097.3920898438</ele>
        <time>2017-10-28T10:36:23Z</time>
      </trkpt>
      <trkpt lat="44.17165" lon="6.82365">
        <ele>2096.3920898438</ele>
        <time>2017-10-28T10:36:27Z</time>
      </trkpt>
      <trkpt lat="44.17158" lon="6.82363">
        <ele>2095.3920898438</ele>
        <time>2017-10-28T10:36:33Z</time>
      </trkpt>
      <trkpt lat="44.17149" lon="6.82358">
        <ele>2098.3920898438</ele>
        <time>2017-10-28T10:36:40Z</time>
      </trkpt>
      <trkpt lat="44.17142" lon="6.82356">
        <ele>2100.3920898438</ele>
        <time>2017-10-28T10:36:46Z</time>
      </trkpt>
      <trkpt lat="44.17135" lon="6.82351">
        <ele>2099.3920898438</ele>
        <time>2017-10-28T10:36:52Z</time>
      </trkpt>
      <trkpt lat="44.17128" lon="6.82348">
        <ele>2100.3920898438</ele>
        <time>2017-10-28T10:36:58Z</time>
      </trkpt>
      <trkpt lat="44.17121" lon="6.82342">
        <ele>2100.3920898438</ele>
        <time>2017-10-28T10:37:15Z</time>
      </trkpt>
      <trkpt lat="44.17113" lon="6.82334">
        <ele>2097.3920898438</ele>
        <time>2017-10-28T10:37:20Z</time>
      </trkpt>
      <trkpt lat="44.17099" lon="6.82322">
        <ele>2100.3920898438</ele>
        <time>2017-10-28T10:37:28Z</time>
      </trkpt>
      <trkpt lat="44.17085" lon="6.82309">
        <ele>2101.3920898438</ele>
        <time>2017-10-28T10:37:36Z</time>
      </trkpt>
      <trkpt lat="44.17078" lon="6.823">
        <ele>2103.3920898438</ele>
        <time>2017-10-28T10:37:42Z</time>
      </trkpt>
      <trkpt lat="44.17064" lon="6.8229">
        <ele>2104.3920898438</ele>
        <time>2017-10-28T10:37:50Z</time>
      </trkpt>
      <trkpt lat="44.17056" lon="6.82284">
        <ele>2105.3920898438</ele>
        <time>2017-10-28T10:37:55Z</time>
      </trkpt>
      <trkpt lat="44.17048" lon="6.82278">
        <ele>2107.3920898438</ele>
        <time>2017-10-28T10:38:00Z</time>
      </trkpt>
      <trkpt lat="44.17042" lon="6.82272">
        <ele>2107.3920898438</ele>
        <time>2017-10-28T10:38:05Z</time>
      </trkpt>
      <trkpt lat="44.17036" lon="6.82265">
        <ele>2109.3920898438</ele>
        <time>2017-10-28T10:38:11Z</time>
      </trkpt>
      <trkpt lat="44.17031" lon="6.82256">
        <ele>2109.3920898438</ele>
        <time>2017-10-28T10:38:17Z</time>
      </trkpt>
      <trkpt lat="44.17027" lon="6.82247">
        <ele>2110.3920898438</ele>
        <time>2017-10-28T10:38:24Z</time>
      </trkpt>
      <trkpt lat="44.1702" lon="6.8224">
        <ele>2111.3920898438</ele>
        <time>2017-10-28T10:38:31Z</time>
      </trkpt>
      <trkpt lat="44.17014" lon="6.82235">
        <ele>2112.3920898438</ele>
        <time>2017-10-28T10:38:37Z</time>
      </trkpt>
      <trkpt lat="44.17" lon="6.8222">
        <ele>2111.3911132812</ele>
        <time>2017-10-28T10:38:42Z</time>
      </trkpt>
      <trkpt lat="44.1698" lon="6.82197">
        <ele>2109.3911132812</ele>
        <time>2017-10-28T10:38:48Z</time>
      </trkpt>
      <trkpt lat="44.16954" lon="6.82163">
        <ele>2108.3911132812</ele>
        <time>2017-10-28T10:38:54Z</time>
      </trkpt>
      <trkpt lat="44.16925" lon="6.82141">
        <ele>2105.3911132812</ele>
        <time>2017-10-28T10:39:00Z</time>
      </trkpt>
      <trkpt lat="44.169" lon="6.82133">
        <ele>2106.3911132812</ele>
        <time>2017-10-28T10:39:06Z</time>
      </trkpt>
      <trkpt lat="44.16883" lon="6.82116">
        <ele>2105.3911132812</ele>
        <time>2017-10-28T10:39:11Z</time>
      </trkpt>
      <trkpt lat="44.16859" lon="6.82097">
        <ele>2106.3911132812</ele>
        <time>2017-10-28T10:39:17Z</time>
      </trkpt>
      <trkpt lat="44.16835" lon="6.82083">
        <ele>2108.3911132812</ele>
        <time>2017-10-28T10:39:24Z</time>
      </trkpt>
      <trkpt lat="44.16816" lon="6.82078">
        <ele>2106.3911132812</ele>
        <time>2017-10-28T10:39:30Z</time>
      </trkpt>
      <trkpt lat="44.16799" lon="6.82077">
        <ele>2108.3911132812</ele>
        <time>2017-10-28T10:39:35Z</time>
      </trkpt>
      <trkpt lat="44.16784" lon="6.82071">
        <ele>2108.3911132812</ele>
        <time>2017-10-28T10:39:42Z</time>
      </trkpt>
      <trkpt lat="44.16777" lon="6.82064">
        <ele>2110.3911132812</ele>
        <time>2017-10-28T10:39:47Z</time>
      </trkpt>
      <trkpt lat="44.16772" lon="6.82057">
        <ele>2112.3911132812</ele>
        <time>2017-10-28T10:39:52Z</time>
      </trkpt>
      <trkpt lat="44.16763" lon="6.82038">
        <ele>2109.3911132812</ele>
        <time>2017-10-28T10:39:59Z</time>
      </trkpt>
      <trkpt lat="44.16753" lon="6.82018">
        <ele>2106.3911132812</ele>
        <time>2017-10-28T10:40:04Z</time>
      </trkpt>
      <trkpt lat="44.16727" lon="6.8199">
        <ele>2104.3911132812</ele>
        <time>2017-10-28T10:40:10Z</time>
      </trkpt>
      <trkpt lat="44.16704" lon="6.81969">
        <ele>2105.3911132812</ele>
        <time>2017-10-28T10:40:16Z</time>
      </trkpt>
      <trkpt lat="44.16682" lon="6.81951">
        <ele>2105.3898925781</ele>
        <time>2017-10-28T10:40:22Z</time>
      </trkpt>
      <trkpt lat="44.16659" lon="6.81932">
        <ele>2107.3898925781</ele>
        <time>2017-10-28T10:40:29Z</time>
      </trkpt>
      <trkpt lat="44.16648" lon="6.81909">
        <ele>2109.3898925781</ele>
        <time>2017-10-28T10:40:36Z</time>
      </trkpt>
      <trkpt lat="44.16639" lon="6.81892">
        <ele>2108.3898925781</ele>
        <time>2017-10-28T10:40:42Z</time>
      </trkpt>
      <trkpt lat="44.16634" lon="6.81868">
        <ele>2108.3898925781</ele>
        <time>2017-10-28T10:40:48Z</time>
      </trkpt>
      <trkpt lat="44.1662" lon="6.81851">
        <ele>2109.3898925781</ele>
        <time>2017-10-28T10:40:54Z</time>
      </trkpt>
      <trkpt lat="44.16605" lon="6.81839">
        <ele>2111.3898925781</ele>
        <time>2017-10-28T10:41:02Z</time>
      </trkpt>
      <trkpt lat="44.1659" lon="6.81817">
        <ele>2110.3898925781</ele>
        <time>2017-10-28T10:41:07Z</time>
      </trkpt>
      <trkpt lat="44.16566" lon="6.81791">
        <ele>2108.3898925781</ele>
        <time>2017-10-28T10:41:13Z</time>
      </trkpt>
      <trkpt lat="44.16548" lon="6.81785">
        <ele>2110.3898925781</ele>
        <time>2017-10-28T10:41:18Z</time>
      </trkpt>
      <trkpt lat="44.16533" lon="6.81781">
        <ele>2111.3898925781</ele>
        <time>2017-10-28T10:41:24Z</time>
      </trkpt>
      <trkpt lat="44.16516" lon="6.8177">
        <ele>2112.3898925781</ele>
        <time>2017-10-28T10:41:30Z</time>
      </trkpt>
      <trkpt lat="44.16501" lon="6.81762">
        <ele>2113.3898925781</ele>
        <time>2017-10-28T10:41:36Z</time>
      </trkpt>
      <trkpt lat="44.16487" lon="6.81755">
        <ele>2114.3898925781</ele>
        <time>2017-10-28T10:41:43Z</time>
      </trkpt>
      <trkpt lat="44.16473" lon="6.81743">
        <ele>2115.3898925781</ele>
        <time>2017-10-28T10:41:51Z</time>
      </trkpt>
      <trkpt lat="44.1646" lon="6.81732">
        <ele>2116.3898925781</ele>
        <time>2017-10-28T10:41:57Z</time>
      </trkpt>
      <trkpt lat="44.16447" lon="6.81721">
        <ele>2118.3898925781</ele>
        <time>2017-10-28T10:42:03Z</time>
      </trkpt>
      <trkpt lat="44.16432" lon="6.81709">
        <ele>2118.3898925781</ele>
        <time>2017-10-28T10:42:09Z</time>
      </trkpt>
      <trkpt lat="44.16418" lon="6.81698">
        <ele>2114.3898925781</ele>
        <time>2017-10-28T10:42:16Z</time>
      </trkpt>
      <trkpt lat="44.16402" lon="6.81688">
        <ele>2112.3889160156</ele>
        <time>2017-10-28T10:42:23Z</time>
      </trkpt>
      <trkpt lat="44.16385" lon="6.81688">
        <ele>2113.3889160156</ele>
        <time>2017-10-28T10:42:30Z</time>
      </trkpt>
      <trkpt lat="44.16372" lon="6.81675">
        <ele>2114.3889160156</ele>
        <time>2017-10-28T10:42:39Z</time>
      </trkpt>
      <trkpt lat="44.16366" lon="6.81667">
        <ele>2114.3889160156</ele>
        <time>2017-10-28T10:42:45Z</time>
      </trkpt>
      <trkpt lat="44.16359" lon="6.81664">
        <ele>2115.3889160156</ele>
        <time>2017-10-28T10:42:51Z</time>
      </trkpt>
      <trkpt lat="44.16351" lon="6.81665">
        <ele>2116.3889160156</ele>
        <time>2017-10-28T10:42:56Z</time>
      </trkpt>
      <trkpt lat="44.16343" lon="6.81664">
        <ele>2117.3889160156</ele>
        <time>2017-10-28T10:43:01Z</time>
      </trkpt>
      <trkpt lat="44.16336" lon="6.81662">
        <ele>2118.3889160156</ele>
        <time>2017-10-28T10:43:06Z</time>
      </trkpt>
      <trkpt lat="44.16328" lon="6.81658">
        <ele>2121.3889160156</ele>
        <time>2017-10-28T10:43:13Z</time>
      </trkpt>
      <trkpt lat="44.16321" lon="6.81654">
        <ele>2123.3889160156</ele>
        <time>2017-10-28T10:43:21Z</time>
      </trkpt>
      <trkpt lat="44.16315" lon="6.81648">
        <ele>2124.3889160156</ele>
        <time>2017-10-28T10:43:29Z</time>
      </trkpt>
      <trkpt lat="44.16308" lon="6.81643">
        <ele>2125.3889160156</ele>
        <time>2017-10-28T10:43:36Z</time>
      </trkpt>
      <trkpt lat="44.16302" lon="6.81636">
        <ele>2129.3889160156</ele>
        <time>2017-10-28T10:43:43Z</time>
      </trkpt>
      <trkpt lat="44.16296" lon="6.81629">
        <ele>2130.3889160156</ele>
        <time>2017-10-28T10:43:50Z</time>
      </trkpt>
      <trkpt lat="44.16289" lon="6.81623">
        <ele>2130.3889160156</ele>
        <time>2017-10-28T10:43:56Z</time>
      </trkpt>
      <trkpt lat="44.16283" lon="6.81616">
        <ele>2130.3889160156</ele>
        <time>2017-10-28T10:44:03Z</time>
      </trkpt>
      <trkpt lat="44.16276" lon="6.81611">
        <ele>2129.3889160156</ele>
        <time>2017-10-28T10:44:09Z</time>
      </trkpt>
      <trkpt lat="44.16267" lon="6.81606">
        <ele>2129.3889160156</ele>
        <time>2017-10-28T10:44:14Z</time>
      </trkpt>
      <trkpt lat="44.16259" lon="6.81602">
        <ele>2129.3889160156</ele>
        <time>2017-10-28T10:44:20Z</time>
      </trkpt>
      <trkpt lat="44.16253" lon="6.81596">
        <ele>2130.3889160156</ele>
        <time>2017-10-28T10:44:25Z</time>
      </trkpt>
      <trkpt lat="44.16245" lon="6.81593">
        <ele>2131.3889160156</ele>
        <time>2017-10-28T10:44:32Z</time>
      </trkpt>
      <trkpt lat="44.16237" lon="6.81593">
        <ele>2132.3889160156</ele>
        <time>2017-10-28T10:44:37Z</time>
      </trkpt>
      <trkpt lat="44.16222" lon="6.8159">
        <ele>2133.3889160156</ele>
        <time>2017-10-28T10:44:47Z</time>
      </trkpt>
      <trkpt lat="44.16214" lon="6.81588">
        <ele>2135.3889160156</ele>
        <time>2017-10-28T10:44:52Z</time>
      </trkpt>
      <trkpt lat="44.16206" lon="6.81585">
        <ele>2135.3889160156</ele>
        <time>2017-10-28T10:44:57Z</time>
      </trkpt>
      <trkpt lat="44.16199" lon="6.8158">
        <ele>2135.3889160156</ele>
        <time>2017-10-28T10:45:03Z</time>
      </trkpt>
      <trkpt lat="44.16191" lon="6.81581">
        <ele>2136.3889160156</ele>
        <time>2017-10-28T10:45:10Z</time>
      </trkpt>
      <trkpt lat="44.16182" lon="6.81581">
        <ele>2136.3889160156</ele>
        <time>2017-10-28T10:48:54Z</time>
      </trkpt>
      <trkpt lat="44.16174" lon="6.81578">
        <ele>2136.3889160156</ele>
        <time>2017-10-28T10:48:59Z</time>
      </trkpt>
      <trkpt lat="44.16157" lon="6.81571">
        <ele>2136.3889160156</ele>
        <time>2017-10-28T10:49:07Z</time>
      </trkpt>
      <trkpt lat="44.16141" lon="6.81567">
        <ele>2135.3889160156</ele>
        <time>2017-10-28T10:49:15Z</time>
      </trkpt>
      <trkpt lat="44.16124" lon="6.81561">
        <ele>2134.3889160156</ele>
        <time>2017-10-28T10:49:24Z</time>
      </trkpt>
      <trkpt lat="44.16122" lon="6.81552">
        <ele>2133.3889160156</ele>
        <time>2017-10-28T10:51:33Z</time>
      </trkpt>
      <trkpt lat="44.16121" lon="6.81562">
        <ele>2136.3889160156</ele>
        <time>2017-10-28T10:53:54Z</time>
      </trkpt>
      <trkpt lat="44.16114" lon="6.8156">
        <ele>2137.3889160156</ele>
        <time>2017-10-28T10:54:53Z</time>
      </trkpt>
      <trkpt lat="44.16097" lon="6.81551">
        <ele>2135.3889160156</ele>
        <time>2017-10-28T10:54:58Z</time>
      </trkpt>
      <trkpt lat="44.1608" lon="6.81543">
        <ele>2135.3889160156</ele>
        <time>2017-10-28T10:55:03Z</time>
      </trkpt>
      <trkpt lat="44.16063" lon="6.81534">
        <ele>2135.3889160156</ele>
        <time>2017-10-28T10:55:08Z</time>
      </trkpt>
      <trkpt lat="44.16041" lon="6.81528">
        <ele>2136.3889160156</ele>
        <time>2017-10-28T10:55:14Z</time>
      </trkpt>
      <trkpt lat="44.16018" lon="6.81525">
        <ele>2134.3889160156</ele>
        <time>2017-10-28T10:55:20Z</time>
      </trkpt>
      <trkpt lat="44.15993" lon="6.81515">
        <ele>2137.3879394531</ele>
        <time>2017-10-28T10:55:26Z</time>
      </trkpt>
      <trkpt lat="44.15974" lon="6.81512">
        <ele>2136.3879394531</ele>
        <time>2017-10-28T10:55:32Z</time>
      </trkpt>
      <trkpt lat="44.15954" lon="6.81509">
        <ele>2139.3879394531</ele>
        <time>2017-10-28T10:55:38Z</time>
      </trkpt>
      <trkpt lat="44.15938" lon="6.81507">
        <ele>2140.3879394531</ele>
        <time>2017-10-28T10:55:46Z</time>
      </trkpt>
      <trkpt lat="44.15929" lon="6.81505">
        <ele>2140.3879394531</ele>
        <time>2017-10-28T10:56:06Z</time>
      </trkpt>
      <trkpt lat="44.1592" lon="6.81503">
        <ele>2140.3879394531</ele>
        <time>2017-10-28T10:56:11Z</time>
      </trkpt>
      <trkpt lat="44.15903" lon="6.81504">
        <ele>2140.3879394531</ele>
        <time>2017-10-28T10:56:19Z</time>
      </trkpt>
      <trkpt lat="44.15888" lon="6.81505">
        <ele>2140.3879394531</ele>
        <time>2017-10-28T10:56:27Z</time>
      </trkpt>
      <trkpt lat="44.15879" lon="6.81505">
        <ele>2140.3879394531</ele>
        <time>2017-10-28T10:56:32Z</time>
      </trkpt>
      <trkpt lat="44.15862" lon="6.8151">
        <ele>2139.3879394531</ele>
        <time>2017-10-28T10:56:40Z</time>
      </trkpt>
      <trkpt lat="44.15847" lon="6.81512">
        <ele>2140.3879394531</ele>
        <time>2017-10-28T10:56:49Z</time>
      </trkpt>
      <trkpt lat="44.15838" lon="6.81512">
        <ele>2140.3879394531</ele>
        <time>2017-10-28T10:57:14Z</time>
      </trkpt>
      <trkpt lat="44.1583" lon="6.81514">
        <ele>2141.3879394531</ele>
        <time>2017-10-28T10:57:23Z</time>
      </trkpt>
      <trkpt lat="44.15823" lon="6.81513">
        <ele>2144.3879394531</ele>
        <time>2017-10-28T10:57:32Z</time>
      </trkpt>
      <trkpt lat="44.15816" lon="6.81511">
        <ele>2144.3879394531</ele>
        <time>2017-10-28T10:57:41Z</time>
      </trkpt>
      <trkpt lat="44.15807" lon="6.81512">
        <ele>2147.3879394531</ele>
        <time>2017-10-28T10:57:50Z</time>
      </trkpt>
      <trkpt lat="44.158" lon="6.81514">
        <ele>2151.3879394531</ele>
        <time>2017-10-28T10:58:02Z</time>
      </trkpt>
      <trkpt lat="44.15792" lon="6.81511">
        <ele>2152.3879394531</ele>
        <time>2017-10-28T10:58:10Z</time>
      </trkpt>
      <trkpt lat="44.15784" lon="6.81514">
        <ele>2154.3879394531</ele>
        <time>2017-10-28T10:58:18Z</time>
      </trkpt>
      <trkpt lat="44.15776" lon="6.81514">
        <ele>2154.3879394531</ele>
        <time>2017-10-28T10:58:26Z</time>
      </trkpt>
      <trkpt lat="44.15769" lon="6.81515">
        <ele>2154.3879394531</ele>
        <time>2017-10-28T10:58:32Z</time>
      </trkpt>
      <trkpt lat="44.15761" lon="6.81516">
        <ele>2159.3879394531</ele>
        <time>2017-10-28T10:58:46Z</time>
      </trkpt>
      <trkpt lat="44.15753" lon="6.81512">
        <ele>2159.3879394531</ele>
        <time>2017-10-28T10:58:55Z</time>
      </trkpt>
      <trkpt lat="44.15746" lon="6.81509">
        <ele>2160.3879394531</ele>
        <time>2017-10-28T10:59:03Z</time>
      </trkpt>
      <trkpt lat="44.15738" lon="6.81506">
        <ele>2164.3879394531</ele>
        <time>2017-10-28T11:31:20Z</time>
      </trkpt>
      <trkpt lat="44.15723" lon="6.8149">
        <ele>2162.3879394531</ele>
        <time>2017-10-28T11:31:27Z</time>
      </trkpt>
      <trkpt lat="44.15718" lon="6.81481">
        <ele>2159.3879394531</ele>
        <time>2017-10-28T11:31:58Z</time>
      </trkpt>
      <trkpt lat="44.15705" lon="6.81465">
        <ele>2155.3879394531</ele>
        <time>2017-10-28T11:32:07Z</time>
      </trkpt>
      <trkpt lat="44.15697" lon="6.81461">
        <ele>2153.3879394531</ele>
        <time>2017-10-28T11:32:13Z</time>
      </trkpt>
      <trkpt lat="44.15691" lon="6.81455">
        <ele>2152.3879394531</ele>
        <time>2017-10-28T11:32:20Z</time>
      </trkpt>
      <trkpt lat="44.15683" lon="6.81451">
        <ele>2146.3879394531</ele>
        <time>2017-10-28T11:32:34Z</time>
      </trkpt>
      <trkpt lat="44.15676" lon="6.81446">
        <ele>2142.3879394531</ele>
        <time>2017-10-28T11:32:39Z</time>
      </trkpt>
      <trkpt lat="44.15669" lon="6.81442">
        <ele>2138.3879394531</ele>
        <time>2017-10-28T11:32:44Z</time>
      </trkpt>
      <trkpt lat="44.15661" lon="6.81438">
        <ele>2135.3879394531</ele>
        <time>2017-10-28T11:32:51Z</time>
      </trkpt>
      <trkpt lat="44.15656" lon="6.8143">
        <ele>2130.3879394531</ele>
        <time>2017-10-28T11:32:59Z</time>
      </trkpt>
      <trkpt lat="44.1565" lon="6.81424">
        <ele>2127.3879394531</ele>
        <time>2017-10-28T11:33:08Z</time>
      </trkpt>
      <trkpt lat="44.15643" lon="6.81417">
        <ele>2124.3879394531</ele>
        <time>2017-10-28T11:33:14Z</time>
      </trkpt>
      <trkpt lat="44.15636" lon="6.81415">
        <ele>2124.3879394531</ele>
        <time>2017-10-28T11:33:42Z</time>
      </trkpt>
      <trkpt lat="44.15621" lon="6.8142">
        <ele>2120.3879394531</ele>
        <time>2017-10-28T11:33:50Z</time>
      </trkpt>
      <trkpt lat="44.15604" lon="6.8143">
        <ele>2117.3879394531</ele>
        <time>2017-10-28T11:33:56Z</time>
      </trkpt>
      <trkpt lat="44.15593" lon="6.81435">
        <ele>2114.3879394531</ele>
        <time>2017-10-28T11:35:12Z</time>
      </trkpt>
      <trkpt lat="44.15567" lon="6.81449">
        <ele>2106.3879394531</ele>
        <time>2017-10-28T11:35:18Z</time>
      </trkpt>
      <trkpt lat="44.15549" lon="6.81459">
        <ele>2097.3879394531</ele>
        <time>2017-10-28T11:35:25Z</time>
      </trkpt>
      <trkpt lat="44.15535" lon="6.81471">
        <ele>2089.3879394531</ele>
        <time>2017-10-28T11:35:31Z</time>
      </trkpt>
      <trkpt lat="44.15517" lon="6.81483">
        <ele>2083.3879394531</ele>
        <time>2017-10-28T11:35:36Z</time>
      </trkpt>
      <trkpt lat="44.155" lon="6.81493">
        <ele>2080.3879394531</ele>
        <time>2017-10-28T11:35:41Z</time>
      </trkpt>
      <trkpt lat="44.15481" lon="6.81502">
        <ele>2070.3879394531</ele>
        <time>2017-10-28T11:35:46Z</time>
      </trkpt>
      <trkpt lat="44.15451" lon="6.81518">
        <ele>2067.3879394531</ele>
        <time>2017-10-28T11:35:53Z</time>
      </trkpt>
      <trkpt lat="44.15429" lon="6.81529">
        <ele>2064.3879394531</ele>
        <time>2017-10-28T11:36:00Z</time>
      </trkpt>
      <trkpt lat="44.15423" lon="6.81537">
        <ele>2061.3879394531</ele>
        <time>2017-10-28T11:36:44Z</time>
      </trkpt>
      <trkpt lat="44.15416" lon="6.81559">
        <ele>2054.3879394531</ele>
        <time>2017-10-28T11:36:51Z</time>
      </trkpt>
      <trkpt lat="44.154" lon="6.81588">
        <ele>2047.3879394531</ele>
        <time>2017-10-28T11:36:57Z</time>
      </trkpt>
      <trkpt lat="44.15376" lon="6.81606">
        <ele>2040.3879394531</ele>
        <time>2017-10-28T11:37:03Z</time>
      </trkpt>
      <trkpt lat="44.15351" lon="6.81617">
        <ele>2036.3879394531</ele>
        <time>2017-10-28T11:37:09Z</time>
      </trkpt>
      <trkpt lat="44.15325" lon="6.81611">
        <ele>2028.3879394531</ele>
        <time>2017-10-28T11:37:16Z</time>
      </trkpt>
      <trkpt lat="44.15308" lon="6.81611">
        <ele>2022.3879394531</ele>
        <time>2017-10-28T11:37:22Z</time>
      </trkpt>
      <trkpt lat="44.15301" lon="6.81614">
        <ele>2021.3879394531</ele>
        <time>2017-10-28T11:37:42Z</time>
      </trkpt>
      <trkpt lat="44.15308" lon="6.81617">
        <ele>2021.3879394531</ele>
        <time>2017-10-28T11:37:54Z</time>
      </trkpt>
      <trkpt lat="44.15316" lon="6.81617">
        <ele>2025.3879394531</ele>
        <time>2017-10-28T11:38:04Z</time>
      </trkpt>
      <trkpt lat="44.15323" lon="6.81622">
        <ele>2024.3879394531</ele>
        <time>2017-10-28T11:38:11Z</time>
      </trkpt>
      <trkpt lat="44.15331" lon="6.81625">
        <ele>2027.3879394531</ele>
        <time>2017-10-28T11:38:20Z</time>
      </trkpt>
      <trkpt lat="44.15338" lon="6.81628">
        <ele>2025.3879394531</ele>
        <time>2017-10-28T11:38:31Z</time>
      </trkpt>
      <trkpt lat="44.15341" lon="6.81637">
        <ele>2027.3879394531</ele>
        <time>2017-10-28T11:38:37Z</time>
      </trkpt>
      <trkpt lat="44.15336" lon="6.81646">
        <ele>2027.3879394531</ele>
        <time>2017-10-28T11:38:51Z</time>
      </trkpt>
      <trkpt lat="44.15323" lon="6.81661">
        <ele>2022.3879394531</ele>
        <time>2017-10-28T11:38:59Z</time>
      </trkpt>
      <trkpt lat="44.15305" lon="6.81665">
        <ele>2017.3879394531</ele>
        <time>2017-10-28T11:39:06Z</time>
      </trkpt>
      <trkpt lat="44.15287" lon="6.81667">
        <ele>2011.3879394531</ele>
        <time>2017-10-28T11:39:11Z</time>
      </trkpt>
      <trkpt lat="44.15265" lon="6.81666">
        <ele>2003.3879394531</ele>
        <time>2017-10-28T11:39:17Z</time>
      </trkpt>
      <trkpt lat="44.15245" lon="6.8166">
        <ele>1998.3879394531</ele>
        <time>2017-10-28T11:39:22Z</time>
      </trkpt>
      <trkpt lat="44.15221" lon="6.8166">
        <ele>1990.3879394531</ele>
        <time>2017-10-28T11:39:29Z</time>
      </trkpt>
      <trkpt lat="44.15215" lon="6.8165">
        <ele>1989.3879394531</ele>
        <time>2017-10-28T11:39:37Z</time>
      </trkpt>
      <trkpt lat="44.15201" lon="6.81644">
        <ele>1986.3869628906</ele>
        <time>2017-10-28T11:40:33Z</time>
      </trkpt>
      <trkpt lat="44.1518" lon="6.81662">
        <ele>1984.3869628906</ele>
        <time>2017-10-28T11:40:40Z</time>
      </trkpt>
      <trkpt lat="44.15162" lon="6.81671">
        <ele>1982.3869628906</ele>
        <time>2017-10-28T11:40:45Z</time>
      </trkpt>
      <trkpt lat="44.15143" lon="6.81687">
        <ele>1978.3869628906</ele>
        <time>2017-10-28T11:40:51Z</time>
      </trkpt>
      <trkpt lat="44.15131" lon="6.81702">
        <ele>1976.3869628906</ele>
        <time>2017-10-28T11:40:56Z</time>
      </trkpt>
      <trkpt lat="44.15125" lon="6.81723">
        <ele>1975.3879394531</ele>
        <time>2017-10-28T11:41:02Z</time>
      </trkpt>
      <trkpt lat="44.15117" lon="6.81742">
        <ele>1977.3879394531</ele>
        <time>2017-10-28T11:41:08Z</time>
      </trkpt>
      <trkpt lat="44.15112" lon="6.81766">
        <ele>1976.3879394531</ele>
        <time>2017-10-28T11:41:15Z</time>
      </trkpt>
      <trkpt lat="44.15106" lon="6.81788">
        <ele>1972.3879394531</ele>
        <time>2017-10-28T11:41:28Z</time>
      </trkpt>
      <trkpt lat="44.15102" lon="6.81796">
        <ele>1972.3879394531</ele>
        <time>2017-10-28T11:41:35Z</time>
      </trkpt>
      <trkpt lat="44.1509" lon="6.81817">
        <ele>1969.3879394531</ele>
        <time>2017-10-28T11:41:41Z</time>
      </trkpt>
      <trkpt lat="44.15077" lon="6.81842">
        <ele>1968.3879394531</ele>
        <time>2017-10-28T11:41:47Z</time>
      </trkpt>
      <trkpt lat="44.15066" lon="6.81858">
        <ele>1966.3879394531</ele>
        <time>2017-10-28T11:41:52Z</time>
      </trkpt>
      <trkpt lat="44.15049" lon="6.8187">
        <ele>1968.3879394531</ele>
        <time>2017-10-28T11:41:59Z</time>
      </trkpt>
      <trkpt lat="44.15034" lon="6.81878">
        <ele>1968.3879394531</ele>
        <time>2017-10-28T11:42:05Z</time>
      </trkpt>
      <trkpt lat="44.15018" lon="6.81878">
        <ele>1965.3879394531</ele>
        <time>2017-10-28T11:42:11Z</time>
      </trkpt>
      <trkpt lat="44.14992" lon="6.8189">
        <ele>1965.3879394531</ele>
        <time>2017-10-28T11:42:17Z</time>
      </trkpt>
      <trkpt lat="44.14978" lon="6.81915">
        <ele>1964.3879394531</ele>
        <time>2017-10-28T11:42:24Z</time>
      </trkpt>
      <trkpt lat="44.14963" lon="6.81923">
        <ele>1964.3879394531</ele>
        <time>2017-10-28T11:42:32Z</time>
      </trkpt>
      <trkpt lat="44.14947" lon="6.81931">
        <ele>1965.3879394531</ele>
        <time>2017-10-28T11:42:39Z</time>
      </trkpt>
      <trkpt lat="44.1494" lon="6.81933">
        <ele>1965.3879394531</ele>
        <time>2017-10-28T11:42:44Z</time>
      </trkpt>
      <trkpt lat="44.14935" lon="6.81941">
        <ele>1962.3879394531</ele>
        <time>2017-10-28T11:42:59Z</time>
      </trkpt>
      <trkpt lat="44.14932" lon="6.81951">
        <ele>1960.3879394531</ele>
        <time>2017-10-28T11:43:04Z</time>
      </trkpt>
      <trkpt lat="44.1493" lon="6.81961">
        <ele>1959.3879394531</ele>
        <time>2017-10-28T11:43:15Z</time>
      </trkpt>
      <trkpt lat="44.14922" lon="6.81959">
        <ele>1958.3879394531</ele>
        <time>2017-10-28T11:43:21Z</time>
      </trkpt>
      <trkpt lat="44.14905" lon="6.81956">
        <ele>1956.3879394531</ele>
        <time>2017-10-28T11:43:27Z</time>
      </trkpt>
      <trkpt lat="44.1489" lon="6.81961">
        <ele>1956.3879394531</ele>
        <time>2017-10-28T11:43:33Z</time>
      </trkpt>
      <trkpt lat="44.14882" lon="6.81962">
        <ele>1955.3879394531</ele>
        <time>2017-10-28T11:43:41Z</time>
      </trkpt>
      <trkpt lat="44.14874" lon="6.81967">
        <ele>1954.3879394531</ele>
        <time>2017-10-28T11:43:49Z</time>
      </trkpt>
      <trkpt lat="44.14866" lon="6.81972">
        <ele>1951.3879394531</ele>
        <time>2017-10-28T11:43:54Z</time>
      </trkpt>
      <trkpt lat="44.14859" lon="6.81975">
        <ele>1953.3879394531</ele>
        <time>2017-10-28T11:43:59Z</time>
      </trkpt>
      <trkpt lat="44.14852" lon="6.81978">
        <ele>1954.3879394531</ele>
        <time>2017-10-28T11:44:09Z</time>
      </trkpt>
      <trkpt lat="44.1486" lon="6.8198">
        <ele>1950.3879394531</ele>
        <time>2017-10-28T11:44:26Z</time>
      </trkpt>
      <trkpt lat="44.14867" lon="6.8198">
        <ele>1949.3879394531</ele>
        <time>2017-10-28T11:44:32Z</time>
      </trkpt>
      <trkpt lat="44.14883" lon="6.81988">
        <ele>1943.3879394531</ele>
        <time>2017-10-28T11:44:40Z</time>
      </trkpt>
      <trkpt lat="44.14884" lon="6.82011">
        <ele>1933.3879394531</ele>
        <time>2017-10-28T11:44:49Z</time>
      </trkpt>
      <trkpt lat="44.14869" lon="6.82024">
        <ele>1928.3879394531</ele>
        <time>2017-10-28T11:44:57Z</time>
      </trkpt>
      <trkpt lat="44.1485" lon="6.82026">
        <ele>1928.3879394531</ele>
        <time>2017-10-28T11:45:03Z</time>
      </trkpt>
      <trkpt lat="44.14833" lon="6.82028">
        <ele>1926.3879394531</ele>
        <time>2017-10-28T11:45:08Z</time>
      </trkpt>
      <trkpt lat="44.14816" lon="6.82026">
        <ele>1921.3879394531</ele>
        <time>2017-10-28T11:45:14Z</time>
      </trkpt>
      <trkpt lat="44.14791" lon="6.82033">
        <ele>1921.3879394531</ele>
        <time>2017-10-28T11:45:20Z</time>
      </trkpt>
      <trkpt lat="44.14774" lon="6.82036">
        <ele>1919.3879394531</ele>
        <time>2017-10-28T11:45:32Z</time>
      </trkpt>
      <trkpt lat="44.14768" lon="6.82041">
        <ele>1918.3879394531</ele>
        <time>2017-10-28T11:45:38Z</time>
      </trkpt>
      <trkpt lat="44.14751" lon="6.8205">
        <ele>1915.3879394531</ele>
        <time>2017-10-28T11:45:45Z</time>
      </trkpt>
      <trkpt lat="44.14732" lon="6.82054">
        <ele>1913.3879394531</ele>
        <time>2017-10-28T11:45:50Z</time>
      </trkpt>
      <trkpt lat="44.14697" lon="6.82061">
        <ele>1909.3869628906</ele>
        <time>2017-10-28T11:45:56Z</time>
      </trkpt>
      <trkpt lat="44.14663" lon="6.82065">
        <ele>1905.3869628906</ele>
        <time>2017-10-28T11:46:02Z</time>
      </trkpt>
      <trkpt lat="44.14634" lon="6.82087">
        <ele>1902.3869628906</ele>
        <time>2017-10-28T11:46:08Z</time>
      </trkpt>
      <trkpt lat="44.14616" lon="6.8211">
        <ele>1902.3869628906</ele>
        <time>2017-10-28T11:46:14Z</time>
      </trkpt>
      <trkpt lat="44.14604" lon="6.82128">
        <ele>1900.3869628906</ele>
        <time>2017-10-28T11:47:04Z</time>
      </trkpt>
      <trkpt lat="44.146" lon="6.82149">
        <ele>1894.3879394531</ele>
        <time>2017-10-28T11:47:11Z</time>
      </trkpt>
      <trkpt lat="44.14592" lon="6.82183">
        <ele>1890.3879394531</ele>
        <time>2017-10-28T11:47:17Z</time>
      </trkpt>
      <trkpt lat="44.14583" lon="6.82223">
        <ele>1887.3879394531</ele>
        <time>2017-10-28T11:47:23Z</time>
      </trkpt>
      <trkpt lat="44.14573" lon="6.82247">
        <ele>1885.3879394531</ele>
        <time>2017-10-28T11:47:29Z</time>
      </trkpt>
      <trkpt lat="44.14563" lon="6.82271">
        <ele>1880.3879394531</ele>
        <time>2017-10-28T11:47:35Z</time>
      </trkpt>
      <trkpt lat="44.14552" lon="6.82292">
        <ele>1878.3879394531</ele>
        <time>2017-10-28T11:47:40Z</time>
      </trkpt>
      <trkpt lat="44.14539" lon="6.82306">
        <ele>1877.3879394531</ele>
        <time>2017-10-28T11:47:47Z</time>
      </trkpt>
      <trkpt lat="44.14519" lon="6.82331">
        <ele>1871.3879394531</ele>
        <time>2017-10-28T11:47:54Z</time>
      </trkpt>
      <trkpt lat="44.14497" lon="6.82353">
        <ele>1869.3879394531</ele>
        <time>2017-10-28T11:48:00Z</time>
      </trkpt>
      <trkpt lat="44.14472" lon="6.82362">
        <ele>1865.3879394531</ele>
        <time>2017-10-28T11:48:06Z</time>
      </trkpt>
      <trkpt lat="44.14462" lon="6.82365">
        <ele>1865.3879394531</ele>
        <time>2017-10-28T11:48:29Z</time>
      </trkpt>
      <trkpt lat="44.14451" lon="6.82379">
        <ele>1859.3879394531</ele>
        <time>2017-10-28T11:48:35Z</time>
      </trkpt>
      <trkpt lat="44.14436" lon="6.82393">
        <ele>1852.3879394531</ele>
        <time>2017-10-28T11:48:40Z</time>
      </trkpt>
      <trkpt lat="44.14416" lon="6.82416">
        <ele>1842.3879394531</ele>
        <time>2017-10-28T11:48:47Z</time>
      </trkpt>
      <trkpt lat="44.14402" lon="6.82432">
        <ele>1836.3879394531</ele>
        <time>2017-10-28T11:48:52Z</time>
      </trkpt>
      <trkpt lat="44.14384" lon="6.82445">
        <ele>1832.3879394531</ele>
        <time>2017-10-28T11:48:58Z</time>
      </trkpt>
      <trkpt lat="44.14369" lon="6.82455">
        <ele>1828.3879394531</ele>
        <time>2017-10-28T11:49:03Z</time>
      </trkpt>
      <trkpt lat="44.14358" lon="6.8247">
        <ele>1824.3879394531</ele>
        <time>2017-10-28T11:49:09Z</time>
      </trkpt>
      <trkpt lat="44.1434" lon="6.82474">
        <ele>1822.3879394531</ele>
        <time>2017-10-28T11:49:15Z</time>
      </trkpt>
      <trkpt lat="44.14324" lon="6.8248">
        <ele>1818.3879394531</ele>
        <time>2017-10-28T11:49:21Z</time>
      </trkpt>
      <trkpt lat="44.14332" lon="6.8248">
        <ele>1819.3879394531</ele>
        <time>2017-10-28T11:50:07Z</time>
      </trkpt>
      <trkpt lat="44.14337" lon="6.82487">
        <ele>1820.3879394531</ele>
        <time>2017-10-28T11:50:16Z</time>
      </trkpt>
      <trkpt lat="44.14336" lon="6.82499">
        <ele>1819.3879394531</ele>
        <time>2017-10-28T11:50:25Z</time>
      </trkpt>
      <trkpt lat="44.14337" lon="6.82511">
        <ele>1813.3879394531</ele>
        <time>2017-10-28T11:50:31Z</time>
      </trkpt>
      <trkpt lat="44.14341" lon="6.82521">
        <ele>1809.3879394531</ele>
        <time>2017-10-28T11:50:36Z</time>
      </trkpt>
      <trkpt lat="44.14353" lon="6.82539">
        <ele>1807.3879394531</ele>
        <time>2017-10-28T11:50:44Z</time>
      </trkpt>
      <trkpt lat="44.14353" lon="6.8255">
        <ele>1804.3879394531</ele>
        <time>2017-10-28T11:51:20Z</time>
      </trkpt>
      <trkpt lat="44.14356" lon="6.82571">
        <ele>1794.3879394531</ele>
        <time>2017-10-28T11:51:29Z</time>
      </trkpt>
      <trkpt lat="44.14364" lon="6.8259">
        <ele>1786.3879394531</ele>
        <time>2017-10-28T11:51:59Z</time>
      </trkpt>
      <trkpt lat="44.14369" lon="6.82598">
        <ele>1784.3879394531</ele>
        <time>2017-10-28T11:52:04Z</time>
      </trkpt>
      <trkpt lat="44.14376" lon="6.82602">
        <ele>1785.3879394531</ele>
        <time>2017-10-28T11:52:19Z</time>
      </trkpt>
      <trkpt lat="44.14384" lon="6.82603">
        <ele>1786.3879394531</ele>
        <time>2017-10-28T11:52:34Z</time>
      </trkpt>
      <trkpt lat="44.14391" lon="6.8261">
        <ele>1785.3879394531</ele>
        <time>2017-10-28T11:52:47Z</time>
      </trkpt>
      <trkpt lat="44.14395" lon="6.82619">
        <ele>1784.3879394531</ele>
        <time>2017-10-28T11:52:52Z</time>
      </trkpt>
      <trkpt lat="44.14402" lon="6.82623">
        <ele>1788.3879394531</ele>
        <time>2017-10-28T11:53:08Z</time>
      </trkpt>
      <trkpt lat="44.1441" lon="6.82623">
        <ele>1789.3879394531</ele>
        <time>2017-10-28T11:53:19Z</time>
      </trkpt>
      <trkpt lat="44.14418" lon="6.82629">
        <ele>1789.3879394531</ele>
        <time>2017-10-28T11:53:28Z</time>
      </trkpt>
      <trkpt lat="44.14425" lon="6.82634">
        <ele>1790.3879394531</ele>
        <time>2017-10-28T11:53:34Z</time>
      </trkpt>
      <trkpt lat="44.14437" lon="6.82651">
        <ele>1789.3879394531</ele>
        <time>2017-10-28T11:53:41Z</time>
      </trkpt>
      <trkpt lat="44.1445" lon="6.82667">
        <ele>1789.3879394531</ele>
        <time>2017-10-28T11:53:55Z</time>
      </trkpt>
      <trkpt lat="44.14463" lon="6.82685">
        <ele>1784.3879394531</ele>
        <time>2017-10-28T11:54:01Z</time>
      </trkpt>
      <trkpt lat="44.14478" lon="6.82691">
        <ele>1781.3879394531</ele>
        <time>2017-10-28T11:54:08Z</time>
      </trkpt>
      <trkpt lat="44.14493" lon="6.82702">
        <ele>1779.3879394531</ele>
        <time>2017-10-28T11:54:15Z</time>
      </trkpt>
      <trkpt lat="44.145" lon="6.82701">
        <ele>1781.3879394531</ele>
        <time>2017-10-28T11:54:36Z</time>
      </trkpt>
      <trkpt lat="44.14507" lon="6.82701">
        <ele>1781.3879394531</ele>
        <time>2017-10-28T11:54:42Z</time>
      </trkpt>
      <trkpt lat="44.14514" lon="6.82696">
        <ele>1784.3879394531</ele>
        <time>2017-10-28T11:55:05Z</time>
      </trkpt>
      <trkpt lat="44.14523" lon="6.82694">
        <ele>1783.3879394531</ele>
        <time>2017-10-28T11:55:19Z</time>
      </trkpt>
      <trkpt lat="44.1454" lon="6.82694">
        <ele>1781.3879394531</ele>
        <time>2017-10-28T11:55:25Z</time>
      </trkpt>
      <trkpt lat="44.14557" lon="6.82696">
        <ele>1781.3879394531</ele>
        <time>2017-10-28T11:55:30Z</time>
      </trkpt>
      <trkpt lat="44.14574" lon="6.82695">
        <ele>1781.3890380859</ele>
        <time>2017-10-28T11:55:39Z</time>
      </trkpt>
      <trkpt lat="44.14582" lon="6.82691">
        <ele>1781.3890380859</ele>
        <time>2017-10-28T11:55:56Z</time>
      </trkpt>
      <trkpt lat="44.14589" lon="6.82687">
        <ele>1782.3890380859</ele>
        <time>2017-10-28T11:56:03Z</time>
      </trkpt>
      <trkpt lat="44.14588" lon="6.82677">
        <ele>1785.3879394531</ele>
        <time>2017-10-28T11:56:38Z</time>
      </trkpt>
      <trkpt lat="44.14592" lon="6.82669">
        <ele>1784.3879394531</ele>
        <time>2017-10-28T11:56:52Z</time>
      </trkpt>
      <trkpt lat="44.14587" lon="6.82661">
        <ele>1789.3879394531</ele>
        <time>2017-10-28T11:58:10Z</time>
      </trkpt>
      <trkpt lat="44.14585" lon="6.82651">
        <ele>1793.3879394531</ele>
        <time>2017-10-28T11:58:21Z</time>
      </trkpt>
      <trkpt lat="44.14578" lon="6.82646">
        <ele>1794.3879394531</ele>
        <time>2017-10-28T11:58:31Z</time>
      </trkpt>
      <trkpt lat="44.1457" lon="6.82643">
        <ele>1793.3879394531</ele>
        <time>2017-10-28T11:58:39Z</time>
      </trkpt>
      <trkpt lat="44.14577" lon="6.82635">
        <ele>1792.3879394531</ele>
        <time>2017-10-28T12:03:26Z</time>
      </trkpt>
      <trkpt lat="44.14602" lon="6.82609">
        <ele>1789.3879394531</ele>
        <time>2017-10-28T12:03:32Z</time>
      </trkpt>
      <trkpt lat="44.14627" lon="6.82601">
        <ele>1785.3879394531</ele>
        <time>2017-10-28T12:03:38Z</time>
      </trkpt>
      <trkpt lat="44.14652" lon="6.82594">
        <ele>1782.3879394531</ele>
        <time>2017-10-28T12:03:44Z</time>
      </trkpt>
      <trkpt lat="44.14669" lon="6.82585">
        <ele>1773.3879394531</ele>
        <time>2017-10-28T12:03:49Z</time>
      </trkpt>
      <trkpt lat="44.14686" lon="6.82587">
        <ele>1768.3879394531</ele>
        <time>2017-10-28T12:03:54Z</time>
      </trkpt>
      <trkpt lat="44.14711" lon="6.82592">
        <ele>1761.3890380859</ele>
        <time>2017-10-28T12:04:00Z</time>
      </trkpt>
      <trkpt lat="44.14706" lon="6.82617">
        <ele>1758.3890380859</ele>
        <time>2017-10-28T12:04:05Z</time>
      </trkpt>
      <trkpt lat="44.14703" lon="6.82631">
        <ele>1755.3890380859</ele>
        <time>2017-10-28T12:04:07Z</time>
      </trkpt>
      <trkpt lat="44.14691" lon="6.82671">
        <ele>1750.3890380859</ele>
        <time>2017-10-28T12:04:14Z</time>
      </trkpt>
      <trkpt lat="44.14689" lon="6.82683">
        <ele>1755.3890380859</ele>
        <time>2017-10-28T12:04:45Z</time>
      </trkpt>
      <trkpt lat="44.14687" lon="6.82696">
        <ele>1753.3890380859</ele>
        <time>2017-10-28T12:04:47Z</time>
      </trkpt>
      <trkpt lat="44.14677" lon="6.82718">
        <ele>1751.3890380859</ele>
        <time>2017-10-28T12:04:58Z</time>
      </trkpt>
      <trkpt lat="44.14661" lon="6.82756">
        <ele>1748.3890380859</ele>
        <time>2017-10-28T12:05:04Z</time>
      </trkpt>
      <trkpt lat="44.14656" lon="6.82797">
        <ele>1743.3890380859</ele>
        <time>2017-10-28T12:05:10Z</time>
      </trkpt>
      <trkpt lat="44.14629" lon="6.82835">
        <ele>1737.3890380859</ele>
        <time>2017-10-28T12:05:16Z</time>
      </trkpt>
      <trkpt lat="44.14625" lon="6.82848">
        <ele>1735.3890380859</ele>
        <time>2017-10-28T12:05:18Z</time>
      </trkpt>
      <trkpt lat="44.14623" lon="6.82862">
        <ele>1731.3890380859</ele>
        <time>2017-10-28T12:05:20Z</time>
      </trkpt>
      <trkpt lat="44.14613" lon="6.82908">
        <ele>1726.3890380859</ele>
        <time>2017-10-28T12:05:26Z</time>
      </trkpt>
      <trkpt lat="44.14627" lon="6.8294">
        <ele>1722.3890380859</ele>
        <time>2017-10-28T12:05:31Z</time>
      </trkpt>
      <trkpt lat="44.14639" lon="6.82981">
        <ele>1710.3890380859</ele>
        <time>2017-10-28T12:05:37Z</time>
      </trkpt>
      <trkpt lat="44.1463" lon="6.83019">
        <ele>1704.3890380859</ele>
        <time>2017-10-28T12:05:43Z</time>
      </trkpt>
      <trkpt lat="44.1461" lon="6.83061">
        <ele>1698.3890380859</ele>
        <time>2017-10-28T12:05:48Z</time>
      </trkpt>
      <trkpt lat="44.14593" lon="6.83103">
        <ele>1694.3890380859</ele>
        <time>2017-10-28T12:05:54Z</time>
      </trkpt>
      <trkpt lat="44.14586" lon="6.83144">
        <ele>1684.3890380859</ele>
        <time>2017-10-28T12:06:00Z</time>
      </trkpt>
      <trkpt lat="44.14586" lon="6.83197">
        <ele>1677.3900146484</ele>
        <time>2017-10-28T12:06:06Z</time>
      </trkpt>
      <trkpt lat="44.14585" lon="6.83208">
        <ele>1674.3900146484</ele>
        <time>2017-10-28T12:06:15Z</time>
      </trkpt>
      <trkpt lat="44.14587" lon="6.8322">
        <ele>1676.3900146484</ele>
        <time>2017-10-28T12:07:18Z</time>
      </trkpt>
      <trkpt lat="44.14602" lon="6.83257">
        <ele>1669.3900146484</ele>
        <time>2017-10-28T12:07:24Z</time>
      </trkpt>
      <trkpt lat="44.1462" lon="6.83291">
        <ele>1665.3900146484</ele>
        <time>2017-10-28T12:07:30Z</time>
      </trkpt>
      <trkpt lat="44.14623" lon="6.83328">
        <ele>1652.3900146484</ele>
        <time>2017-10-28T12:07:36Z</time>
      </trkpt>
      <trkpt lat="44.14613" lon="6.83363">
        <ele>1650.3900146484</ele>
        <time>2017-10-28T12:07:41Z</time>
      </trkpt>
      <trkpt lat="44.14624" lon="6.83399">
        <ele>1646.3900146484</ele>
        <time>2017-10-28T12:08:29Z</time>
      </trkpt>
      <trkpt lat="44.14609" lon="6.83403">
        <ele>1644.3900146484</ele>
        <time>2017-10-28T12:08:35Z</time>
      </trkpt>
      <trkpt lat="44.14595" lon="6.83387">
        <ele>1639.3900146484</ele>
        <time>2017-10-28T12:08:41Z</time>
      </trkpt>
      <trkpt lat="44.14579" lon="6.83359">
        <ele>1636.3900146484</ele>
        <time>2017-10-28T12:08:47Z</time>
      </trkpt>
      <trkpt lat="44.14565" lon="6.83328">
        <ele>1633.3900146484</ele>
        <time>2017-10-28T12:08:53Z</time>
      </trkpt>
      <trkpt lat="44.1455" lon="6.83316">
        <ele>1631.3900146484</ele>
        <time>2017-10-28T12:08:58Z</time>
      </trkpt>
      <trkpt lat="44.14521" lon="6.83303">
        <ele>1627.3900146484</ele>
        <time>2017-10-28T12:09:04Z</time>
      </trkpt>
      <trkpt lat="44.14492" lon="6.83303">
        <ele>1624.3900146484</ele>
        <time>2017-10-28T12:09:10Z</time>
      </trkpt>
      <trkpt lat="44.14474" lon="6.83302">
        <ele>1621.3900146484</ele>
        <time>2017-10-28T12:09:15Z</time>
      </trkpt>
      <trkpt lat="44.1446" lon="6.83288">
        <ele>1615.3890380859</ele>
        <time>2017-10-28T12:09:22Z</time>
      </trkpt>
      <trkpt lat="44.14465" lon="6.83263">
        <ele>1614.3890380859</ele>
        <time>2017-10-28T12:09:28Z</time>
      </trkpt>
      <trkpt lat="44.1446" lon="6.83238">
        <ele>1607.3890380859</ele>
        <time>2017-10-28T12:09:35Z</time>
      </trkpt>
      <trkpt lat="44.1444" lon="6.83212">
        <ele>1603.3890380859</ele>
        <time>2017-10-28T12:09:41Z</time>
      </trkpt>
      <trkpt lat="44.14424" lon="6.83191">
        <ele>1597.3890380859</ele>
        <time>2017-10-28T12:09:46Z</time>
      </trkpt>
      <trkpt lat="44.14417" lon="6.83171">
        <ele>1593.3890380859</ele>
        <time>2017-10-28T12:09:51Z</time>
      </trkpt>
      <trkpt lat="44.14411" lon="6.83149">
        <ele>1590.3890380859</ele>
        <time>2017-10-28T12:09:56Z</time>
      </trkpt>
      <trkpt lat="44.1441" lon="6.83174">
        <ele>1588.3890380859</ele>
        <time>2017-10-28T12:10:02Z</time>
      </trkpt>
      <trkpt lat="44.14411" lon="6.83199">
        <ele>1584.3890380859</ele>
        <time>2017-10-28T12:10:09Z</time>
      </trkpt>
      <trkpt lat="44.14419" lon="6.83216">
        <ele>1582.3890380859</ele>
        <time>2017-10-28T12:10:17Z</time>
      </trkpt>
      <trkpt lat="44.14411" lon="6.83215">
        <ele>1580.3890380859</ele>
        <time>2017-10-28T12:10:39Z</time>
      </trkpt>
      <trkpt lat="44.14392" lon="6.83204">
        <ele>1573.3890380859</ele>
        <time>2017-10-28T12:10:45Z</time>
      </trkpt>
      <trkpt lat="44.14387" lon="6.83195">
        <ele>1569.3890380859</ele>
        <time>2017-10-28T12:10:50Z</time>
      </trkpt>
      <trkpt lat="44.14388" lon="6.83184">
        <ele>1568.3890380859</ele>
        <time>2017-10-28T12:10:55Z</time>
      </trkpt>
      <trkpt lat="44.14387" lon="6.83171">
        <ele>1569.3890380859</ele>
        <time>2017-10-28T12:11:09Z</time>
      </trkpt>
      <trkpt lat="44.14381" lon="6.83153">
        <ele>1564.3890380859</ele>
        <time>2017-10-28T12:11:17Z</time>
      </trkpt>
      <trkpt lat="44.14364" lon="6.83142">
        <ele>1563.3890380859</ele>
        <time>2017-10-28T12:11:23Z</time>
      </trkpt>
      <trkpt lat="44.14357" lon="6.83137">
        <ele>1564.3890380859</ele>
        <time>2017-10-28T12:11:29Z</time>
      </trkpt>
      <trkpt lat="44.14349" lon="6.83133">
        <ele>1564.3890380859</ele>
        <time>2017-10-28T12:11:34Z</time>
      </trkpt>
      <trkpt lat="44.14342" lon="6.83129">
        <ele>1566.3890380859</ele>
        <time>2017-10-28T12:11:40Z</time>
      </trkpt>
      <trkpt lat="44.14336" lon="6.83125">
        <ele>1569.3890380859</ele>
        <time>2017-10-28T12:12:23Z</time>
      </trkpt>
      <trkpt lat="44.14328" lon="6.83119">
        <ele>1568.3890380859</ele>
        <time>2017-10-28T12:12:31Z</time>
      </trkpt>
      <trkpt lat="44.14311" lon="6.83107">
        <ele>1563.3890380859</ele>
        <time>2017-10-28T12:12:39Z</time>
      </trkpt>
      <trkpt lat="44.143" lon="6.83088">
        <ele>1562.3890380859</ele>
        <time>2017-10-28T12:12:44Z</time>
      </trkpt>
      <trkpt lat="44.14287" lon="6.83068">
        <ele>1556.3890380859</ele>
        <time>2017-10-28T12:12:51Z</time>
      </trkpt>
      <trkpt lat="44.14275" lon="6.8305">
        <ele>1552.3890380859</ele>
        <time>2017-10-28T12:12:56Z</time>
      </trkpt>
      <trkpt lat="44.14273" lon="6.83061">
        <ele>1547.3890380859</ele>
        <time>2017-10-28T12:13:49Z</time>
      </trkpt>
      <trkpt lat="44.14264" lon="6.83059">
        <ele>1545.3890380859</ele>
        <time>2017-10-28T12:13:55Z</time>
      </trkpt>
      <trkpt lat="44.1425" lon="6.83055">
        <ele>1536.3890380859</ele>
        <time>2017-10-28T12:14:34Z</time>
      </trkpt>
      <trkpt lat="44.14234" lon="6.83055">
        <ele>1529.3890380859</ele>
        <time>2017-10-28T12:14:40Z</time>
      </trkpt>
      <trkpt lat="44.14219" lon="6.83054">
        <ele>1521.3890380859</ele>
        <time>2017-10-28T12:14:46Z</time>
      </trkpt>
      <trkpt lat="44.14207" lon="6.8306">
        <ele>1519.3890380859</ele>
        <time>2017-10-28T12:14:55Z</time>
      </trkpt>
      <trkpt lat="44.14206" lon="6.8307">
        <ele>1517.3890380859</ele>
        <time>2017-10-28T12:14:59Z</time>
      </trkpt>
      <trkpt lat="44.14197" lon="6.83088">
        <ele>1514.3890380859</ele>
        <time>2017-10-28T12:15:07Z</time>
      </trkpt>
      <trkpt lat="44.14194" lon="6.83113">
        <ele>1513.3890380859</ele>
        <time>2017-10-28T12:15:13Z</time>
      </trkpt>
      <trkpt lat="44.14199" lon="6.83149">
        <ele>1513.3890380859</ele>
        <time>2017-10-28T12:15:19Z</time>
      </trkpt>
      <trkpt lat="44.14196" lon="6.83165">
        <ele>1514.3890380859</ele>
        <time>2017-10-28T12:15:21Z</time>
      </trkpt>
      <trkpt lat="44.14191" lon="6.83208">
        <ele>1506.3890380859</ele>
        <time>2017-10-28T12:15:27Z</time>
      </trkpt>
      <trkpt lat="44.14175" lon="6.83242">
        <ele>1503.3890380859</ele>
        <time>2017-10-28T12:15:33Z</time>
      </trkpt>
      <trkpt lat="44.14155" lon="6.83276">
        <ele>1506.3890380859</ele>
        <time>2017-10-28T12:15:39Z</time>
      </trkpt>
      <trkpt lat="44.1414" lon="6.83301">
        <ele>1500.3890380859</ele>
        <time>2017-10-28T12:15:43Z</time>
      </trkpt>
      <trkpt lat="44.14116" lon="6.83332">
        <ele>1492.3890380859</ele>
        <time>2017-10-28T12:15:49Z</time>
      </trkpt>
      <trkpt lat="44.14109" lon="6.83339">
        <ele>1490.3890380859</ele>
        <time>2017-10-28T12:15:50Z</time>
      </trkpt>
      <trkpt lat="44.14087" lon="6.83354">
        <ele>1487.3890380859</ele>
        <time>2017-10-28T12:15:54Z</time>
      </trkpt>
      <trkpt lat="44.14055" lon="6.83366">
        <ele>1484.3890380859</ele>
        <time>2017-10-28T12:16:00Z</time>
      </trkpt>
      <trkpt lat="44.14022" lon="6.8337">
        <ele>1475.3890380859</ele>
        <time>2017-10-28T12:16:06Z</time>
      </trkpt>
      <trkpt lat="44.14005" lon="6.83378">
        <ele>1473.3890380859</ele>
        <time>2017-10-28T12:16:15Z</time>
      </trkpt>
      <trkpt lat="44.13993" lon="6.8339">
        <ele>1470.3890380859</ele>
        <time>2017-10-28T12:16:21Z</time>
      </trkpt>
      <trkpt lat="44.13972" lon="6.83409">
        <ele>1463.3890380859</ele>
        <time>2017-10-28T12:16:27Z</time>
      </trkpt>
      <trkpt lat="44.13977" lon="6.83419">
        <ele>1460.3890380859</ele>
        <time>2017-10-28T12:16:30Z</time>
      </trkpt>
      <trkpt lat="44.13976" lon="6.83435">
        <ele>1455.3890380859</ele>
        <time>2017-10-28T12:16:37Z</time>
      </trkpt>
      <trkpt lat="44.13957" lon="6.83437">
        <ele>1451.3890380859</ele>
        <time>2017-10-28T12:16:41Z</time>
      </trkpt>
      <trkpt lat="44.13932" lon="6.83462">
        <ele>1446.3890380859</ele>
        <time>2017-10-28T12:16:47Z</time>
      </trkpt>
      <trkpt lat="44.13915" lon="6.83479">
        <ele>1435.3890380859</ele>
        <time>2017-10-28T12:16:52Z</time>
      </trkpt>
      <trkpt lat="44.13906" lon="6.83494">
        <ele>1428.3890380859</ele>
        <time>2017-10-28T12:16:58Z</time>
      </trkpt>
      <trkpt lat="44.1391" lon="6.83517">
        <ele>1416.3890380859</ele>
        <time>2017-10-28T12:17:07Z</time>
      </trkpt>
      <trkpt lat="44.13897" lon="6.83523">
        <ele>1412.3890380859</ele>
        <time>2017-10-28T12:17:14Z</time>
      </trkpt>
      <trkpt lat="44.13907" lon="6.83542">
        <ele>1410.3890380859</ele>
        <time>2017-10-28T12:17:19Z</time>
      </trkpt>
      <trkpt lat="44.13914" lon="6.83563">
        <ele>1400.3890380859</ele>
        <time>2017-10-28T12:17:29Z</time>
      </trkpt>
      <trkpt lat="44.13903" lon="6.83569">
        <ele>1392.3890380859</ele>
        <time>2017-10-28T12:17:35Z</time>
      </trkpt>
      <trkpt lat="44.13905" lon="6.83592">
        <ele>1389.3890380859</ele>
        <time>2017-10-28T12:17:41Z</time>
      </trkpt>
      <trkpt lat="44.13918" lon="6.83609">
        <ele>1390.3890380859</ele>
        <time>2017-10-28T12:17:46Z</time>
      </trkpt>
      <trkpt lat="44.13933" lon="6.83623">
        <ele>1384.3890380859</ele>
        <time>2017-10-28T12:17:52Z</time>
      </trkpt>
      <trkpt lat="44.13961" lon="6.83625">
        <ele>1380.3890380859</ele>
        <time>2017-10-28T12:17:59Z</time>
      </trkpt>
      <trkpt lat="44.13977" lon="6.83634">
        <ele>1379.3890380859</ele>
        <time>2017-10-28T12:18:04Z</time>
      </trkpt>
      <trkpt lat="44.14004" lon="6.83633">
        <ele>1373.3890380859</ele>
        <time>2017-10-28T12:18:10Z</time>
      </trkpt>
      <trkpt lat="44.14022" lon="6.83641">
        <ele>1367.3890380859</ele>
        <time>2017-10-28T12:19:14Z</time>
      </trkpt>
      <trkpt lat="44.14046" lon="6.83659">
        <ele>1365.3900146484</ele>
        <time>2017-10-28T12:19:20Z</time>
      </trkpt>
      <trkpt lat="44.1408" lon="6.83669">
        <ele>1360.3900146484</ele>
        <time>2017-10-28T12:19:26Z</time>
      </trkpt>
      <trkpt lat="44.14106" lon="6.83682">
        <ele>1357.3900146484</ele>
        <time>2017-10-28T12:19:31Z</time>
      </trkpt>
      <trkpt lat="44.14122" lon="6.83713">
        <ele>1354.3900146484</ele>
        <time>2017-10-28T12:19:38Z</time>
      </trkpt>
      <trkpt lat="44.14106" lon="6.83716">
        <ele>1347.3900146484</ele>
        <time>2017-10-28T12:19:43Z</time>
      </trkpt>
      <trkpt lat="44.14089" lon="6.83731">
        <ele>1343.3900146484</ele>
        <time>2017-10-28T12:19:48Z</time>
      </trkpt>
      <trkpt lat="44.14088" lon="6.83741">
        <ele>1342.3900146484</ele>
        <time>2017-10-28T12:19:50Z</time>
      </trkpt>
      <trkpt lat="44.14097" lon="6.83766">
        <ele>1341.3900146484</ele>
        <time>2017-10-28T12:19:56Z</time>
      </trkpt>
      <trkpt lat="44.14106" lon="6.83768">
        <ele>1335.3900146484</ele>
        <time>2017-10-28T12:19:59Z</time>
      </trkpt>
      <trkpt lat="44.14115" lon="6.8378">
        <ele>1328.3900146484</ele>
        <time>2017-10-28T12:20:07Z</time>
      </trkpt>
      <trkpt lat="44.1412" lon="6.83788">
        <ele>1320.3900146484</ele>
        <time>2017-10-28T12:20:14Z</time>
      </trkpt>
      <trkpt lat="44.14138" lon="6.83789">
        <ele>1312.3900146484</ele>
        <time>2017-10-28T12:20:19Z</time>
      </trkpt>
      <trkpt lat="44.14146" lon="6.83787">
        <ele>1309.3900146484</ele>
        <time>2017-10-28T12:20:21Z</time>
      </trkpt>
      <trkpt lat="44.14143" lon="6.83798">
        <ele>1309.3900146484</ele>
        <time>2017-10-28T12:20:27Z</time>
      </trkpt>
      <trkpt lat="44.14148" lon="6.83808">
        <ele>1305.3900146484</ele>
        <time>2017-10-28T12:20:32Z</time>
      </trkpt>
      <trkpt lat="44.14144" lon="6.83819">
        <ele>1303.3900146484</ele>
        <time>2017-10-28T12:20:35Z</time>
      </trkpt>
      <trkpt lat="44.1413" lon="6.83843">
        <ele>1296.3900146484</ele>
        <time>2017-10-28T12:20:44Z</time>
      </trkpt>
      <trkpt lat="44.14145" lon="6.8385">
        <ele>1290.3900146484</ele>
        <time>2017-10-28T12:20:52Z</time>
      </trkpt>
      <trkpt lat="44.1414" lon="6.83858">
        <ele>1287.3900146484</ele>
        <time>2017-10-28T12:20:56Z</time>
      </trkpt>
      <trkpt lat="44.14148" lon="6.83859">
        <ele>1284.3900146484</ele>
        <time>2017-10-28T12:21:01Z</time>
      </trkpt>
      <trkpt lat="44.14146" lon="6.8387">
        <ele>1285.3900146484</ele>
        <time>2017-10-28T12:21:07Z</time>
      </trkpt>
      <trkpt lat="44.14162" lon="6.83873">
        <ele>1275.3900146484</ele>
        <time>2017-10-28T12:21:12Z</time>
      </trkpt>
      <trkpt lat="44.14175" lon="6.83884">
        <ele>1271.3900146484</ele>
        <time>2017-10-28T12:21:21Z</time>
      </trkpt>
      <trkpt lat="44.14182" lon="6.83882">
        <ele>1273.3900146484</ele>
        <time>2017-10-28T12:21:28Z</time>
      </trkpt>
      <trkpt lat="44.14191" lon="6.83875">
        <ele>1266.3900146484</ele>
        <time>2017-10-28T12:24:50Z</time>
      </trkpt>
      <trkpt lat="44.14206" lon="6.83882">
        <ele>1267.3900146484</ele>
        <time>2017-10-28T12:24:56Z</time>
      </trkpt>
      <trkpt lat="44.14194" lon="6.83898">
        <ele>1266.3900146484</ele>
        <time>2017-10-28T12:25:01Z</time>
      </trkpt>
      <trkpt lat="44.14199" lon="6.83918">
        <ele>1260.3900146484</ele>
        <time>2017-10-28T12:25:09Z</time>
      </trkpt>
      <trkpt lat="44.14182" lon="6.83934">
        <ele>1255.3900146484</ele>
        <time>2017-10-28T12:25:14Z</time>
      </trkpt>
      <trkpt lat="44.14169" lon="6.83947">
        <ele>1252.3900146484</ele>
        <time>2017-10-28T12:25:19Z</time>
      </trkpt>
      <trkpt lat="44.14156" lon="6.83966">
        <ele>1250.3900146484</ele>
        <time>2017-10-28T12:25:24Z</time>
      </trkpt>
      <trkpt lat="44.14139" lon="6.83981">
        <ele>1253.3900146484</ele>
        <time>2017-10-28T12:25:30Z</time>
      </trkpt>
      <trkpt lat="44.14139" lon="6.83992">
        <ele>1248.3900146484</ele>
        <time>2017-10-28T12:25:36Z</time>
      </trkpt>
      <trkpt lat="44.14133" lon="6.84011">
        <ele>1239.3900146484</ele>
        <time>2017-10-28T12:25:42Z</time>
      </trkpt>
      <trkpt lat="44.14113" lon="6.84027">
        <ele>1231.3900146484</ele>
        <time>2017-10-28T12:25:48Z</time>
      </trkpt>
      <trkpt lat="44.14099" lon="6.84043">
        <ele>1224.3900146484</ele>
        <time>2017-10-28T12:25:54Z</time>
      </trkpt>
      <trkpt lat="44.14094" lon="6.84052">
        <ele>1225.3900146484</ele>
        <time>2017-10-28T12:25:56Z</time>
      </trkpt>
      <trkpt lat="44.14096" lon="6.84063">
        <ele>1225.3900146484</ele>
        <time>2017-10-28T12:26:02Z</time>
      </trkpt>
      <trkpt lat="44.1409" lon="6.84073">
        <ele>1216.3900146484</ele>
        <time>2017-10-28T12:26:07Z</time>
      </trkpt>
      <trkpt lat="44.14076" lon="6.84089">
        <ele>1211.3900146484</ele>
        <time>2017-10-28T12:26:15Z</time>
      </trkpt>
      <trkpt lat="44.14069" lon="6.84098">
        <ele>1206.3900146484</ele>
        <time>2017-10-28T12:26:21Z</time>
      </trkpt>
      <trkpt lat="44.14078" lon="6.84111">
        <ele>1205.3900146484</ele>
        <time>2017-10-28T12:26:27Z</time>
      </trkpt>
      <trkpt lat="44.14087" lon="6.84115">
        <ele>1204.3900146484</ele>
        <time>2017-10-28T12:26:30Z</time>
      </trkpt>
      <trkpt lat="44.14092" lon="6.84125">
        <ele>1199.3909912109</ele>
        <time>2017-10-28T12:26:39Z</time>
      </trkpt>
      <trkpt lat="44.14101" lon="6.8414">
        <ele>1193.3909912109</ele>
        <time>2017-10-28T12:26:46Z</time>
      </trkpt>
      <trkpt lat="44.14095" lon="6.84149">
        <ele>1192.3909912109</ele>
        <time>2017-10-28T12:26:51Z</time>
      </trkpt>
      <trkpt lat="44.14064" lon="6.84157">
        <ele>1189.3909912109</ele>
        <time>2017-10-28T12:26:57Z</time>
      </trkpt>
      <trkpt lat="44.14048" lon="6.8417">
        <ele>1185.3909912109</ele>
        <time>2017-10-28T12:27:01Z</time>
      </trkpt>
      <trkpt lat="44.14063" lon="6.84183">
        <ele>1182.3909912109</ele>
        <time>2017-10-28T12:27:07Z</time>
      </trkpt>
      <trkpt lat="44.14086" lon="6.84209">
        <ele>1180.3909912109</ele>
        <time>2017-10-28T12:27:13Z</time>
      </trkpt>
      <trkpt lat="44.14089" lon="6.8423">
        <ele>1171.3909912109</ele>
        <time>2017-10-28T12:27:20Z</time>
      </trkpt>
      <trkpt lat="44.14089" lon="6.84246">
        <ele>1168.3909912109</ele>
        <time>2017-10-28T12:27:26Z</time>
      </trkpt>
      <trkpt lat="44.14077" lon="6.84265">
        <ele>1163.3909912109</ele>
        <time>2017-10-28T12:27:33Z</time>
      </trkpt>
      <trkpt lat="44.1407" lon="6.8427">
        <ele>1157.3909912109</ele>
        <time>2017-10-28T12:27:38Z</time>
      </trkpt>
      <trkpt lat="44.14072" lon="6.84281">
        <ele>1156.3909912109</ele>
        <time>2017-10-28T12:27:41Z</time>
      </trkpt>
      <trkpt lat="44.14061" lon="6.84282">
        <ele>1156.3909912109</ele>
        <time>2017-10-28T12:27:44Z</time>
      </trkpt>
      <trkpt lat="44.14054" lon="6.84292">
        <ele>1152.3909912109</ele>
        <time>2017-10-28T12:27:50Z</time>
      </trkpt>
      <trkpt lat="44.14044" lon="6.84288">
        <ele>1151.3909912109</ele>
        <time>2017-10-28T12:27:52Z</time>
      </trkpt>
      <trkpt lat="44.14042" lon="6.84305">
        <ele>1149.3909912109</ele>
        <time>2017-10-28T12:27:58Z</time>
      </trkpt>
      <trkpt lat="44.14036" lon="6.84314">
        <ele>1137.3909912109</ele>
        <time>2017-10-28T12:28:05Z</time>
      </trkpt>
      <trkpt lat="44.14017" lon="6.84318">
        <ele>1131.3909912109</ele>
        <time>2017-10-28T12:28:11Z</time>
      </trkpt>
      <trkpt lat="44.14009" lon="6.84319">
        <ele>1128.3909912109</ele>
        <time>2017-10-28T12:28:14Z</time>
      </trkpt>
      <trkpt lat="44.1401" lon="6.84333">
        <ele>1123.3909912109</ele>
        <time>2017-10-28T12:28:19Z</time>
      </trkpt>
      <trkpt lat="44.14003" lon="6.84338">
        <ele>1120.3909912109</ele>
        <time>2017-10-28T12:28:22Z</time>
      </trkpt>
      <trkpt lat="44.13988" lon="6.84351">
        <ele>1117.3909912109</ele>
        <time>2017-10-28T12:28:27Z</time>
      </trkpt>
      <trkpt lat="44.13964" lon="6.8436">
        <ele>1109.3909912109</ele>
        <time>2017-10-28T12:28:34Z</time>
      </trkpt>
      <trkpt lat="44.13957" lon="6.84362">
        <ele>1107.3909912109</ele>
        <time>2017-10-28T12:28:37Z</time>
      </trkpt>
      <trkpt lat="44.13946" lon="6.84363">
        <ele>1107.3909912109</ele>
        <time>2017-10-28T12:28:40Z</time>
      </trkpt>
      <trkpt lat="44.13929" lon="6.8436">
        <ele>1104.3909912109</ele>
        <time>2017-10-28T12:28:45Z</time>
      </trkpt>
      <trkpt lat="44.13919" lon="6.84362">
        <ele>1109.3909912109</ele>
        <time>2017-10-28T12:29:31Z</time>
      </trkpt>
      <trkpt lat="44.13912" lon="6.84371">
        <ele>1096.3909912109</ele>
        <time>2017-10-28T12:29:43Z</time>
      </trkpt>
      <trkpt lat="44.13902" lon="6.84377">
        <ele>1091.3909912109</ele>
        <time>2017-10-28T12:29:50Z</time>
      </trkpt>
      <trkpt lat="44.13887" lon="6.84366">
        <ele>1092.3909912109</ele>
        <time>2017-10-28T12:29:54Z</time>
      </trkpt>
      <trkpt lat="44.1388" lon="6.84368">
        <ele>1092.3909912109</ele>
        <time>2017-10-28T12:34:23Z</time>
      </trkpt>
      <trkpt lat="44.13888" lon="6.84367">
        <ele>1085.3909912109</ele>
        <time>2017-10-28T12:35:19Z</time>
      </trkpt>
      <trkpt lat="44.13895" lon="6.84371">
        <ele>1083.3909912109</ele>
        <time>2017-10-28T12:35:25Z</time>
      </trkpt>
      <trkpt lat="44.13901" lon="6.84377">
        <ele>1084.3909912109</ele>
        <time>2017-10-28T12:35:32Z</time>
      </trkpt>
      <trkpt lat="44.13909" lon="6.8438">
        <ele>1083.3909912109</ele>
        <time>2017-10-28T12:35:40Z</time>
      </trkpt>
      <trkpt lat="44.13912" lon="6.84371">
        <ele>1083.3909912109</ele>
        <time>2017-10-28T12:35:48Z</time>
      </trkpt>
      <trkpt lat="44.13909" lon="6.84361">
        <ele>1091.3909912109</ele>
        <time>2017-10-28T12:36:01Z</time>
      </trkpt>
      <trkpt lat="44.13917" lon="6.84364">
        <ele>1089.3909912109</ele>
        <time>2017-10-28T12:36:10Z</time>
      </trkpt>
      <trkpt lat="44.13924" lon="6.84362">
        <ele>1093.3909912109</ele>
        <time>2017-10-28T12:36:19Z</time>
      </trkpt>
      <trkpt lat="44.13932" lon="6.84361">
        <ele>1092.3909912109</ele>
        <time>2017-10-28T12:36:26Z</time>
      </trkpt>
      <trkpt lat="44.13927" lon="6.84353">
        <ele>1089.3909912109</ele>
        <time>2017-10-28T12:37:02Z</time>
      </trkpt>
      <trkpt lat="44.1392" lon="6.84348">
        <ele>1094.3909912109</ele>
        <time>2017-10-28T12:37:14Z</time>
      </trkpt>
      <trkpt lat="44.13914" lon="6.84341">
        <ele>1097.3909912109</ele>
        <time>2017-10-28T12:37:26Z</time>
      </trkpt>
      <trkpt lat="44.13912" lon="6.84331">
        <ele>1091.3909912109</ele>
        <time>2017-10-28T12:37:33Z</time>
      </trkpt>
      <trkpt lat="44.13905" lon="6.84329">
        <ele>1092.3909912109</ele>
        <time>2017-10-28T12:37:41Z</time>
      </trkpt>
      <trkpt lat="44.13899" lon="6.84322">
        <ele>1091.3909912109</ele>
        <time>2017-10-28T12:37:50Z</time>
      </trkpt>
      <trkpt lat="44.13894" lon="6.84314">
        <ele>1091.3909912109</ele>
        <time>2017-10-28T12:38:01Z</time>
      </trkpt>
      <trkpt lat="44.1389" lon="6.84305">
        <ele>1093.3909912109</ele>
        <time>2017-10-28T12:38:17Z</time>
      </trkpt>
      <trkpt lat="44.13885" lon="6.84298">
        <ele>1097.3909912109</ele>
        <time>2017-10-28T12:38:31Z</time>
      </trkpt>
      <trkpt lat="44.13878" lon="6.84293">
        <ele>1097.3900146484</ele>
        <time>2017-10-28T12:38:39Z</time>
      </trkpt>
      <trkpt lat="44.13872" lon="6.84285">
        <ele>1097.3900146484</ele>
        <time>2017-10-28T12:38:49Z</time>
      </trkpt>
      <trkpt lat="44.13865" lon="6.84278">
        <ele>1095.3900146484</ele>
        <time>2017-10-28T12:38:57Z</time>
      </trkpt>
      <trkpt lat="44.13859" lon="6.84271">
        <ele>1094.3900146484</ele>
        <time>2017-10-28T12:39:04Z</time>
      </trkpt>
      <trkpt lat="44.13856" lon="6.84261">
        <ele>1095.3900146484</ele>
        <time>2017-10-28T12:39:13Z</time>
      </trkpt>
      <trkpt lat="44.1385" lon="6.84254">
        <ele>1098.3900146484</ele>
        <time>2017-10-28T12:39:20Z</time>
      </trkpt>
      <trkpt lat="44.13837" lon="6.8424">
        <ele>1102.3900146484</ele>
        <time>2017-10-28T12:39:26Z</time>
      </trkpt>
      <trkpt lat="44.13828" lon="6.84221">
        <ele>1104.3900146484</ele>
        <time>2017-10-28T12:39:31Z</time>
      </trkpt>
      <trkpt lat="44.13825" lon="6.8421">
        <ele>1106.3900146484</ele>
        <time>2017-10-28T12:39:34Z</time>
      </trkpt>
      <trkpt lat="44.13817" lon="6.84209">
        <ele>1106.3900146484</ele>
        <time>2017-10-28T12:39:46Z</time>
      </trkpt>
      <trkpt lat="44.13811" lon="6.84215">
        <ele>1108.3900146484</ele>
        <time>2017-10-28T12:39:55Z</time>
      </trkpt>
      <trkpt lat="44.13803" lon="6.84219">
        <ele>1107.3900146484</ele>
        <time>2017-10-28T12:40:03Z</time>
      </trkpt>
      <trkpt lat="44.13796" lon="6.8422">
        <ele>1106.3900146484</ele>
        <time>2017-10-28T12:40:10Z</time>
      </trkpt>
      <trkpt lat="44.13787" lon="6.84219">
        <ele>1113.3900146484</ele>
        <time>2017-10-28T12:40:18Z</time>
      </trkpt>
      <trkpt lat="44.1378" lon="6.84216">
        <ele>1113.3900146484</ele>
        <time>2017-10-28T12:40:30Z</time>
      </trkpt>
      <trkpt lat="44.13773" lon="6.84212">
        <ele>1113.3900146484</ele>
        <time>2017-10-28T12:40:38Z</time>
      </trkpt>
      <trkpt lat="44.13766" lon="6.8421">
        <ele>1114.3900146484</ele>
        <time>2017-10-28T12:40:44Z</time>
      </trkpt>
      <trkpt lat="44.13758" lon="6.8421">
        <ele>1117.3900146484</ele>
        <time>2017-10-28T12:40:51Z</time>
      </trkpt>
      <trkpt lat="44.13751" lon="6.84212">
        <ele>1119.3900146484</ele>
        <time>2017-10-28T12:40:57Z</time>
      </trkpt>
      <trkpt lat="44.13743" lon="6.8421">
        <ele>1119.3900146484</ele>
        <time>2017-10-28T12:41:05Z</time>
      </trkpt>
      <trkpt lat="44.13736" lon="6.84209">
        <ele>1120.3900146484</ele>
        <time>2017-10-28T12:41:16Z</time>
      </trkpt>
      <trkpt lat="44.13729" lon="6.84205">
        <ele>1119.3900146484</ele>
        <time>2017-10-28T12:41:24Z</time>
      </trkpt>
      <trkpt lat="44.13723" lon="6.84211">
        <ele>1117.3900146484</ele>
        <time>2017-10-28T12:41:33Z</time>
      </trkpt>
      <trkpt lat="44.13715" lon="6.84216">
        <ele>1116.3900146484</ele>
        <time>2017-10-28T12:41:42Z</time>
      </trkpt>
      <trkpt lat="44.13708" lon="6.84219">
        <ele>1116.3900146484</ele>
        <time>2017-10-28T12:41:48Z</time>
      </trkpt>
      <trkpt lat="44.137" lon="6.84221">
        <ele>1120.3900146484</ele>
        <time>2017-10-28T12:41:56Z</time>
      </trkpt>
      <trkpt lat="44.13694" lon="6.84215">
        <ele>1120.3900146484</ele>
        <time>2017-10-28T12:42:03Z</time>
      </trkpt>
      <trkpt lat="44.13687" lon="6.84214">
        <ele>1122.3900146484</ele>
        <time>2017-10-28T12:42:11Z</time>
      </trkpt>
      <trkpt lat="44.13679" lon="6.84216">
        <ele>1123.3900146484</ele>
        <time>2017-10-28T12:42:19Z</time>
      </trkpt>
      <trkpt lat="44.13672" lon="6.84214">
        <ele>1126.3900146484</ele>
        <time>2017-10-28T12:42:27Z</time>
      </trkpt>
      <trkpt lat="44.13666" lon="6.84209">
        <ele>1125.3900146484</ele>
        <time>2017-10-28T12:42:43Z</time>
      </trkpt>
      <trkpt lat="44.13659" lon="6.84205">
        <ele>1124.3900146484</ele>
        <time>2017-10-28T12:42:54Z</time>
      </trkpt>
      <trkpt lat="44.13653" lon="6.84199">
        <ele>1126.3900146484</ele>
        <time>2017-10-28T12:43:08Z</time>
      </trkpt>
      <trkpt lat="44.13647" lon="6.84203">
        <ele>1130.3900146484</ele>
        <time>2017-10-28T12:43:16Z</time>
      </trkpt>
      <trkpt lat="44.1364" lon="6.84208">
        <ele>1134.3900146484</ele>
        <time>2017-10-28T12:43:24Z</time>
      </trkpt>
      <trkpt lat="44.13633" lon="6.84211">
        <ele>1137.3900146484</ele>
        <time>2017-10-28T12:43:36Z</time>
      </trkpt>
      <trkpt lat="44.13627" lon="6.84218">
        <ele>1141.3900146484</ele>
        <time>2017-10-28T12:43:42Z</time>
      </trkpt>
      <trkpt lat="44.1362" lon="6.84219">
        <ele>1140.3900146484</ele>
        <time>2017-10-28T12:43:51Z</time>
      </trkpt>
      <trkpt lat="44.13613" lon="6.84224">
        <ele>1142.3900146484</ele>
        <time>2017-10-28T12:44:02Z</time>
      </trkpt>
      <trkpt lat="44.13605" lon="6.84228">
        <ele>1146.3900146484</ele>
        <time>2017-10-28T12:44:10Z</time>
      </trkpt>
      <trkpt lat="44.13598" lon="6.84231">
        <ele>1144.3900146484</ele>
        <time>2017-10-28T12:44:17Z</time>
      </trkpt>
      <trkpt lat="44.13592" lon="6.84236">
        <ele>1147.3900146484</ele>
        <time>2017-10-28T12:44:25Z</time>
      </trkpt>
      <trkpt lat="44.13584" lon="6.84238">
        <ele>1145.3900146484</ele>
        <time>2017-10-28T12:44:33Z</time>
      </trkpt>
      <trkpt lat="44.13577" lon="6.84241">
        <ele>1148.3900146484</ele>
        <time>2017-10-28T12:44:41Z</time>
      </trkpt>
      <trkpt lat="44.13571" lon="6.84235">
        <ele>1148.3900146484</ele>
        <time>2017-10-28T12:46:15Z</time>
      </trkpt>
      <trkpt lat="44.13571" lon="6.84224">
        <ele>1147.3900146484</ele>
        <time>2017-10-28T12:46:42Z</time>
      </trkpt>
      <trkpt lat="44.13569" lon="6.84213">
        <ele>1146.3900146484</ele>
        <time>2017-10-28T12:46:49Z</time>
      </trkpt>
      <trkpt lat="44.13573" lon="6.84203">
        <ele>1148.3900146484</ele>
        <time>2017-10-28T12:47:41Z</time>
      </trkpt>
      <trkpt lat="44.13576" lon="6.84192">
        <ele>1149.3900146484</ele>
        <time>2017-10-28T12:47:47Z</time>
      </trkpt>
      <trkpt lat="44.13577" lon="6.84182">
        <ele>1151.3900146484</ele>
        <time>2017-10-28T12:47:54Z</time>
      </trkpt>
      <trkpt lat="44.13575" lon="6.84172">
        <ele>1153.3900146484</ele>
        <time>2017-10-28T12:47:59Z</time>
      </trkpt>
      <trkpt lat="44.13579" lon="6.84162">
        <ele>1154.3900146484</ele>
        <time>2017-10-28T12:48:04Z</time>
      </trkpt>
      <trkpt lat="44.13577" lon="6.84151">
        <ele>1154.3900146484</ele>
        <time>2017-10-28T12:48:10Z</time>
      </trkpt>
      <trkpt lat="44.13571" lon="6.84131">
        <ele>1156.3900146484</ele>
        <time>2017-10-28T12:48:20Z</time>
      </trkpt>
      <trkpt lat="44.1356" lon="6.84115">
        <ele>1156.3900146484</ele>
        <time>2017-10-28T12:48:28Z</time>
      </trkpt>
      <trkpt lat="44.13553" lon="6.84111">
        <ele>1156.3900146484</ele>
        <time>2017-10-28T12:48:33Z</time>
      </trkpt>
      <trkpt lat="44.13545" lon="6.84112">
        <ele>1157.3900146484</ele>
        <time>2017-10-28T12:48:57Z</time>
      </trkpt>
      <trkpt lat="44.13525" lon="6.84119">
        <ele>1156.3900146484</ele>
        <time>2017-10-28T12:49:02Z</time>
      </trkpt>
      <trkpt lat="44.13499" lon="6.8411">
        <ele>1151.3900146484</ele>
        <time>2017-10-28T12:49:08Z</time>
      </trkpt>
      <trkpt lat="44.13501" lon="6.8409">
        <ele>1145.3900146484</ele>
        <time>2017-10-28T12:49:14Z</time>
      </trkpt>
      <trkpt lat="44.13514" lon="6.84064">
        <ele>1140.3890380859</ele>
        <time>2017-10-28T12:49:21Z</time>
      </trkpt>
      <trkpt lat="44.13508" lon="6.84039">
        <ele>1137.3890380859</ele>
        <time>2017-10-28T12:49:27Z</time>
      </trkpt>
      <trkpt lat="44.135" lon="6.8404">
        <ele>1135.3890380859</ele>
        <time>2017-10-28T12:49:33Z</time>
      </trkpt>
      <trkpt lat="44.135" lon="6.84029">
        <ele>1132.3890380859</ele>
        <time>2017-10-28T12:49:42Z</time>
      </trkpt>
      <trkpt lat="44.1352" lon="6.84008">
        <ele>1129.3890380859</ele>
        <time>2017-10-28T12:49:49Z</time>
      </trkpt>
      <trkpt lat="44.13523" lon="6.83988">
        <ele>1129.3890380859</ele>
        <time>2017-10-28T12:49:55Z</time>
      </trkpt>
      <trkpt lat="44.13505" lon="6.83989">
        <ele>1128.3890380859</ele>
        <time>2017-10-28T12:50:01Z</time>
      </trkpt>
      <trkpt lat="44.13499" lon="6.83985">
        <ele>1128.3890380859</ele>
        <time>2017-10-28T12:50:04Z</time>
      </trkpt>
      <trkpt lat="44.13479" lon="6.83983">
        <ele>1131.3890380859</ele>
        <time>2017-10-28T12:50:11Z</time>
      </trkpt>
      <trkpt lat="44.1346" lon="6.83994">
        <ele>1132.3890380859</ele>
        <time>2017-10-28T12:50:17Z</time>
      </trkpt>
      <trkpt lat="44.13441" lon="6.83993">
        <ele>1130.3890380859</ele>
        <time>2017-10-28T12:50:22Z</time>
      </trkpt>
      <trkpt lat="44.13409" lon="6.8399">
        <ele>1127.3890380859</ele>
        <time>2017-10-28T12:50:28Z</time>
      </trkpt>
      <trkpt lat="44.13394" lon="6.83988">
        <ele>1123.3890380859</ele>
        <time>2017-10-28T12:50:34Z</time>
      </trkpt>
      <trkpt lat="44.13387" lon="6.83991">
        <ele>1119.3890380859</ele>
        <time>2017-10-28T12:50:40Z</time>
      </trkpt>
      <trkpt lat="44.1338" lon="6.83953">
        <ele>1115.3890380859</ele>
        <time>2017-10-28T12:50:46Z</time>
      </trkpt>
      <trkpt lat="44.13375" lon="6.8396">
        <ele>1109.3890380859</ele>
        <time>2017-10-28T12:51:38Z</time>
      </trkpt>
      <trkpt lat="44.1337" lon="6.83988">
        <ele>1107.3890380859</ele>
        <time>2017-10-28T12:51:45Z</time>
      </trkpt>
      <trkpt lat="44.13371" lon="6.84019">
        <ele>1107.3890380859</ele>
        <time>2017-10-28T12:51:51Z</time>
      </trkpt>
      <trkpt lat="44.13382" lon="6.84035">
        <ele>1105.3890380859</ele>
        <time>2017-10-28T12:51:56Z</time>
      </trkpt>
      <trkpt lat="44.13385" lon="6.84044">
        <ele>1107.3890380859</ele>
        <time>2017-10-28T12:52:09Z</time>
      </trkpt>
      <trkpt lat="44.1338" lon="6.84052">
        <ele>1110.3890380859</ele>
        <time>2017-10-28T12:52:21Z</time>
      </trkpt>
      <trkpt lat="44.13373" lon="6.84054">
        <ele>1111.3890380859</ele>
        <time>2017-10-28T12:52:29Z</time>
      </trkpt>
      <trkpt lat="44.13365" lon="6.84059">
        <ele>1113.3890380859</ele>
        <time>2017-10-28T12:52:36Z</time>
      </trkpt>
      <trkpt lat="44.13358" lon="6.84058">
        <ele>1114.3890380859</ele>
        <time>2017-10-28T12:52:42Z</time>
      </trkpt>
      <trkpt lat="44.13351" lon="6.84063">
        <ele>1117.3890380859</ele>
        <time>2017-10-28T12:52:48Z</time>
      </trkpt>
      <trkpt lat="44.13345" lon="6.8407">
        <ele>1117.3890380859</ele>
        <time>2017-10-28T12:52:55Z</time>
      </trkpt>
      <trkpt lat="44.13338" lon="6.84072">
        <ele>1118.3890380859</ele>
        <time>2017-10-28T12:53:01Z</time>
      </trkpt>
      <trkpt lat="44.13329" lon="6.84078">
        <ele>1117.3890380859</ele>
        <time>2017-10-28T12:53:09Z</time>
      </trkpt>
      <trkpt lat="44.13312" lon="6.84082">
        <ele>1119.3890380859</ele>
        <time>2017-10-28T12:53:16Z</time>
      </trkpt>
      <trkpt lat="44.13297" lon="6.84089">
        <ele>1116.3890380859</ele>
        <time>2017-10-28T12:53:21Z</time>
      </trkpt>
      <trkpt lat="44.13278" lon="6.84091">
        <ele>1118.3890380859</ele>
        <time>2017-10-28T12:53:27Z</time>
      </trkpt>
      <trkpt lat="44.13264" lon="6.84097">
        <ele>1116.3890380859</ele>
        <time>2017-10-28T12:53:32Z</time>
      </trkpt>
      <trkpt lat="44.13251" lon="6.8411">
        <ele>1114.3890380859</ele>
        <time>2017-10-28T12:53:37Z</time>
      </trkpt>
      <trkpt lat="44.13249" lon="6.84133">
        <ele>1112.3890380859</ele>
        <time>2017-10-28T12:53:44Z</time>
      </trkpt>
      <trkpt lat="44.13256" lon="6.84158">
        <ele>1112.3890380859</ele>
        <time>2017-10-28T12:53:49Z</time>
      </trkpt>
      <trkpt lat="44.13282" lon="6.84179">
        <ele>1108.3890380859</ele>
        <time>2017-10-28T12:53:55Z</time>
      </trkpt>
      <trkpt lat="44.133" lon="6.84204">
        <ele>1106.3890380859</ele>
        <time>2017-10-28T12:54:01Z</time>
      </trkpt>
      <trkpt lat="44.13321" lon="6.84233">
        <ele>1102.3890380859</ele>
        <time>2017-10-28T12:54:07Z</time>
      </trkpt>
      <trkpt lat="44.13345" lon="6.84252">
        <ele>1096.3900146484</ele>
        <time>2017-10-28T12:54:13Z</time>
      </trkpt>
      <trkpt lat="44.13329" lon="6.84284">
        <ele>1094.3900146484</ele>
        <time>2017-10-28T12:54:19Z</time>
      </trkpt>
      <trkpt lat="44.13322" lon="6.84319">
        <ele>1092.3900146484</ele>
        <time>2017-10-28T12:54:25Z</time>
      </trkpt>
      <trkpt lat="44.13343" lon="6.84342">
        <ele>1089.3900146484</ele>
        <time>2017-10-28T12:54:31Z</time>
      </trkpt>
      <trkpt lat="44.13362" lon="6.84363">
        <ele>1086.3900146484</ele>
        <time>2017-10-28T12:54:37Z</time>
      </trkpt>
      <trkpt lat="44.13379" lon="6.84395">
        <ele>1080.3900146484</ele>
        <time>2017-10-28T12:54:43Z</time>
      </trkpt>
      <trkpt lat="44.13396" lon="6.84423">
        <ele>1071.3900146484</ele>
        <time>2017-10-28T12:54:49Z</time>
      </trkpt>
      <trkpt lat="44.13408" lon="6.84427">
        <ele>1068.3900146484</ele>
        <time>2017-10-28T12:54:55Z</time>
      </trkpt>
      <trkpt lat="44.13419" lon="6.84435">
        <ele>1069.3900146484</ele>
        <time>2017-10-28T12:55:00Z</time>
      </trkpt>
      <trkpt lat="44.13427" lon="6.84435">
        <ele>1069.3900146484</ele>
        <time>2017-10-28T12:55:03Z</time>
      </trkpt>
      <trkpt lat="44.13435" lon="6.84451">
        <ele>1068.3900146484</ele>
        <time>2017-10-28T12:55:10Z</time>
      </trkpt>
      <trkpt lat="44.13437" lon="6.84473">
        <ele>1065.3900146484</ele>
        <time>2017-10-28T12:55:18Z</time>
      </trkpt>
      <trkpt lat="44.13435" lon="6.84493">
        <ele>1067.3900146484</ele>
        <time>2017-10-28T12:55:26Z</time>
      </trkpt>
      <trkpt lat="44.13435" lon="6.84504">
        <ele>1062.3900146484</ele>
        <time>2017-10-28T12:55:31Z</time>
      </trkpt>
      <trkpt lat="44.13443" lon="6.84522">
        <ele>1063.3900146484</ele>
        <time>2017-10-28T12:55:40Z</time>
      </trkpt>
      <trkpt lat="44.13449" lon="6.84532">
        <ele>1066.3900146484</ele>
        <time>2017-10-28T12:55:50Z</time>
      </trkpt>
      <trkpt lat="44.1346" lon="6.84556">
        <ele>1060.3900146484</ele>
        <time>2017-10-28T12:55:56Z</time>
      </trkpt>
      <trkpt lat="44.13475" lon="6.84561">
        <ele>1058.3900146484</ele>
        <time>2017-10-28T12:56:01Z</time>
      </trkpt>
      <trkpt lat="44.13478" lon="6.84585">
        <ele>1058.3900146484</ele>
        <time>2017-10-28T12:56:06Z</time>
      </trkpt>
      <trkpt lat="44.13483" lon="6.84608">
        <ele>1060.3900146484</ele>
        <time>2017-10-28T12:56:13Z</time>
      </trkpt>
      <trkpt lat="44.13485" lon="6.84619">
        <ele>1056.3909912109</ele>
        <time>2017-10-28T12:56:15Z</time>
      </trkpt>
      <trkpt lat="44.13478" lon="6.84657">
        <ele>1050.3909912109</ele>
        <time>2017-10-28T12:56:21Z</time>
      </trkpt>
      <trkpt lat="44.13485" lon="6.8468">
        <ele>1045.3909912109</ele>
        <time>2017-10-28T12:56:28Z</time>
      </trkpt>
      <trkpt lat="44.13486" lon="6.84691">
        <ele>1046.3909912109</ele>
        <time>2017-10-28T12:56:38Z</time>
      </trkpt>
      <trkpt lat="44.13484" lon="6.84701">
        <ele>1048.3909912109</ele>
        <time>2017-10-28T13:01:27Z</time>
      </trkpt>
      <trkpt lat="44.13485" lon="6.84712">
        <ele>1048.3909912109</ele>
        <time>2017-10-28T13:01:45Z</time>
      </trkpt>
      <trkpt lat="44.13492" lon="6.84709">
        <ele>1052.3909912109</ele>
        <time>2017-10-28T13:02:06Z</time>
      </trkpt>
      <trkpt lat="44.13499" lon="6.84709">
        <ele>1049.3909912109</ele>
        <time>2017-10-28T13:02:14Z</time>
      </trkpt>
      <trkpt lat="44.13506" lon="6.84714">
        <ele>1049.3909912109</ele>
        <time>2017-10-28T13:02:20Z</time>
      </trkpt>
      <trkpt lat="44.13514" lon="6.84717">
        <ele>1050.3909912109</ele>
        <time>2017-10-28T13:02:30Z</time>
      </trkpt>
      <trkpt lat="44.13519" lon="6.84725">
        <ele>1047.3909912109</ele>
        <time>2017-10-28T13:02:36Z</time>
      </trkpt>
      <trkpt lat="44.13526" lon="6.84729">
        <ele>1046.3909912109</ele>
        <time>2017-10-28T13:02:44Z</time>
      </trkpt>
      <trkpt lat="44.13534" lon="6.84734">
        <ele>1044.3909912109</ele>
        <time>2017-10-28T13:02:51Z</time>
      </trkpt>
      <trkpt lat="44.13539" lon="6.8474">
        <ele>1045.3909912109</ele>
        <time>2017-10-28T13:02:58Z</time>
      </trkpt>
      <trkpt lat="44.13547" lon="6.84743">
        <ele>1046.3909912109</ele>
        <time>2017-10-28T13:03:06Z</time>
      </trkpt>
      <trkpt lat="44.13555" lon="6.84744">
        <ele>1048.3909912109</ele>
        <time>2017-10-28T13:03:14Z</time>
      </trkpt>
      <trkpt lat="44.13563" lon="6.84743">
        <ele>1056.3909912109</ele>
        <time>2017-10-28T13:03:22Z</time>
      </trkpt>
      <trkpt lat="44.13567" lon="6.84753">
        <ele>1054.3909912109</ele>
        <time>2017-10-28T13:03:29Z</time>
      </trkpt>
      <trkpt lat="44.13568" lon="6.84763">
        <ele>1052.3909912109</ele>
        <time>2017-10-28T13:03:40Z</time>
      </trkpt>
      <trkpt lat="44.13564" lon="6.84772">
        <ele>1054.3909912109</ele>
        <time>2017-10-28T13:03:58Z</time>
      </trkpt>
      <trkpt lat="44.13571" lon="6.84777">
        <ele>1059.3909912109</ele>
        <time>2017-10-28T13:04:15Z</time>
      </trkpt>
      <trkpt lat="44.13574" lon="6.84786">
        <ele>1060.3909912109</ele>
        <time>2017-10-28T13:04:25Z</time>
      </trkpt>
      <trkpt lat="44.13577" lon="6.84796">
        <ele>1063.3909912109</ele>
        <time>2017-10-28T13:04:34Z</time>
      </trkpt>
      <trkpt lat="44.1358" lon="6.84805">
        <ele>1060.3909912109</ele>
        <time>2017-10-28T13:04:43Z</time>
      </trkpt>
      <trkpt lat="44.13584" lon="6.84814">
        <ele>1065.3909912109</ele>
        <time>2017-10-28T13:04:54Z</time>
      </trkpt>
      <trkpt lat="44.13587" lon="6.84824">
        <ele>1067.3909912109</ele>
        <time>2017-10-28T13:05:06Z</time>
      </trkpt>
      <trkpt lat="44.1358" lon="6.84827">
        <ele>1069.3909912109</ele>
        <time>2017-10-28T13:05:21Z</time>
      </trkpt>
      <trkpt lat="44.13578" lon="6.84837">
        <ele>1078.3909912109</ele>
        <time>2017-10-28T13:05:51Z</time>
      </trkpt>
      <trkpt lat="44.1357" lon="6.84838">
        <ele>1084.3909912109</ele>
        <time>2017-10-28T13:06:10Z</time>
      </trkpt>
      <trkpt lat="44.1357" lon="6.84848">
        <ele>1090.3909912109</ele>
        <time>2017-10-28T13:06:50Z</time>
      </trkpt>
      <trkpt lat="44.13567" lon="6.84858">
        <ele>1087.3909912109</ele>
        <time>2017-10-28T13:07:01Z</time>
      </trkpt>
      <trkpt lat="44.1356" lon="6.84852">
        <ele>1090.3909912109</ele>
        <time>2017-10-28T13:07:18Z</time>
      </trkpt>
      <trkpt lat="44.13553" lon="6.8485">
        <ele>1090.3909912109</ele>
        <time>2017-10-28T13:07:27Z</time>
      </trkpt>
      <trkpt lat="44.13546" lon="6.84845">
        <ele>1092.3909912109</ele>
        <time>2017-10-28T13:07:36Z</time>
      </trkpt>
      <trkpt lat="44.13541" lon="6.84838">
        <ele>1095.3909912109</ele>
        <time>2017-10-28T13:07:55Z</time>
      </trkpt>
      <trkpt lat="44.13533" lon="6.84836">
        <ele>1096.3909912109</ele>
        <time>2017-10-28T13:08:00Z</time>
      </trkpt>
      <trkpt lat="44.13525" lon="6.84833">
        <ele>1097.3909912109</ele>
        <time>2017-10-28T13:08:08Z</time>
      </trkpt>
      <trkpt lat="44.13519" lon="6.84828">
        <ele>1097.3909912109</ele>
        <time>2017-10-28T13:08:17Z</time>
      </trkpt>
      <trkpt lat="44.13511" lon="6.84827">
        <ele>1102.3909912109</ele>
        <time>2017-10-28T13:08:43Z</time>
      </trkpt>
      <trkpt lat="44.13503" lon="6.84828">
        <ele>1106.3909912109</ele>
        <time>2017-10-28T13:08:54Z</time>
      </trkpt>
      <trkpt lat="44.13496" lon="6.84826">
        <ele>1112.3909912109</ele>
        <time>2017-10-28T13:09:11Z</time>
      </trkpt>
      <trkpt lat="44.13488" lon="6.84827">
        <ele>1118.3909912109</ele>
        <time>2017-10-28T13:09:29Z</time>
      </trkpt>
      <trkpt lat="44.13481" lon="6.84831">
        <ele>1120.3909912109</ele>
        <time>2017-10-28T13:09:59Z</time>
      </trkpt>
      <trkpt lat="44.13473" lon="6.84835">
        <ele>1116.3909912109</ele>
        <time>2017-10-28T13:10:12Z</time>
      </trkpt>
      <trkpt lat="44.13465" lon="6.84833">
        <ele>1116.3909912109</ele>
        <time>2017-10-28T13:10:18Z</time>
      </trkpt>
      <trkpt lat="44.13457" lon="6.84831">
        <ele>1120.3909912109</ele>
        <time>2017-10-28T13:10:30Z</time>
      </trkpt>
      <trkpt lat="44.1345" lon="6.84831">
        <ele>1126.3909912109</ele>
        <time>2017-10-28T13:10:38Z</time>
      </trkpt>
      <trkpt lat="44.13443" lon="6.84833">
        <ele>1128.3909912109</ele>
        <time>2017-10-28T13:10:51Z</time>
      </trkpt>
      <trkpt lat="44.13435" lon="6.84829">
        <ele>1134.3909912109</ele>
        <time>2017-10-28T13:10:59Z</time>
      </trkpt>
      <trkpt lat="44.13427" lon="6.84829">
        <ele>1134.3909912109</ele>
        <time>2017-10-28T13:11:06Z</time>
      </trkpt>
      <trkpt lat="44.1342" lon="6.84826">
        <ele>1138.3909912109</ele>
        <time>2017-10-28T13:11:15Z</time>
      </trkpt>
      <trkpt lat="44.13412" lon="6.84823">
        <ele>1140.3909912109</ele>
        <time>2017-10-28T13:11:24Z</time>
      </trkpt>
      <trkpt lat="44.13404" lon="6.84825">
        <ele>1137.3909912109</ele>
        <time>2017-10-28T13:11:44Z</time>
      </trkpt>
      <trkpt lat="44.13401" lon="6.84835">
        <ele>1139.3909912109</ele>
        <time>2017-10-28T13:11:57Z</time>
      </trkpt>
      <trkpt lat="44.13405" lon="6.84844">
        <ele>1138.3909912109</ele>
        <time>2017-10-28T13:12:06Z</time>
      </trkpt>
      <trkpt lat="44.13408" lon="6.84853">
        <ele>1137.3909912109</ele>
        <time>2017-10-28T13:12:13Z</time>
      </trkpt>
      <trkpt lat="44.13413" lon="6.84861">
        <ele>1140.3909912109</ele>
        <time>2017-10-28T13:12:21Z</time>
      </trkpt>
      <trkpt lat="44.13414" lon="6.84871">
        <ele>1139.3909912109</ele>
        <time>2017-10-28T13:12:30Z</time>
      </trkpt>
      <trkpt lat="44.13413" lon="6.84881">
        <ele>1140.3909912109</ele>
        <time>2017-10-28T13:12:38Z</time>
      </trkpt>
      <trkpt lat="44.13411" lon="6.84892">
        <ele>1141.3909912109</ele>
        <time>2017-10-28T13:12:53Z</time>
      </trkpt>
      <trkpt lat="44.1341" lon="6.84902">
        <ele>1139.3909912109</ele>
        <time>2017-10-28T13:13:15Z</time>
      </trkpt>
      <trkpt lat="44.13413" lon="6.84911">
        <ele>1142.3909912109</ele>
        <time>2017-10-28T13:13:31Z</time>
      </trkpt>
      <trkpt lat="44.13415" lon="6.84921">
        <ele>1145.3909912109</ele>
        <time>2017-10-28T13:13:46Z</time>
      </trkpt>
      <trkpt lat="44.13416" lon="6.84931">
        <ele>1146.3909912109</ele>
        <time>2017-10-28T13:13:55Z</time>
      </trkpt>
      <trkpt lat="44.13423" lon="6.84936">
        <ele>1152.3909912109</ele>
        <time>2017-10-28T13:14:06Z</time>
      </trkpt>
      <trkpt lat="44.13427" lon="6.84945">
        <ele>1150.3909912109</ele>
        <time>2017-10-28T13:14:16Z</time>
      </trkpt>
      <trkpt lat="44.1343" lon="6.84955">
        <ele>1150.3909912109</ele>
        <time>2017-10-28T13:14:27Z</time>
      </trkpt>
      <trkpt lat="44.13433" lon="6.84965">
        <ele>1152.3909912109</ele>
        <time>2017-10-28T13:14:38Z</time>
      </trkpt>
      <trkpt lat="44.1343" lon="6.84974">
        <ele>1154.3909912109</ele>
        <time>2017-10-28T13:14:50Z</time>
      </trkpt>
      <trkpt lat="44.13423" lon="6.84978">
        <ele>1158.3909912109</ele>
        <time>2017-10-28T13:15:01Z</time>
      </trkpt>
      <trkpt lat="44.13415" lon="6.84978">
        <ele>1158.3909912109</ele>
        <time>2017-10-28T13:15:09Z</time>
      </trkpt>
      <trkpt lat="44.13406" lon="6.84975">
        <ele>1158.3909912109</ele>
        <time>2017-10-28T13:15:17Z</time>
      </trkpt>
      <trkpt lat="44.13399" lon="6.84969">
        <ele>1157.3909912109</ele>
        <time>2017-10-28T13:15:22Z</time>
      </trkpt>
      <trkpt lat="44.13384" lon="6.84962">
        <ele>1160.3909912109</ele>
        <time>2017-10-28T13:15:29Z</time>
      </trkpt>
      <trkpt lat="44.13368" lon="6.8496">
        <ele>1159.3909912109</ele>
        <time>2017-10-28T13:15:37Z</time>
      </trkpt>
      <trkpt lat="44.1336" lon="6.84958">
        <ele>1160.3909912109</ele>
        <time>2017-10-28T13:15:43Z</time>
      </trkpt>
      <trkpt lat="44.13352" lon="6.84956">
        <ele>1161.3909912109</ele>
        <time>2017-10-28T13:15:48Z</time>
      </trkpt>
      <trkpt lat="44.13345" lon="6.84953">
        <ele>1162.3909912109</ele>
        <time>2017-10-28T13:15:57Z</time>
      </trkpt>
      <trkpt lat="44.13336" lon="6.84954">
        <ele>1161.3909912109</ele>
        <time>2017-10-28T13:16:07Z</time>
      </trkpt>
      <trkpt lat="44.13331" lon="6.84961">
        <ele>1165.3909912109</ele>
        <time>2017-10-28T13:16:22Z</time>
      </trkpt>
      <trkpt lat="44.13323" lon="6.84961">
        <ele>1166.3909912109</ele>
        <time>2017-10-28T13:16:28Z</time>
      </trkpt>
      <trkpt lat="44.13316" lon="6.84962">
        <ele>1170.3909912109</ele>
        <time>2017-10-28T13:16:52Z</time>
      </trkpt>
      <trkpt lat="44.13308" lon="6.84961">
        <ele>1172.3909912109</ele>
        <time>2017-10-28T13:17:08Z</time>
      </trkpt>
      <trkpt lat="44.13301" lon="6.84961">
        <ele>1175.3909912109</ele>
        <time>2017-10-28T13:17:21Z</time>
      </trkpt>
      <trkpt lat="44.13293" lon="6.84962">
        <ele>1179.3909912109</ele>
        <time>2017-10-28T13:17:43Z</time>
      </trkpt>
      <trkpt lat="44.13286" lon="6.84963">
        <ele>1182.3909912109</ele>
        <time>2017-10-28T13:17:54Z</time>
      </trkpt>
      <trkpt lat="44.13279" lon="6.84967">
        <ele>1180.3909912109</ele>
        <time>2017-10-28T13:18:07Z</time>
      </trkpt>
      <trkpt lat="44.13271" lon="6.84965">
        <ele>1182.3909912109</ele>
        <time>2017-10-28T13:18:17Z</time>
      </trkpt>
      <trkpt lat="44.13262" lon="6.84963">
        <ele>1187.3909912109</ele>
        <time>2017-10-28T13:18:30Z</time>
      </trkpt>
      <trkpt lat="44.13255" lon="6.84962">
        <ele>1187.3909912109</ele>
        <time>2017-10-28T13:18:50Z</time>
      </trkpt>
      <trkpt lat="44.13247" lon="6.84961">
        <ele>1188.3909912109</ele>
        <time>2017-10-28T13:19:00Z</time>
      </trkpt>
      <trkpt lat="44.13239" lon="6.84964">
        <ele>1189.3909912109</ele>
        <time>2017-10-28T13:19:08Z</time>
      </trkpt>
      <trkpt lat="44.13231" lon="6.84963">
        <ele>1191.3909912109</ele>
        <time>2017-10-28T13:19:19Z</time>
      </trkpt>
      <trkpt lat="44.13223" lon="6.84963">
        <ele>1192.3909912109</ele>
        <time>2017-10-28T13:19:33Z</time>
      </trkpt>
      <trkpt lat="44.13216" lon="6.84968">
        <ele>1196.3909912109</ele>
        <time>2017-10-28T13:19:45Z</time>
      </trkpt>
      <trkpt lat="44.13208" lon="6.84973">
        <ele>1197.3909912109</ele>
        <time>2017-10-28T13:19:50Z</time>
      </trkpt>
      <trkpt lat="44.13201" lon="6.84977">
        <ele>1197.3909912109</ele>
        <time>2017-10-28T13:19:56Z</time>
      </trkpt>
      <trkpt lat="44.13194" lon="6.84976">
        <ele>1199.3909912109</ele>
        <time>2017-10-28T13:20:13Z</time>
      </trkpt>
      <trkpt lat="44.13186" lon="6.84977">
        <ele>1200.3909912109</ele>
        <time>2017-10-28T13:20:18Z</time>
      </trkpt>
      <trkpt lat="44.13178" lon="6.84973">
        <ele>1204.3909912109</ele>
        <time>2017-10-28T13:20:29Z</time>
      </trkpt>
      <trkpt lat="44.13171" lon="6.8497">
        <ele>1198.3909912109</ele>
        <time>2017-10-28T13:20:46Z</time>
      </trkpt>
      <trkpt lat="44.13165" lon="6.84975">
        <ele>1200.3909912109</ele>
        <time>2017-10-28T13:21:07Z</time>
      </trkpt>
      <trkpt lat="44.13163" lon="6.84985">
        <ele>1204.3909912109</ele>
        <time>2017-10-28T13:21:27Z</time>
      </trkpt>
      <trkpt lat="44.13156" lon="6.84987">
        <ele>1211.3909912109</ele>
        <time>2017-10-28T13:21:45Z</time>
      </trkpt>
      <trkpt lat="44.13148" lon="6.84984">
        <ele>1211.3909912109</ele>
        <time>2017-10-28T13:21:54Z</time>
      </trkpt>
      <trkpt lat="44.13142" lon="6.84979">
        <ele>1211.3909912109</ele>
        <time>2017-10-28T13:22:02Z</time>
      </trkpt>
      <trkpt lat="44.13135" lon="6.84974">
        <ele>1213.3909912109</ele>
        <time>2017-10-28T13:22:17Z</time>
      </trkpt>
      <trkpt lat="44.13128" lon="6.84974">
        <ele>1210.3909912109</ele>
        <time>2017-10-28T13:22:39Z</time>
      </trkpt>
      <trkpt lat="44.13123" lon="6.84983">
        <ele>1214.3909912109</ele>
        <time>2017-10-28T13:22:56Z</time>
      </trkpt>
      <trkpt lat="44.13121" lon="6.84993">
        <ele>1217.3909912109</ele>
        <time>2017-10-28T13:23:08Z</time>
      </trkpt>
      <trkpt lat="44.13116" lon="6.85001">
        <ele>1220.3909912109</ele>
        <time>2017-10-28T13:23:32Z</time>
      </trkpt>
      <trkpt lat="44.13109" lon="6.85005">
        <ele>1225.3909912109</ele>
        <time>2017-10-28T13:23:48Z</time>
      </trkpt>
      <trkpt lat="44.13101" lon="6.85007">
        <ele>1226.3909912109</ele>
        <time>2017-10-28T13:24:03Z</time>
      </trkpt>
      <trkpt lat="44.13093" lon="6.85008">
        <ele>1224.3909912109</ele>
        <time>2017-10-28T13:24:10Z</time>
      </trkpt>
      <trkpt lat="44.13085" lon="6.85012">
        <ele>1225.3909912109</ele>
        <time>2017-10-28T13:24:19Z</time>
      </trkpt>
      <trkpt lat="44.13079" lon="6.85017">
        <ele>1236.3909912109</ele>
        <time>2017-10-28T13:24:38Z</time>
      </trkpt>
      <trkpt lat="44.13071" lon="6.85019">
        <ele>1232.3909912109</ele>
        <time>2017-10-28T13:24:46Z</time>
      </trkpt>
      <trkpt lat="44.13064" lon="6.85015">
        <ele>1233.3909912109</ele>
        <time>2017-10-28T13:24:56Z</time>
      </trkpt>
      <trkpt lat="44.13058" lon="6.85021">
        <ele>1234.3909912109</ele>
        <time>2017-10-28T13:25:07Z</time>
      </trkpt>
      <trkpt lat="44.13051" lon="6.85026">
        <ele>1236.3909912109</ele>
        <time>2017-10-28T13:25:15Z</time>
      </trkpt>
      <trkpt lat="44.13044" lon="6.8503">
        <ele>1239.3909912109</ele>
        <time>2017-10-28T13:25:24Z</time>
      </trkpt>
      <trkpt lat="44.13035" lon="6.85032">
        <ele>1238.3909912109</ele>
        <time>2017-10-28T13:25:33Z</time>
      </trkpt>
      <trkpt lat="44.13027" lon="6.85035">
        <ele>1239.3909912109</ele>
        <time>2017-10-28T13:25:42Z</time>
      </trkpt>
      <trkpt lat="44.1302" lon="6.85036">
        <ele>1240.3909912109</ele>
        <time>2017-10-28T13:25:49Z</time>
      </trkpt>
      <trkpt lat="44.13012" lon="6.85038">
        <ele>1238.3909912109</ele>
        <time>2017-10-28T13:25:57Z</time>
      </trkpt>
      <trkpt lat="44.13005" lon="6.85043">
        <ele>1239.3909912109</ele>
        <time>2017-10-28T13:26:05Z</time>
      </trkpt>
      <trkpt lat="44.12997" lon="6.85046">
        <ele>1238.3909912109</ele>
        <time>2017-10-28T13:26:11Z</time>
      </trkpt>
      <trkpt lat="44.1299" lon="6.85051">
        <ele>1241.3909912109</ele>
        <time>2017-10-28T13:26:17Z</time>
      </trkpt>
      <trkpt lat="44.12983" lon="6.85056">
        <ele>1241.3909912109</ele>
        <time>2017-10-28T13:26:26Z</time>
      </trkpt>
      <trkpt lat="44.12976" lon="6.8506">
        <ele>1240.3909912109</ele>
        <time>2017-10-28T13:26:32Z</time>
      </trkpt>
      <trkpt lat="44.12971" lon="6.85068">
        <ele>1243.3909912109</ele>
        <time>2017-10-28T13:26:43Z</time>
      </trkpt>
      <trkpt lat="44.12965" lon="6.85076">
        <ele>1246.3909912109</ele>
        <time>2017-10-28T13:27:05Z</time>
      </trkpt>
      <trkpt lat="44.12962" lon="6.85085">
        <ele>1245.3909912109</ele>
        <time>2017-10-28T13:27:12Z</time>
      </trkpt>
      <trkpt lat="44.12958" lon="6.85094">
        <ele>1245.3909912109</ele>
        <time>2017-10-28T13:27:21Z</time>
      </trkpt>
      <trkpt lat="44.12952" lon="6.85101">
        <ele>1247.3909912109</ele>
        <time>2017-10-28T13:27:29Z</time>
      </trkpt>
      <trkpt lat="44.12947" lon="6.8511">
        <ele>1247.3909912109</ele>
        <time>2017-10-28T13:27:37Z</time>
      </trkpt>
      <trkpt lat="44.12941" lon="6.85115">
        <ele>1248.3909912109</ele>
        <time>2017-10-28T13:27:44Z</time>
      </trkpt>
      <trkpt lat="44.12933" lon="6.85119">
        <ele>1250.3909912109</ele>
        <time>2017-10-28T13:27:52Z</time>
      </trkpt>
      <trkpt lat="44.12926" lon="6.85121">
        <ele>1252.3909912109</ele>
        <time>2017-10-28T13:28:17Z</time>
      </trkpt>
      <trkpt lat="44.12919" lon="6.85126">
        <ele>1253.3909912109</ele>
        <time>2017-10-28T13:28:24Z</time>
      </trkpt>
      <trkpt lat="44.12911" lon="6.8513">
        <ele>1255.3909912109</ele>
        <time>2017-10-28T13:28:37Z</time>
      </trkpt>
      <trkpt lat="44.12904" lon="6.85131">
        <ele>1259.3909912109</ele>
        <time>2017-10-28T13:29:09Z</time>
      </trkpt>
      <trkpt lat="44.12896" lon="6.85131">
        <ele>1267.3909912109</ele>
        <time>2017-10-28T13:29:19Z</time>
      </trkpt>
      <trkpt lat="44.12889" lon="6.85136">
        <ele>1266.3909912109</ele>
        <time>2017-10-28T13:29:25Z</time>
      </trkpt>
      <trkpt lat="44.12882" lon="6.85134">
        <ele>1266.3909912109</ele>
        <time>2017-10-28T13:29:30Z</time>
      </trkpt>
      <trkpt lat="44.12875" lon="6.85126">
        <ele>1268.3909912109</ele>
        <time>2017-10-28T13:29:37Z</time>
      </trkpt>
      <trkpt lat="44.12867" lon="6.85124">
        <ele>1276.3909912109</ele>
        <time>2017-10-28T13:30:00Z</time>
      </trkpt>
      <trkpt lat="44.12859" lon="6.85125">
        <ele>1277.3900146484</ele>
        <time>2017-10-28T13:30:10Z</time>
      </trkpt>
      <trkpt lat="44.12852" lon="6.85125">
        <ele>1277.3900146484</ele>
        <time>2017-10-28T13:30:18Z</time>
      </trkpt>
      <trkpt lat="44.12843" lon="6.85125">
        <ele>1276.3900146484</ele>
        <time>2017-10-28T13:30:25Z</time>
      </trkpt>
      <trkpt lat="44.12836" lon="6.85124">
        <ele>1276.3900146484</ele>
        <time>2017-10-28T13:30:34Z</time>
      </trkpt>
      <trkpt lat="44.12829" lon="6.85127">
        <ele>1278.3900146484</ele>
        <time>2017-10-28T13:30:45Z</time>
      </trkpt>
      <trkpt lat="44.12821" lon="6.85125">
        <ele>1279.3900146484</ele>
        <time>2017-10-28T13:30:59Z</time>
      </trkpt>
      <trkpt lat="44.12813" lon="6.85126">
        <ele>1280.3900146484</ele>
        <time>2017-10-28T13:31:08Z</time>
      </trkpt>
      <trkpt lat="44.12805" lon="6.85127">
        <ele>1282.3900146484</ele>
        <time>2017-10-28T13:31:16Z</time>
      </trkpt>
      <trkpt lat="44.12798" lon="6.85133">
        <ele>1283.3900146484</ele>
        <time>2017-10-28T13:31:25Z</time>
      </trkpt>
      <trkpt lat="44.12794" lon="6.85142">
        <ele>1285.3900146484</ele>
        <time>2017-10-28T13:31:32Z</time>
      </trkpt>
      <trkpt lat="44.12791" lon="6.85151">
        <ele>1287.3900146484</ele>
        <time>2017-10-28T13:31:39Z</time>
      </trkpt>
      <trkpt lat="44.12788" lon="6.85161">
        <ele>1286.3900146484</ele>
        <time>2017-10-28T13:31:46Z</time>
      </trkpt>
      <trkpt lat="44.12781" lon="6.85166">
        <ele>1289.3900146484</ele>
        <time>2017-10-28T13:31:56Z</time>
      </trkpt>
      <trkpt lat="44.12774" lon="6.85166">
        <ele>1293.3900146484</ele>
        <time>2017-10-28T13:32:19Z</time>
      </trkpt>
      <trkpt lat="44.12767" lon="6.85166">
        <ele>1297.3900146484</ele>
        <time>2017-10-28T13:32:28Z</time>
      </trkpt>
      <trkpt lat="44.12759" lon="6.85169">
        <ele>1300.3900146484</ele>
        <time>2017-10-28T13:32:38Z</time>
      </trkpt>
      <trkpt lat="44.12751" lon="6.85168">
        <ele>1301.3900146484</ele>
        <time>2017-10-28T13:32:53Z</time>
      </trkpt>
      <trkpt lat="44.12743" lon="6.85166">
        <ele>1302.3900146484</ele>
        <time>2017-10-28T13:33:02Z</time>
      </trkpt>
      <trkpt lat="44.12735" lon="6.85168">
        <ele>1303.3900146484</ele>
        <time>2017-10-28T13:33:14Z</time>
      </trkpt>
      <trkpt lat="44.12727" lon="6.85168">
        <ele>1305.3900146484</ele>
        <time>2017-10-28T13:33:25Z</time>
      </trkpt>
      <trkpt lat="44.12719" lon="6.85165">
        <ele>1306.3900146484</ele>
        <time>2017-10-28T13:33:31Z</time>
      </trkpt>
      <trkpt lat="44.12713" lon="6.85158">
        <ele>1307.3900146484</ele>
        <time>2017-10-28T13:33:37Z</time>
      </trkpt>
      <trkpt lat="44.12706" lon="6.85154">
        <ele>1311.3900146484</ele>
        <time>2017-10-28T13:33:44Z</time>
      </trkpt>
      <trkpt lat="44.12698" lon="6.85156">
        <ele>1308.3900146484</ele>
        <time>2017-10-28T13:33:56Z</time>
      </trkpt>
      <trkpt lat="44.1269" lon="6.85153">
        <ele>1308.3900146484</ele>
        <time>2017-10-28T13:34:08Z</time>
      </trkpt>
      <trkpt lat="44.12683" lon="6.85153">
        <ele>1307.3900146484</ele>
        <time>2017-10-28T13:34:15Z</time>
      </trkpt>
      <trkpt lat="44.12676" lon="6.85155">
        <ele>1309.3900146484</ele>
        <time>2017-10-28T13:34:24Z</time>
      </trkpt>
      <trkpt lat="44.12668" lon="6.85157">
        <ele>1310.3900146484</ele>
        <time>2017-10-28T13:34:32Z</time>
      </trkpt>
      <trkpt lat="44.12661" lon="6.85161">
        <ele>1309.3900146484</ele>
        <time>2017-10-28T13:34:40Z</time>
      </trkpt>
      <trkpt lat="44.12654" lon="6.85164">
        <ele>1311.3900146484</ele>
        <time>2017-10-28T13:34:53Z</time>
      </trkpt>
      <trkpt lat="44.12646" lon="6.85167">
        <ele>1311.3900146484</ele>
        <time>2017-10-28T13:35:03Z</time>
      </trkpt>
      <trkpt lat="44.12639" lon="6.85173">
        <ele>1310.3900146484</ele>
        <time>2017-10-28T13:35:13Z</time>
      </trkpt>
      <trkpt lat="44.12632" lon="6.85177">
        <ele>1310.3900146484</ele>
        <time>2017-10-28T13:35:23Z</time>
      </trkpt>
      <trkpt lat="44.12625" lon="6.85182">
        <ele>1312.3900146484</ele>
        <time>2017-10-28T13:35:33Z</time>
      </trkpt>
      <trkpt lat="44.12619" lon="6.85188">
        <ele>1312.3900146484</ele>
        <time>2017-10-28T13:35:41Z</time>
      </trkpt>
      <trkpt lat="44.12613" lon="6.85194">
        <ele>1314.3900146484</ele>
        <time>2017-10-28T13:35:49Z</time>
      </trkpt>
      <trkpt lat="44.12609" lon="6.85204">
        <ele>1316.3900146484</ele>
        <time>2017-10-28T13:35:58Z</time>
      </trkpt>
      <trkpt lat="44.12605" lon="6.85213">
        <ele>1318.3900146484</ele>
        <time>2017-10-28T13:36:06Z</time>
      </trkpt>
      <trkpt lat="44.126" lon="6.85222">
        <ele>1320.3900146484</ele>
        <time>2017-10-28T13:36:16Z</time>
      </trkpt>
      <trkpt lat="44.12599" lon="6.85232">
        <ele>1323.3900146484</ele>
        <time>2017-10-28T13:36:25Z</time>
      </trkpt>
      <trkpt lat="44.12595" lon="6.85241">
        <ele>1326.3900146484</ele>
        <time>2017-10-28T13:36:34Z</time>
      </trkpt>
      <trkpt lat="44.12591" lon="6.8525">
        <ele>1324.3900146484</ele>
        <time>2017-10-28T13:36:41Z</time>
      </trkpt>
      <trkpt lat="44.12586" lon="6.85259">
        <ele>1325.3900146484</ele>
        <time>2017-10-28T13:36:56Z</time>
      </trkpt>
      <trkpt lat="44.12575" lon="6.85273">
        <ele>1324.3900146484</ele>
        <time>2017-10-28T13:37:04Z</time>
      </trkpt>
      <trkpt lat="44.12568" lon="6.85281">
        <ele>1321.3900146484</ele>
        <time>2017-10-28T13:37:09Z</time>
      </trkpt>
      <trkpt lat="44.12563" lon="6.85288">
        <ele>1322.3900146484</ele>
        <time>2017-10-28T13:37:14Z</time>
      </trkpt>
      <trkpt lat="44.12557" lon="6.85296">
        <ele>1325.3900146484</ele>
        <time>2017-10-28T13:37:18Z</time>
      </trkpt>
      <trkpt lat="44.12545" lon="6.8531">
        <ele>1327.3900146484</ele>
        <time>2017-10-28T13:37:27Z</time>
      </trkpt>
      <trkpt lat="44.12541" lon="6.85322">
        <ele>1326.3900146484</ele>
        <time>2017-10-28T13:37:33Z</time>
      </trkpt>
      <trkpt lat="44.12537" lon="6.85342">
        <ele>1328.3900146484</ele>
        <time>2017-10-28T13:37:42Z</time>
      </trkpt>
      <trkpt lat="44.12525" lon="6.85355">
        <ele>1331.3900146484</ele>
        <time>2017-10-28T13:37:58Z</time>
      </trkpt>
      <trkpt lat="44.12518" lon="6.85359">
        <ele>1331.3900146484</ele>
        <time>2017-10-28T13:38:07Z</time>
      </trkpt>
      <trkpt lat="44.12511" lon="6.85363">
        <ele>1334.3900146484</ele>
        <time>2017-10-28T13:38:30Z</time>
      </trkpt>
      <trkpt lat="44.12504" lon="6.85367">
        <ele>1337.3900146484</ele>
        <time>2017-10-28T13:38:37Z</time>
      </trkpt>
      <trkpt lat="44.12497" lon="6.85371">
        <ele>1337.3900146484</ele>
        <time>2017-10-28T13:38:43Z</time>
      </trkpt>
      <trkpt lat="44.1249" lon="6.8538">
        <ele>1339.3900146484</ele>
        <time>2017-10-28T13:38:57Z</time>
      </trkpt>
      <trkpt lat="44.12482" lon="6.85383">
        <ele>1339.3900146484</ele>
        <time>2017-10-28T13:39:04Z</time>
      </trkpt>
      <trkpt lat="44.12474" lon="6.85385">
        <ele>1343.3900146484</ele>
        <time>2017-10-28T13:39:11Z</time>
      </trkpt>
      <trkpt lat="44.12466" lon="6.85389">
        <ele>1345.3900146484</ele>
        <time>2017-10-28T13:39:16Z</time>
      </trkpt>
      <trkpt lat="44.1245" lon="6.85396">
        <ele>1348.3900146484</ele>
        <time>2017-10-28T13:39:24Z</time>
      </trkpt>
      <trkpt lat="44.12435" lon="6.85404">
        <ele>1346.3900146484</ele>
        <time>2017-10-28T13:39:30Z</time>
      </trkpt>
      <trkpt lat="44.12428" lon="6.85405">
        <ele>1350.3900146484</ele>
        <time>2017-10-28T13:39:36Z</time>
      </trkpt>
      <trkpt lat="44.12428" lon="6.85394">
        <ele>1342.3900146484</ele>
        <time>2017-10-28T13:40:43Z</time>
      </trkpt>
      <trkpt lat="44.12422" lon="6.85402">
        <ele>1335.3900146484</ele>
        <time>2017-10-28T13:42:49Z</time>
      </trkpt>
      <trkpt lat="44.12406" lon="6.85403">
        <ele>1336.3900146484</ele>
        <time>2017-10-28T13:42:54Z</time>
      </trkpt>
      <trkpt lat="44.124" lon="6.85386">
        <ele>1341.3900146484</ele>
        <time>2017-10-28T13:43:00Z</time>
      </trkpt>
      <trkpt lat="44.12384" lon="6.85386">
        <ele>1343.3900146484</ele>
        <time>2017-10-28T13:43:08Z</time>
      </trkpt>
      <trkpt lat="44.12371" lon="6.85401">
        <ele>1341.3900146484</ele>
        <time>2017-10-28T13:43:15Z</time>
      </trkpt>
      <trkpt lat="44.12366" lon="6.85422">
        <ele>1342.3900146484</ele>
        <time>2017-10-28T13:43:21Z</time>
      </trkpt>
      <trkpt lat="44.12357" lon="6.85447">
        <ele>1343.3900146484</ele>
        <time>2017-10-28T13:43:26Z</time>
      </trkpt>
      <trkpt lat="44.1234" lon="6.85441">
        <ele>1342.3900146484</ele>
        <time>2017-10-28T13:43:32Z</time>
      </trkpt>
      <trkpt lat="44.12325" lon="6.85431">
        <ele>1342.3900146484</ele>
        <time>2017-10-28T13:43:39Z</time>
      </trkpt>
      <trkpt lat="44.12317" lon="6.85433">
        <ele>1343.3900146484</ele>
        <time>2017-10-28T13:43:43Z</time>
      </trkpt>
      <trkpt lat="44.12309" lon="6.85439">
        <ele>1343.3900146484</ele>
        <time>2017-10-28T13:43:48Z</time>
      </trkpt>
      <trkpt lat="44.12296" lon="6.85451">
        <ele>1348.3900146484</ele>
        <time>2017-10-28T13:43:56Z</time>
      </trkpt>
      <trkpt lat="44.12291" lon="6.85457">
        <ele>1347.3900146484</ele>
        <time>2017-10-28T13:44:01Z</time>
      </trkpt>
      <trkpt lat="44.12285" lon="6.85466">
        <ele>1349.3900146484</ele>
        <time>2017-10-28T13:44:06Z</time>
      </trkpt>
      <trkpt lat="44.12279" lon="6.85486">
        <ele>1350.3900146484</ele>
        <time>2017-10-28T13:44:16Z</time>
      </trkpt>
      <trkpt lat="44.12276" lon="6.85495">
        <ele>1351.3900146484</ele>
        <time>2017-10-28T13:44:21Z</time>
      </trkpt>
      <trkpt lat="44.12272" lon="6.85503">
        <ele>1354.3900146484</ele>
        <time>2017-10-28T13:44:27Z</time>
      </trkpt>
      <trkpt lat="44.12265" lon="6.8551">
        <ele>1357.3900146484</ele>
        <time>2017-10-28T13:44:32Z</time>
      </trkpt>
      <trkpt lat="44.12259" lon="6.85517">
        <ele>1358.3900146484</ele>
        <time>2017-10-28T13:44:37Z</time>
      </trkpt>
      <trkpt lat="44.12254" lon="6.85526">
        <ele>1358.3900146484</ele>
        <time>2017-10-28T13:44:43Z</time>
      </trkpt>
      <trkpt lat="44.12249" lon="6.85533">
        <ele>1359.3900146484</ele>
        <time>2017-10-28T13:44:48Z</time>
      </trkpt>
      <trkpt lat="44.12244" lon="6.85543">
        <ele>1360.3900146484</ele>
        <time>2017-10-28T13:44:53Z</time>
      </trkpt>
      <trkpt lat="44.12235" lon="6.85559">
        <ele>1359.3900146484</ele>
        <time>2017-10-28T13:45:01Z</time>
      </trkpt>
      <trkpt lat="44.12226" lon="6.85575">
        <ele>1360.3900146484</ele>
        <time>2017-10-28T13:45:09Z</time>
      </trkpt>
      <trkpt lat="44.12221" lon="6.85585">
        <ele>1362.3900146484</ele>
        <time>2017-10-28T13:45:14Z</time>
      </trkpt>
      <trkpt lat="44.12213" lon="6.85586">
        <ele>1362.3900146484</ele>
        <time>2017-10-28T13:45:20Z</time>
      </trkpt>
      <trkpt lat="44.12209" lon="6.85595">
        <ele>1365.3900146484</ele>
        <time>2017-10-28T13:46:09Z</time>
      </trkpt>
      <trkpt lat="44.12211" lon="6.85619">
        <ele>1365.3900146484</ele>
        <time>2017-10-28T13:46:16Z</time>
      </trkpt>
      <trkpt lat="44.12207" lon="6.85629">
        <ele>1363.3900146484</ele>
        <time>2017-10-28T13:46:21Z</time>
      </trkpt>
      <trkpt lat="44.122" lon="6.85628">
        <ele>1359.3900146484</ele>
        <time>2017-10-28T13:48:39Z</time>
      </trkpt>
      <trkpt lat="44.12195" lon="6.85617">
        <ele>1355.3900146484</ele>
        <time>2017-10-28T13:48:47Z</time>
      </trkpt>
      <trkpt lat="44.12181" lon="6.85606">
        <ele>1353.3900146484</ele>
        <time>2017-10-28T13:48:52Z</time>
      </trkpt>
      <trkpt lat="44.1217" lon="6.85609">
        <ele>1354.3900146484</ele>
        <time>2017-10-28T13:49:08Z</time>
      </trkpt>
      <trkpt lat="44.12149" lon="6.85626">
        <ele>1349.3900146484</ele>
        <time>2017-10-28T13:49:15Z</time>
      </trkpt>
      <trkpt lat="44.12129" lon="6.85639">
        <ele>1350.3900146484</ele>
        <time>2017-10-28T13:49:21Z</time>
      </trkpt>
      <trkpt lat="44.12121" lon="6.85643">
        <ele>1349.3900146484</ele>
        <time>2017-10-28T13:49:23Z</time>
      </trkpt>
      <trkpt lat="44.12103" lon="6.85648">
        <ele>1348.3900146484</ele>
        <time>2017-10-28T13:49:29Z</time>
      </trkpt>
      <trkpt lat="44.12087" lon="6.85657">
        <ele>1350.3900146484</ele>
        <time>2017-10-28T13:49:35Z</time>
      </trkpt>
      <trkpt lat="44.1207" lon="6.85659">
        <ele>1350.3900146484</ele>
        <time>2017-10-28T13:49:42Z</time>
      </trkpt>
      <trkpt lat="44.12053" lon="6.85661">
        <ele>1350.3900146484</ele>
        <time>2017-10-28T13:49:47Z</time>
      </trkpt>
      <trkpt lat="44.12022" lon="6.85653">
        <ele>1350.3900146484</ele>
        <time>2017-10-28T13:49:53Z</time>
      </trkpt>
      <trkpt lat="44.12013" lon="6.85645">
        <ele>1351.3900146484</ele>
        <time>2017-10-28T13:49:55Z</time>
      </trkpt>
      <trkpt lat="44.11983" lon="6.8565">
        <ele>1350.3900146484</ele>
        <time>2017-10-28T13:50:01Z</time>
      </trkpt>
      <trkpt lat="44.11965" lon="6.85655">
        <ele>1338.3900146484</ele>
        <time>2017-10-28T13:50:06Z</time>
      </trkpt>
      <trkpt lat="44.11937" lon="6.85661">
        <ele>1339.3900146484</ele>
        <time>2017-10-28T13:50:12Z</time>
      </trkpt>
      <trkpt lat="44.11928" lon="6.85659">
        <ele>1340.3900146484</ele>
        <time>2017-10-28T13:50:15Z</time>
      </trkpt>
      <trkpt lat="44.11911" lon="6.85655">
        <ele>1344.3900146484</ele>
        <time>2017-10-28T13:50:22Z</time>
      </trkpt>
      <trkpt lat="44.11894" lon="6.85656">
        <ele>1343.3900146484</ele>
        <time>2017-10-28T13:50:30Z</time>
      </trkpt>
      <trkpt lat="44.11885" lon="6.85659">
        <ele>1344.3900146484</ele>
        <time>2017-10-28T13:50:34Z</time>
      </trkpt>
      <trkpt lat="44.11876" lon="6.8566">
        <ele>1349.3900146484</ele>
        <time>2017-10-28T13:50:38Z</time>
      </trkpt>
      <trkpt lat="44.11857" lon="6.85655">
        <ele>1350.3900146484</ele>
        <time>2017-10-28T13:50:45Z</time>
      </trkpt>
      <trkpt lat="44.11849" lon="6.85651">
        <ele>1349.3900146484</ele>
        <time>2017-10-28T13:50:47Z</time>
      </trkpt>
      <trkpt lat="44.11823" lon="6.85645">
        <ele>1347.3900146484</ele>
        <time>2017-10-28T13:50:53Z</time>
      </trkpt>
      <trkpt lat="44.11813" lon="6.85644">
        <ele>1347.3900146484</ele>
        <time>2017-10-28T13:50:55Z</time>
      </trkpt>
      <trkpt lat="44.11785" lon="6.85643">
        <ele>1343.3900146484</ele>
        <time>2017-10-28T13:51:24Z</time>
      </trkpt>
      <trkpt lat="44.11768" lon="6.85642">
        <ele>1342.3900146484</ele>
        <time>2017-10-28T13:51:28Z</time>
      </trkpt>
      <trkpt lat="44.11743" lon="6.85634">
        <ele>1344.3900146484</ele>
        <time>2017-10-28T13:51:34Z</time>
      </trkpt>
      <trkpt lat="44.11725" lon="6.85622">
        <ele>1342.3900146484</ele>
        <time>2017-10-28T13:51:40Z</time>
      </trkpt>
      <trkpt lat="44.11701" lon="6.85614">
        <ele>1340.3900146484</ele>
        <time>2017-10-28T13:51:46Z</time>
      </trkpt>
      <trkpt lat="44.11678" lon="6.85611">
        <ele>1335.3900146484</ele>
        <time>2017-10-28T13:51:52Z</time>
      </trkpt>
      <trkpt lat="44.11653" lon="6.85586">
        <ele>1332.3890380859</ele>
        <time>2017-10-28T13:51:58Z</time>
      </trkpt>
      <trkpt lat="44.11645" lon="6.85576">
        <ele>1331.3890380859</ele>
        <time>2017-10-28T13:52:00Z</time>
      </trkpt>
      <trkpt lat="44.11625" lon="6.85547">
        <ele>1327.3890380859</ele>
        <time>2017-10-28T13:52:06Z</time>
      </trkpt>
      <trkpt lat="44.11604" lon="6.85522">
        <ele>1321.3890380859</ele>
        <time>2017-10-28T13:52:12Z</time>
      </trkpt>
      <trkpt lat="44.11588" lon="6.85491">
        <ele>1316.3890380859</ele>
        <time>2017-10-28T13:52:18Z</time>
      </trkpt>
      <trkpt lat="44.11572" lon="6.8546">
        <ele>1313.3890380859</ele>
        <time>2017-10-28T13:52:24Z</time>
      </trkpt>
      <trkpt lat="44.11572" lon="6.85437">
        <ele>1311.3890380859</ele>
        <time>2017-10-28T13:52:29Z</time>
      </trkpt>
      <trkpt lat="44.11562" lon="6.8544">
        <ele>1307.3890380859</ele>
        <time>2017-10-28T13:52:34Z</time>
      </trkpt>
      <trkpt lat="44.11535" lon="6.85455">
        <ele>1303.3890380859</ele>
        <time>2017-10-28T13:52:40Z</time>
      </trkpt>
      <trkpt lat="44.11504" lon="6.85463">
        <ele>1296.3890380859</ele>
        <time>2017-10-28T13:52:46Z</time>
      </trkpt>
      <trkpt lat="44.11471" lon="6.8547">
        <ele>1290.3890380859</ele>
        <time>2017-10-28T13:52:52Z</time>
      </trkpt>
      <trkpt lat="44.11448" lon="6.85486">
        <ele>1283.3890380859</ele>
        <time>2017-10-28T13:52:58Z</time>
      </trkpt>
      <trkpt lat="44.11429" lon="6.85496">
        <ele>1278.3890380859</ele>
        <time>2017-10-28T13:53:04Z</time>
      </trkpt>
      <trkpt lat="44.11412" lon="6.85489">
        <ele>1273.3890380859</ele>
        <time>2017-10-28T13:53:09Z</time>
      </trkpt>
      <trkpt lat="44.11391" lon="6.85469">
        <ele>1269.3890380859</ele>
        <time>2017-10-28T13:53:15Z</time>
      </trkpt>
      <trkpt lat="44.1139" lon="6.85436">
        <ele>1263.3890380859</ele>
        <time>2017-10-28T13:53:21Z</time>
      </trkpt>
      <trkpt lat="44.11404" lon="6.85406">
        <ele>1258.3890380859</ele>
        <time>2017-10-28T13:53:27Z</time>
      </trkpt>
      <trkpt lat="44.11417" lon="6.8539">
        <ele>1254.3890380859</ele>
        <time>2017-10-28T13:53:32Z</time>
      </trkpt>
      <trkpt lat="44.11419" lon="6.85375">
        <ele>1252.3890380859</ele>
        <time>2017-10-28T13:53:41Z</time>
      </trkpt>
      <trkpt lat="44.11405" lon="6.85365">
        <ele>1252.3890380859</ele>
        <time>2017-10-28T13:53:48Z</time>
      </trkpt>
      <trkpt lat="44.11388" lon="6.85366">
        <ele>1251.3890380859</ele>
        <time>2017-10-28T13:53:56Z</time>
      </trkpt>
      <trkpt lat="44.1137" lon="6.85366">
        <ele>1248.3890380859</ele>
        <time>2017-10-28T13:54:01Z</time>
      </trkpt>
      <trkpt lat="44.11352" lon="6.85362">
        <ele>1247.3890380859</ele>
        <time>2017-10-28T13:54:06Z</time>
      </trkpt>
      <trkpt lat="44.11338" lon="6.85344">
        <ele>1248.3890380859</ele>
        <time>2017-10-28T13:54:13Z</time>
      </trkpt>
      <trkpt lat="44.11312" lon="6.85335">
        <ele>1245.3879394531</ele>
        <time>2017-10-28T13:54:20Z</time>
      </trkpt>
      <trkpt lat="44.11297" lon="6.8532">
        <ele>1242.3879394531</ele>
        <time>2017-10-28T13:54:26Z</time>
      </trkpt>
      <trkpt lat="44.11276" lon="6.85318">
        <ele>1239.3879394531</ele>
        <time>2017-10-28T13:54:35Z</time>
      </trkpt>
      <trkpt lat="44.11262" lon="6.85328">
        <ele>1238.3879394531</ele>
        <time>2017-10-28T13:54:41Z</time>
      </trkpt>
      <trkpt lat="44.11238" lon="6.85314">
        <ele>1236.3879394531</ele>
        <time>2017-10-28T13:54:47Z</time>
      </trkpt>
      <trkpt lat="44.11214" lon="6.85301">
        <ele>1234.3879394531</ele>
        <time>2017-10-28T13:54:53Z</time>
      </trkpt>
      <trkpt lat="44.11185" lon="6.85289">
        <ele>1232.3879394531</ele>
        <time>2017-10-28T13:54:59Z</time>
      </trkpt>
      <trkpt lat="44.11173" lon="6.85302">
        <ele>1227.3879394531</ele>
        <time>2017-10-28T13:55:05Z</time>
      </trkpt>
      <trkpt lat="44.11157" lon="6.85296">
        <ele>1223.3879394531</ele>
        <time>2017-10-28T13:55:10Z</time>
      </trkpt>
      <trkpt lat="44.1114" lon="6.85286">
        <ele>1217.3879394531</ele>
        <time>2017-10-28T13:55:21Z</time>
      </trkpt>
      <trkpt lat="44.11134" lon="6.85292">
        <ele>1216.3879394531</ele>
        <time>2017-10-28T13:55:23Z</time>
      </trkpt>
      <trkpt lat="44.11121" lon="6.85278">
        <ele>1214.3879394531</ele>
        <time>2017-10-28T13:55:29Z</time>
      </trkpt>
      <trkpt lat="44.11113" lon="6.85247">
        <ele>1207.3879394531</ele>
        <time>2017-10-28T13:55:35Z</time>
      </trkpt>
      <trkpt lat="44.11101" lon="6.85263">
        <ele>1204.3879394531</ele>
        <time>2017-10-28T13:55:42Z</time>
      </trkpt>
      <trkpt lat="44.11097" lon="6.85287">
        <ele>1200.3879394531</ele>
        <time>2017-10-28T13:55:47Z</time>
      </trkpt>
      <trkpt lat="44.11088" lon="6.85286">
        <ele>1193.3879394531</ele>
        <time>2017-10-28T13:55:52Z</time>
      </trkpt>
      <trkpt lat="44.11069" lon="6.85264">
        <ele>1187.3879394531</ele>
        <time>2017-10-28T13:55:58Z</time>
      </trkpt>
      <trkpt lat="44.11046" lon="6.85247">
        <ele>1184.3879394531</ele>
        <time>2017-10-28T13:56:04Z</time>
      </trkpt>
      <trkpt lat="44.11022" lon="6.85226">
        <ele>1177.3879394531</ele>
        <time>2017-10-28T13:56:10Z</time>
      </trkpt>
      <trkpt lat="44.10991" lon="6.85224">
        <ele>1175.3879394531</ele>
        <time>2017-10-28T13:56:16Z</time>
      </trkpt>
      <trkpt lat="44.10963" lon="6.85231">
        <ele>1171.3879394531</ele>
        <time>2017-10-28T13:56:22Z</time>
      </trkpt>
      <trkpt lat="44.10934" lon="6.85226">
        <ele>1166.3879394531</ele>
        <time>2017-10-28T13:56:30Z</time>
      </trkpt>
      <trkpt lat="44.10919" lon="6.85215">
        <ele>1160.3879394531</ele>
        <time>2017-10-28T13:56:35Z</time>
      </trkpt>
      <trkpt lat="44.10903" lon="6.85216">
        <ele>1156.3879394531</ele>
        <time>2017-10-28T13:56:40Z</time>
      </trkpt>
      <trkpt lat="44.10896" lon="6.8522">
        <ele>1151.3879394531</ele>
        <time>2017-10-28T13:56:44Z</time>
      </trkpt>
      <trkpt lat="44.10892" lon="6.85197">
        <ele>1148.3879394531</ele>
        <time>2017-10-28T13:56:50Z</time>
      </trkpt>
      <trkpt lat="44.10883" lon="6.85202">
        <ele>1145.3879394531</ele>
        <time>2017-10-28T13:56:55Z</time>
      </trkpt>
      <trkpt lat="44.10866" lon="6.85209">
        <ele>1139.3879394531</ele>
        <time>2017-10-28T13:57:01Z</time>
      </trkpt>
      <trkpt lat="44.10839" lon="6.85209">
        <ele>1133.3869628906</ele>
        <time>2017-10-28T13:57:07Z</time>
      </trkpt>
      <trkpt lat="44.10816" lon="6.85201">
        <ele>1126.3869628906</ele>
        <time>2017-10-28T13:57:13Z</time>
      </trkpt>
      <trkpt lat="44.10813" lon="6.8519">
        <ele>1121.3869628906</ele>
        <time>2017-10-28T13:57:18Z</time>
      </trkpt>
      <trkpt lat="44.10819" lon="6.85183">
        <ele>1119.3869628906</ele>
        <time>2017-10-28T13:57:21Z</time>
      </trkpt>
      <trkpt lat="44.10802" lon="6.85174">
        <ele>1117.3869628906</ele>
        <time>2017-10-28T13:57:27Z</time>
      </trkpt>
      <trkpt lat="44.10786" lon="6.85171">
        <ele>1111.3869628906</ele>
        <time>2017-10-28T13:57:32Z</time>
      </trkpt>
      <trkpt lat="44.10782" lon="6.8516">
        <ele>1107.3869628906</ele>
        <time>2017-10-28T13:57:39Z</time>
      </trkpt>
      <trkpt lat="44.10767" lon="6.85166">
        <ele>1096.3869628906</ele>
        <time>2017-10-28T13:57:45Z</time>
      </trkpt>
      <trkpt lat="44.10745" lon="6.85177">
        <ele>1091.3869628906</ele>
        <time>2017-10-28T13:57:53Z</time>
      </trkpt>
      <trkpt lat="44.10739" lon="6.85182">
        <ele>1084.3869628906</ele>
        <time>2017-10-28T13:57:59Z</time>
      </trkpt>
      <trkpt lat="44.10733" lon="6.85189">
        <ele>1083.3869628906</ele>
        <time>2017-10-28T13:58:04Z</time>
      </trkpt>
      <trkpt lat="44.10726" lon="6.85188">
        <ele>1081.3869628906</ele>
        <time>2017-10-28T13:58:10Z</time>
      </trkpt>
      <trkpt lat="44.1072" lon="6.85154">
        <ele>1074.3869628906</ele>
        <time>2017-10-28T13:58:16Z</time>
      </trkpt>
      <trkpt lat="44.10724" lon="6.85128">
        <ele>1069.3869628906</ele>
        <time>2017-10-28T13:58:22Z</time>
      </trkpt>
      <trkpt lat="44.10706" lon="6.85132">
        <ele>1068.3869628906</ele>
        <time>2017-10-28T13:58:29Z</time>
      </trkpt>
      <trkpt lat="44.10701" lon="6.85144">
        <ele>1064.3869628906</ele>
        <time>2017-10-28T13:58:32Z</time>
      </trkpt>
      <trkpt lat="44.10693" lon="6.85165">
        <ele>1060.3869628906</ele>
        <time>2017-10-28T13:58:37Z</time>
      </trkpt>
      <trkpt lat="44.10684" lon="6.85152">
        <ele>1052.3869628906</ele>
        <time>2017-10-28T13:58:46Z</time>
      </trkpt>
      <trkpt lat="44.10681" lon="6.85116">
        <ele>1048.3869628906</ele>
        <time>2017-10-28T13:58:52Z</time>
      </trkpt>
      <trkpt lat="44.10675" lon="6.851">
        <ele>1045.3869628906</ele>
        <time>2017-10-28T13:59:00Z</time>
      </trkpt>
      <trkpt lat="44.10676" lon="6.8509">
        <ele>1044.3869628906</ele>
        <time>2017-10-28T13:59:02Z</time>
      </trkpt>
      <trkpt lat="44.1067" lon="6.8508">
        <ele>1041.3869628906</ele>
        <time>2017-10-28T13:59:08Z</time>
      </trkpt>
      <trkpt lat="44.10663" lon="6.85089">
        <ele>1038.3869628906</ele>
        <time>2017-10-28T13:59:11Z</time>
      </trkpt>
      <trkpt lat="44.10657" lon="6.85083">
        <ele>1032.3869628906</ele>
        <time>2017-10-28T13:59:17Z</time>
      </trkpt>
      <trkpt lat="44.10668" lon="6.85055">
        <ele>1027.3869628906</ele>
        <time>2017-10-28T13:59:24Z</time>
      </trkpt>
      <trkpt lat="44.1066" lon="6.85055">
        <ele>1023.3870239258</ele>
        <time>2017-10-28T13:59:30Z</time>
      </trkpt>
      <trkpt lat="44.1065" lon="6.8505">
        <ele>1016.3870239258</ele>
        <time>2017-10-28T13:59:39Z</time>
      </trkpt>
      <trkpt lat="44.10662" lon="6.85032">
        <ele>1012.3870239258</ele>
        <time>2017-10-28T13:59:45Z</time>
      </trkpt>
      <trkpt lat="44.10655" lon="6.85029">
        <ele>1012.3870239258</ele>
        <time>2017-10-28T13:59:51Z</time>
      </trkpt>
      <trkpt lat="44.10658" lon="6.85019">
        <ele>1008.3870239258</ele>
        <time>2017-10-28T13:59:58Z</time>
      </trkpt>
      <trkpt lat="44.10649" lon="6.85006">
        <ele>1001.3870239258</ele>
        <time>2017-10-28T14:00:08Z</time>
      </trkpt>
      <trkpt lat="44.1064" lon="6.84999">
        <ele>998.38702392578</ele>
        <time>2017-10-28T14:00:16Z</time>
      </trkpt>
      <trkpt lat="44.10623" lon="6.84994">
        <ele>996.38702392578</ele>
        <time>2017-10-28T14:00:22Z</time>
      </trkpt>
      <trkpt lat="44.10637" lon="6.84981">
        <ele>991.38702392578</ele>
        <time>2017-10-28T14:00:28Z</time>
      </trkpt>
      <trkpt lat="44.1062" lon="6.84978">
        <ele>989.38702392578</ele>
        <time>2017-10-28T14:00:34Z</time>
      </trkpt>
      <trkpt lat="44.10613" lon="6.84973">
        <ele>982.38702392578</ele>
        <time>2017-10-28T14:00:38Z</time>
      </trkpt>
      <trkpt lat="44.10612" lon="6.84955">
        <ele>971.38702392578</ele>
        <time>2017-10-28T14:00:47Z</time>
      </trkpt>
      <trkpt lat="44.106" lon="6.84946">
        <ele>968.38702392578</ele>
        <time>2017-10-28T14:00:54Z</time>
      </trkpt>
      <trkpt lat="44.10598" lon="6.84936">
        <ele>962.38702392578</ele>
        <time>2017-10-28T14:00:58Z</time>
      </trkpt>
      <trkpt lat="44.10602" lon="6.84915">
        <ele>955.38702392578</ele>
        <time>2017-10-28T14:01:12Z</time>
      </trkpt>
      <trkpt lat="44.10588" lon="6.84916">
        <ele>951.38702392578</ele>
        <time>2017-10-28T14:01:20Z</time>
      </trkpt>
      <trkpt lat="44.10564" lon="6.8492">
        <ele>946.38598632812</ele>
        <time>2017-10-28T14:01:26Z</time>
      </trkpt>
      <trkpt lat="44.1055" lon="6.8491">
        <ele>940.38598632812</ele>
        <time>2017-10-28T14:01:37Z</time>
      </trkpt>
      <trkpt lat="44.10531" lon="6.84912">
        <ele>936.38598632812</ele>
        <time>2017-10-28T14:01:43Z</time>
      </trkpt>
      <trkpt lat="44.10517" lon="6.84909">
        <ele>929.38598632812</ele>
        <time>2017-10-28T14:01:49Z</time>
      </trkpt>
      <trkpt lat="44.10529" lon="6.84893">
        <ele>924.38598632812</ele>
        <time>2017-10-28T14:01:54Z</time>
      </trkpt>
      <trkpt lat="44.10532" lon="6.8487">
        <ele>924.38598632812</ele>
        <time>2017-10-28T14:01:59Z</time>
      </trkpt>
      <trkpt lat="44.10527" lon="6.84877">
        <ele>926.38598632812</ele>
        <time>2017-10-28T14:02:00Z</time>
      </trkpt>
      <trkpt lat="44.10503" lon="6.84895">
        <ele>921.38598632812</ele>
        <time>2017-10-28T14:02:07Z</time>
      </trkpt>
      <trkpt lat="44.10488" lon="6.84923">
        <ele>912.38598632812</ele>
        <time>2017-10-28T14:02:14Z</time>
      </trkpt>
      <trkpt lat="44.10486" lon="6.84911">
        <ele>910.38598632812</ele>
        <time>2017-10-28T14:02:17Z</time>
      </trkpt>
      <trkpt lat="44.10494" lon="6.84886">
        <ele>906.38598632812</ele>
        <time>2017-10-28T14:02:22Z</time>
      </trkpt>
      <trkpt lat="44.10482" lon="6.84887">
        <ele>899.38598632812</ele>
        <time>2017-10-28T14:02:31Z</time>
      </trkpt>
      <trkpt lat="44.10473" lon="6.84906">
        <ele>896.38598632812</ele>
        <time>2017-10-28T14:02:36Z</time>
      </trkpt>
      <trkpt lat="44.10468" lon="6.84894">
        <ele>893.38598632812</ele>
        <time>2017-10-28T14:02:44Z</time>
      </trkpt>
      <trkpt lat="44.10465" lon="6.84883">
        <ele>890.38598632812</ele>
        <time>2017-10-28T14:02:47Z</time>
      </trkpt>
      <trkpt lat="44.10454" lon="6.84878">
        <ele>888.38598632812</ele>
        <time>2017-10-28T14:02:54Z</time>
      </trkpt>
      <trkpt lat="44.10466" lon="6.84846">
        <ele>883.38598632812</ele>
        <time>2017-10-28T14:03:00Z</time>
      </trkpt>
      <trkpt lat="44.10471" lon="6.84835">
        <ele>880.38598632812</ele>
        <time>2017-10-28T14:03:02Z</time>
      </trkpt>
      <trkpt lat="44.10489" lon="6.84798">
        <ele>876.38598632812</ele>
        <time>2017-10-28T14:03:08Z</time>
      </trkpt>
      <trkpt lat="44.10501" lon="6.84785">
        <ele>876.38598632812</ele>
        <time>2017-10-28T14:04:58Z</time>
      </trkpt>
      <trkpt lat="44.10513" lon="6.84762">
        <ele>870.38598632812</ele>
        <time>2017-10-28T14:05:03Z</time>
      </trkpt>
      <trkpt lat="44.10527" lon="6.84723">
        <ele>868.38598632812</ele>
        <time>2017-10-28T14:05:09Z</time>
      </trkpt>
      <trkpt lat="44.10544" lon="6.8472">
        <ele>863.38598632812</ele>
        <time>2017-10-28T14:05:14Z</time>
      </trkpt>
      <trkpt lat="44.10536" lon="6.847">
        <ele>863.38598632812</ele>
        <time>2017-10-28T14:05:19Z</time>
      </trkpt>
      <trkpt lat="44.10522" lon="6.84694">
        <ele>865.38598632812</ele>
        <time>2017-10-28T14:05:25Z</time>
      </trkpt>
      <trkpt lat="44.10505" lon="6.84724">
        <ele>865.38598632812</ele>
        <time>2017-10-28T14:05:32Z</time>
      </trkpt>
      <trkpt lat="44.10485" lon="6.84758">
        <ele>863.38598632812</ele>
        <time>2017-10-28T14:05:38Z</time>
      </trkpt>
      <trkpt lat="44.10461" lon="6.84789">
        <ele>861.38598632812</ele>
        <time>2017-10-28T14:05:43Z</time>
      </trkpt>
      <trkpt lat="44.10437" lon="6.84827">
        <ele>861.38598632812</ele>
        <time>2017-10-28T14:05:48Z</time>
      </trkpt>
      <trkpt lat="44.1041" lon="6.84868">
        <ele>859.38598632812</ele>
        <time>2017-10-28T14:05:53Z</time>
      </trkpt>
      <trkpt lat="44.10395" lon="6.84931">
        <ele>852.38598632812</ele>
        <time>2017-10-28T14:05:58Z</time>
      </trkpt>
      <trkpt lat="44.10351" lon="6.84941">
        <ele>854.38598632812</ele>
        <time>2017-10-28T14:06:04Z</time>
      </trkpt>
      <trkpt lat="44.10305" lon="6.84933">
        <ele>855.38598632812</ele>
        <time>2017-10-28T14:06:10Z</time>
      </trkpt>
      <trkpt lat="44.10263" lon="6.84926">
        <ele>854.38598632812</ele>
        <time>2017-10-28T14:06:15Z</time>
      </trkpt>
      <trkpt lat="44.10239" lon="6.84922">
        <ele>853.38598632812</ele>
        <time>2017-10-28T14:06:18Z</time>
      </trkpt>
      <trkpt lat="44.10198" lon="6.84911">
        <ele>851.38598632812</ele>
        <time>2017-10-28T14:06:23Z</time>
      </trkpt>
      <trkpt lat="44.10161" lon="6.84889">
        <ele>846.38598632812</ele>
        <time>2017-10-28T14:06:28Z</time>
      </trkpt>
      <trkpt lat="44.10123" lon="6.84869">
        <ele>842.38598632812</ele>
        <time>2017-10-28T14:06:33Z</time>
      </trkpt>
      <trkpt lat="44.10088" lon="6.84844">
        <ele>839.38598632812</ele>
        <time>2017-10-28T14:06:38Z</time>
      </trkpt>
      <trkpt lat="44.10053" lon="6.84853">
        <ele>837.38598632812</ele>
        <time>2017-10-28T14:06:43Z</time>
      </trkpt>
      <trkpt lat="44.10034" lon="6.8487">
        <ele>835.38598632812</ele>
        <time>2017-10-28T14:06:46Z</time>
      </trkpt>
      <trkpt lat="44.09995" lon="6.84885">
        <ele>833.38598632812</ele>
        <time>2017-10-28T14:06:51Z</time>
      </trkpt>
      <trkpt lat="44.09949" lon="6.84886">
        <ele>832.38500976562</ele>
        <time>2017-10-28T14:06:56Z</time>
      </trkpt>
      <trkpt lat="44.09939" lon="6.84901">
        <ele>828.38500976562</ele>
        <time>2017-10-28T14:06:58Z</time>
      </trkpt>
      <trkpt lat="44.09902" lon="6.84911">
        <ele>826.38500976562</ele>
        <time>2017-10-28T14:07:03Z</time>
      </trkpt>
      <trkpt lat="44.0989" lon="6.84918">
        <ele>825.38500976562</ele>
        <time>2017-10-28T14:07:05Z</time>
      </trkpt>
      <trkpt lat="44.09856" lon="6.84922">
        <ele>824.38500976562</ele>
        <time>2017-10-28T14:07:10Z</time>
      </trkpt>
      <trkpt lat="44.09817" lon="6.84933">
        <ele>828.38500976562</ele>
        <time>2017-10-28T14:07:16Z</time>
      </trkpt>
      <trkpt lat="44.09791" lon="6.84945">
        <ele>829.38500976562</ele>
        <time>2017-10-28T14:07:20Z</time>
      </trkpt>
      <trkpt lat="44.09757" lon="6.84962">
        <ele>827.38500976562</ele>
        <time>2017-10-28T14:07:26Z</time>
      </trkpt>
      <trkpt lat="44.09724" lon="6.84982">
        <ele>826.38500976562</ele>
        <time>2017-10-28T14:07:32Z</time>
      </trkpt>
      <trkpt lat="44.09712" lon="6.84991">
        <ele>825.38500976562</ele>
        <time>2017-10-28T14:07:34Z</time>
      </trkpt>
      <trkpt lat="44.09684" lon="6.85016">
        <ele>823.38500976562</ele>
        <time>2017-10-28T14:07:39Z</time>
      </trkpt>
      <trkpt lat="44.09664" lon="6.85041">
        <ele>822.38500976562</ele>
        <time>2017-10-28T14:07:43Z</time>
      </trkpt>
      <trkpt lat="44.09633" lon="6.85083">
        <ele>821.38500976562</ele>
        <time>2017-10-28T14:07:49Z</time>
      </trkpt>
      <trkpt lat="44.09604" lon="6.85111">
        <ele>822.38500976562</ele>
        <time>2017-10-28T14:07:54Z</time>
      </trkpt>
      <trkpt lat="44.09524" lon="6.85193">
        <ele>823.38500976562</ele>
        <time>2017-10-28T14:08:08Z</time>
      </trkpt>
      <trkpt lat="44.09525" lon="6.85208">
        <ele>821.38500976562</ele>
        <time>2017-10-28T14:08:09Z</time>
      </trkpt>
      <trkpt lat="44.0952" lon="6.85223">
        <ele>809.38500976562</ele>
        <time>2017-10-28T14:08:10Z</time>
      </trkpt>
      <trkpt lat="44.09517" lon="6.85213">
        <ele>809.38500976562</ele>
        <time>2017-10-28T14:08:11Z</time>
      </trkpt>
      <trkpt lat="44.09506" lon="6.85208">
        <ele>811.38500976562</ele>
        <time>2017-10-28T14:08:13Z</time>
      </trkpt>
      <trkpt lat="44.09498" lon="6.85212">
        <ele>812.38500976562</ele>
        <time>2017-10-28T14:08:14Z</time>
      </trkpt>
      <trkpt lat="44.09466" lon="6.85221">
        <ele>819.38500976562</ele>
        <time>2017-10-28T14:08:19Z</time>
      </trkpt>
      <trkpt lat="44.09455" lon="6.85223">
        <ele>822.38500976562</ele>
        <time>2017-10-28T14:08:20Z</time>
      </trkpt>
      <trkpt lat="44.09448" lon="6.85228">
        <ele>820.38500976562</ele>
        <time>2017-10-28T14:08:21Z</time>
      </trkpt>
      <trkpt lat="44.09409" lon="6.85239">
        <ele>820.38500976562</ele>
        <time>2017-10-28T14:08:26Z</time>
      </trkpt>
      <trkpt lat="44.09368" lon="6.85263">
        <ele>802.38500976562</ele>
        <time>2017-10-28T14:08:31Z</time>
      </trkpt>
      <trkpt lat="44.09356" lon="6.85266">
        <ele>797.38500976562</ele>
        <time>2017-10-28T14:08:33Z</time>
      </trkpt>
      <trkpt lat="44.09348" lon="6.85267">
        <ele>796.38500976562</ele>
        <time>2017-10-28T14:08:34Z</time>
      </trkpt>
      <trkpt lat="44.09302" lon="6.8525">
        <ele>799.38500976562</ele>
        <time>2017-10-28T14:08:39Z</time>
      </trkpt>
      <trkpt lat="44.09261" lon="6.85222">
        <ele>798.38500976562</ele>
        <time>2017-10-28T14:08:44Z</time>
      </trkpt>
      <trkpt lat="44.09251" lon="6.85223">
        <ele>800.38500976562</ele>
        <time>2017-10-28T14:08:45Z</time>
      </trkpt>
      <trkpt lat="44.09219" lon="6.85235">
        <ele>797.38500976562</ele>
        <time>2017-10-28T14:08:49Z</time>
      </trkpt>
      <trkpt lat="44.09179" lon="6.85251">
        <ele>796.38500976562</ele>
        <time>2017-10-28T14:08:54Z</time>
      </trkpt>
      <trkpt lat="44.09172" lon="6.85255">
        <ele>795.38500976562</ele>
        <time>2017-10-28T14:08:55Z</time>
      </trkpt>
      <trkpt lat="44.09134" lon="6.85274">
        <ele>795.38500976562</ele>
        <time>2017-10-28T14:09:00Z</time>
      </trkpt>
      <trkpt lat="44.09099" lon="6.85289">
        <ele>794.38500976562</ele>
        <time>2017-10-28T14:09:05Z</time>
      </trkpt>
      <trkpt lat="44.09062" lon="6.85312">
        <ele>794.38500976562</ele>
        <time>2017-10-28T14:09:11Z</time>
      </trkpt>
      <trkpt lat="44.09031" lon="6.85326">
        <ele>793.38500976562</ele>
        <time>2017-10-28T14:09:16Z</time>
      </trkpt>
      <trkpt lat="44.08999" lon="6.85335">
        <ele>793.38500976562</ele>
        <time>2017-10-28T14:09:22Z</time>
      </trkpt>
      <trkpt lat="44.08978" lon="6.85337">
        <ele>795.38500976562</ele>
        <time>2017-10-28T14:09:28Z</time>
      </trkpt>
      <trkpt lat="44.08961" lon="6.85345">
        <ele>795.38500976562</ele>
        <time>2017-10-28T14:09:34Z</time>
      </trkpt>
      <trkpt lat="44.08953" lon="6.85344">
        <ele>795.38500976562</ele>
        <time>2017-10-28T14:09:36Z</time>
      </trkpt>
      <trkpt lat="44.08945" lon="6.85343">
        <ele>795.38500976562</ele>
        <time>2017-10-28T14:09:41Z</time>
      </trkpt>
    </trkseg>
  </trk>
</gpx>